     2              OBSERVATION DATA    GPS                 RINEX VERSION / TYPE
teqc 1997Jul24 19970902 21:17:30UTC                         PGM / RUN BY / DATE
                                                            COMMENT
BIT 2 OF LLI FLAGS DATA COLLECTED UNDER A-S CONDITION       COMMENT
BIT 2 OF LLI FLAGS DATA COLLECTED UNDER A-S CONDITION       COMMENT
Original Marker Name: 55496.YUMA                            COMMENT
Campaign Name: Salt. Tr. Crust. Monit. May-Jun 1986         COMMENT
4-Character Station Name: YUMA                              COMMENT
6-Character Antenna Code: TI4100                            COMMENT
Vertical Measurement Point: PAE                             COMMENT
Vertical Offset to Rinex Ref. Point: 0.0000                 COMMENT
Radial Measurement Point: RRP                               COMMENT
Radial Offset to Rinex Ref. Point: 0.0000                   COMMENT
Antenna Height from Field Measurement: 1.4480 m             COMMENT
Original XYZ: -2195471.9383 -4884377.8930 3445203.5423      COMMENT
New XYZ position is based on association with SCEC monument COMMENT
E1C9S0R6+0011. Position of that monument is believed to be  COMMENT
valid to within 1 m horizontally; vertical accuracy         COMMENT
should be no worse than 3-times this value.                 COMMENT
                                                            COMMENT
Revised Rinex header created by UCSD GPS archive for        COMMENT
GSAC on 12-Apr-1999 (1999:102) 01:31:43 GMT                 COMMENT
For assistance contact dagnew@ucsd.edu or hjohnson@ucsd.edu COMMENT
                                                            COMMENT
YUMA NCMN 1983                                              MARKER NAME
5 NATIONAL GEODETIC SURVEY                                  OBSERVER / AGENCY
UT04 TI 4100 1.0                                            REC # / TYPE / VERS
108 TI 4100                                                 ANT # / TYPE
 -2196778.0000 -4887337.0000  3448425.0000                  APPROX POSITION XYZ
        1.4480        0.0000        0.0000                  ANTENNA: DELTA H/E/N
     1     1     0                                          WAVELENGTH FACT L1/2
     4    P1    P2    L1    L2                              # / TYPES OF OBSERV
     6                                                      INTERVAL
  1986     6    20     0    39   35.000000                  TIME OF FIRST OBS
  1986     6    20     2    27   11.000000                  TIME OF LAST OBS
     0                                                      # OF SATELLITES
                                                            END OF HEADER
 86  6 20  0 39 35.0800000  0  4G 6G 8G 9G11
  20712238.788    20712239.821    36790327.335 1 -50063447.682 1
  24590002.917    24590008.011    58368061.491 4 -33460976.114 5
  20438807.950    20438813.258    22021371.137 7 -61629203.691 8
  21137310.576    21137314.527    38639580.993 8 -48551393.034 8
 86  6 20  0 39 41.0800000  0  4G 6G 8G 9G11
  20713872.563    20713878.664    36798923.387 1 -50056749.476 1
  24594169.140    24594175.721    58389967.552 2 -33443906.470 3
  20437015.666    20437021.590    22011949.945 7 -61636544.880 8
  21139310.047    21139313.829    38650089.230 8 -48543204.795 8
 86  6 20  0 39 47.0800000  0  4G 6G 8G 9G11
  20715511.078    20715517.695    36807541.420 1 -50050034.139 1
  24598339.207    24598345.831    58411872.390 1 -33426837.780 2
  20435226.902    20435231.384    22002547.969 8 -61643871.079 8
  21141312.510    21141315.881    38660611.805 8 -48535005.380 7
 86  6 20  0 39 53.0800000  0  4G 6G 8G 9G11
  20717156.857    20717164.325    36816181.447 1 -50043301.651 1
  24602507.242    24602512.738    58433775.950 4 -33409770.083 3
  20433441.859    20433445.995    21993165.152 8 -61651182.371 8
  21143317.486    21143322.272    38671148.701 9 -48526794.822 9
 86  6 20  0 39 59.0800000  0  4G 6G 8G 9G11
  20718803.762    20718812.628    36824843.483 1 -50036552.001 1
  24606675.566    24606680.045    58455678.270 7 -33392703.335 8
  20431660.072    20431664.648    21983801.611 8 -61658478.632 8
  21145325.546    21145329.182    38681699.909 9 -48518573.113 8
 86  6 20  0 40  5.0800000  0  4G 6G 8G 9G11
  20720458.721    20720462.795    36833527.514 1 -50029785.247 1
  24610843.636    24610846.738    58477579.243 7 -33375637.664 8
  20429881.186    20429886.481    21974457.380 8 -61665759.852 8
  21147335.534    21147339.941    38692265.408 8 -48510340.249 7
 86  6 20  0 40 11.0800000  0  4G 6G 8G 9G11
  20722114.504    20722120.016    36842233.421 1 -50023001.412 1
  24615011.015    24615015.149    58499478.800 5 -33358573.078 7
  20428107.753    20428110.825    21965132.293 8 -61673026.166 8
  21149348.844    21149353.639    38702845.132 9 -48502096.307 7
 86  6 20  0 40 17.0800000  0  4G 6G 8G 9G11
  20723775.772    20723779.331    36850961.221 1 -50016200.524 1
  24619175.247    24619182.388    58521376.960 6 -33341509.589 8
  20426336.398    20426341.132    21955826.423 7 -61680277.463 7
  21151365.102    21151367.770    38713439.014 9 -48493841.343 7
 86  6 20  0 40 23.0800000  0  4G 6G 8G 9G11
  20725443.017    20725445.827    36859710.998 1 -50009382.530 1
  24623343.716    24623349.752    58543273.659 6 -33324447.223 8
  20424568.703    20424572.815    21946539.868 8 -61687513.747 7
  21153384.256    21153388.189    38724047.076 9 -48485575.313 8
 86  6 20  0 40 29.0800000  0  4G 6G 8G 9G11
  20727112.426    20727114.003    36868482.753 1 -50002547.415 1
  24627511.984    24627514.871    58565169.050 5 -33307385.903 8
  20422805.189    20422809.363    21937272.647 7 -61694734.944 8
  21155406.173    21155409.238    38734669.330 8 -48477298.236 7
 86  6 20  0 40 35.0800000  0  4G 6G 8G 9G11
  20728784.121    20728787.379    36877276.462 1 -49995695.163 1
  24631674.728    24631681.395    58587063.059 5 -33290325.659 8
  20421045.902    20421050.589    21928024.774 8 -61701941.074 7
  21157428.727    21157433.863    38745305.741 8 -48469010.111 6
 86  6 20  0 40 41.0800000  0  4G 6G 8G 9G11
  20730462.436    20730465.671    36886092.205 1 -49988825.766 1
  24635843.396    24635848.001    58608955.668 4 -33273266.503 8
  20419289.731    20419295.416    21918796.353 8 -61709132.053 8
  21159456.192    21159459.605    38755956.387 8 -48460710.919 6
 86  6 20  0 40 47.0800000  0  4G 6G 8G 9G11
  20732143.955    20732147.175    36894929.982 8 -49981939.182 7
  24640009.904    24640013.930    58630846.847 1 -33256208.448 2
  20417537.389    20417543.379    21909587.386 1 -61716307.880 1
  21161485.174    21161489.248    38766621.231 8 -48452400.643 8
 86  6 20  0 40 53.0800000  0  4G 6G 8G 9G11
  20733830.752    20733833.728    36903789.755 8 -49975035.480 7
  24644170.792    24644178.977    58652736.710 1 -33239151.436 3
                  20416106.478    21902133.973 1
  21163517.355    21163522.671    38777300.311 8 -48444079.294 7
 86  6 20  0 40 59.0800000  0  4G 6G 8G 9G11
  20735517.358    20735522.924    36912671.572 1 -49968114.603 1
  24648336.281    24648343.151    58674625.131 1 -33222095.534 5
                  19852044.822     -497634.374 1
  21165553.397    21165555.042    38787993.581 5 -48435746.872 7
 86  6 20  0 41  5.0800000  0  4G 6G 8G 9G11
  20737214.271    20737219.991    36921575.432 1 -49961176.529 2
  24652506.459    24652508.833    58696512.232 1 -33205040.694 1
                  19846151.022     -507204.315 1
  21167590.388    21167594.608    38798700.994 9 -48427403.440 8
 86  6 20  0 41 11.0800000  0  2G 6G11
  20738911.207    20738916.838    36930501.362 8 -49954221.257 7
  21169631.148    21169634.169    38809422.522 9 -48419049.007 8
 86  6 20  0 41 17.0800000  0  2G 6G11
  20740615.216    20740618.836    36939449.363 8 -49947248.780 7
  21171674.043    21171676.202    38820158.225 9 -48410683.510 7
 86  6 20  0 41 23.0800000  0  2G 6G11
  20742322.182    20742325.756    36948419.382 8 -49940259.175 8
  21173717.678    21173723.874    38830908.026 9 -48402307.048 7
 86  6 20  0 41 29.0800000  0  2G 6G11
  20744032.983    20744037.242    36957411.329 9 -49933252.455 7
  21175766.521    21175770.323    38841671.873 9 -48393919.628 7
 86  6 20  0 41 35.0800000  0  2G 6G11
  20745749.185    20745754.117    36966425.287 9 -49926228.585 7
  21177817.314    21177822.749    38852449.732 9 -48385521.302 8
 86  6 20  0 41 41.0800000  0  2G 6G11
  20747467.388    20747472.333    36975461.288 8 -49919187.561 8
  21179870.779    21179874.656    38863241.551 8 -48377112.082 7
 86  6 20  0 41 47.0800000  0  2G 6G11
  20749191.674    20749196.627    36984519.236 5 -49912129.417 6
  21181926.977    21181930.974    38874047.375 4 -48368691.968 4
 86  6 20  0 41 53.0800000  0  2G 6G11
  20750918.340    20750924.171    36993599.150 8 -49905054.173 7
  21183986.135    21183990.310    38884867.179 9 -48360260.961 7
 86  6 20  0 41 59.0800000  0  3G 6G 9G11
  20752650.038    20752655.997    37002700.973 1 -49897961.838 1
                  20396773.708     -629625.521 8
  21186048.068    21186051.638    38895700.887 8 -48351819.093 8
 86  6 20  0 42  5.0800000  0  3G 6G 9G11
  20754388.102    20754395.934    37011824.722 1 -49890852.451 1
                  20395057.222     -638579.713 9
  21188111.920    21188115.816    38906548.444 9 -48343366.466 9
 86  6 20  0 42 11.0800000  0  3G 6G 9G11
  20756127.247    20756132.330    37020970.454 1 -49883725.897 1
                  20393395.442     -647514.507 7
  21190178.387    21190184.013    38917409.878 8 -48334903.003 8
 86  6 20  0 42 17.0800000  0  3G 6G 9G11
  20757872.577    20757875.533    37030138.074 1 -49876582.306 1
  20391698.448    20391702.444     -656429.365 8   1211062.428 1
  21192247.627    21192253.465    38928285.136 8 -48326428.787 8
 86  6 20  0 42 23.0800000  0  3G 6G 9G11
  20759621.161    20759625.409    37039327.619 1 -49869421.628 1
  20390006.253    20390009.502     -665324.379 7   1204131.208 8
  21194318.864    21194324.126    38939174.157 8 -48317943.815 8
 86  6 20  0 42 29.0800000  0  3G 6G 9G11
  20761373.549    20761379.991    37048539.102 1 -49862243.846 1
  20388317.032    20388319.766     -674199.650 8   1197215.911 9
  21196394.972    21196401.102    38950077.056 9 -48309448.060 8
 86  6 20  0 42 35.0800000  0  3G 6G 9G11
  20763131.547    20763137.134    37057772.474 4 -49855049.030 2
  20386632.084    20386636.173     -683055.179 8   1190315.496 8
  21198472.719    21198476.692    38960993.737 9 -48300941.568 8
 86  6 20  0 42 41.0800000  0  3G 6G 9G11
  20764891.448    20764896.049    37067027.737 1 -49847837.131 1
  20384950.075    20384954.957     -691890.979 7   1183430.453 7
  21200551.254    21200556.743    38971924.139 9 -48292424.364 8
 86  6 20  0 42 47.0800000  0  3G 6G 9G11
  20766658.995    20766663.291    37076304.882 1 -49840608.200 1
  20383273.139    20383278.065     -700707.014 9   1176560.824 8
  21202635.197    21202639.325    38982868.268 8 -48283896.485 7
 86  6 20  0 42 53.0800000  0  3G 6G 9G11
  20768429.592    20768428.819    37085603.956 1 -49833362.166 1
  20381598.536    20381604.019     -709503.286 8   1169706.580 7
  21204719.390    21204722.989    38993826.091 8 -48275357.903 8
 86  6 20  0 42 59.0800000  0  3G 6G 9G11
  20770200.253    20770205.666    37094924.904 1 -49826099.090 1
  20379929.512    20379933.823     -718279.596 8   1162867.905 8
  21206808.216    21206813.533    39004797.639 8 -48266808.659 7
 86  6 20  0 43  5.0800000  0  3G 6G 9G11
  20771979.712    20771983.051    37104267.834 1 -49818818.898 1
  20378261.802    20378265.986     -727036.020 8   1156044.706 8
  21208898.198    21208904.240    39015782.915 9 -48258248.696 7
 86  6 20  0 43 11.0800000  0  3G 6G 9G11
  20773760.578    20773762.785    37113632.741 1 -49811521.580 1
  20376599.705    20376605.114     -735772.443 8   1149237.103 7
  21210991.516    21210995.633    39026781.937 8 -48249678.033 7
 86  6 20  0 43 17.0800000  0  3G 6G 9G11
  20775548.600    20775552.509    37123019.575 1 -49804207.148 1
  20374942.415    20374945.364     -744488.949 8   1142445.036 7
  21213086.024    21213091.714    39037794.652 9 -48241096.689 7
 86  6 20  0 43 23.0800000  0  3G 6G 9G11
  20777335.365    20777338.857    37132428.402 1 -49796875.578 1
  20373286.181    20373289.864     -753185.435 9   1135668.540 8
  21215185.395    21215190.485    39048821.069 9 -48232504.690 6
 86  6 20  0 43 29.0800000  0  3G 6G 9G11
  20779132.308    20779135.216    37141859.195 1 -49789526.930 1
  20371634.356    20371639.097     -761861.916 8   1128907.639 7
  21217285.908    21217291.494    39059861.125 8 -48223902.042 8
 86  6 20  0 43 35.0800000  0  3G 6G 9G11
  20780930.431    20780936.663    37151311.991 1 -49782161.112 1
  20369987.419    20369992.513     -770518.323 8   1122162.392 6
  21219388.955    21219394.621    39070914.890 9 -48215288.729 8
 86  6 20  0 43 41.0800000  0  3G 6G 9G11
  20782734.605    20782739.763    37160786.700 8 -49774778.230 8
  20368344.213    20368348.864     -779154.672 8   1115432.777 7
  21221494.680    21221501.795    39081982.240 8 -48206664.803 7
 86  6 20  0 43 47.0800000  0  3G 6G 9G11
  20784541.698    20784546.293    37170283.400 8 -49767378.218 8
  20366704.665    20366709.100     -787770.870 8   1108718.857 8
  21223603.243    21223609.156    39093063.210 8 -48198030.284 8
 86  6 20  0 43 53.0800000  0  3G 6G 9G11
  20786352.890    20786357.310    37179802.032 8 -49759961.111 8
  20365069.092    20365072.817     -796367.152 8   1102020.463 9
  21225715.264    21225720.309    39104157.724 9 -48189385.210 7
 86  6 20  0 43 59.0800000  0  3G 6G 9G11
  20788168.223    20788172.299    37189342.637 9 -49752526.873 7
  20363437.158    20363440.735     -804943.075 8   1095337.926 8
  21227828.725    21227835.052    39115265.848 8 -48180729.536 8
 86  6 20  0 44  5.0800000  0  3G 6G 9G11
  20789988.006    20789993.785    37198905.249 9 -49745075.487 7
  20361809.056    20361813.678     -813498.881 8   1088671.073 8
  21229945.127    21229951.384    39126387.559 8 -48172063.275 8
 86  6 20  0 44 11.0800000  0  3G 6G 9G11
  20791811.541    20791817.005    37208489.885 9 -49737606.945 8
  20360184.844    20360188.971     -822034.427 8   1082019.980 8
  21232063.966    21232070.211    39137522.868 8 -48163386.416 8
 86  6 20  0 44 17.0800000  0  3G 6G 9G11
  20793640.034    20793644.380    37218096.452 9 -49730121.311 8
  20358564.075    20358569.082     -830549.784 8   1075384.642 7
  21234187.138    21234190.948    39148671.697 8 -48154699.009 9
 86  6 20  0 44 23.0800000  0  3G 6G 9G11
  20795472.509    20795475.940    37227724.795 8 -49722618.708 7
  20356948.159    20356952.859     -839045.052 9   1068764.970 8
  21236309.839    21236314.921    39159833.898 8 -48146001.194 7
 86  6 20  0 44 29.0800000  0  3G 6G 9G11
  20797309.512    20797312.445    37237375.049 8 -49715099.034 7
  20355335.231    20355339.281     -847520.143 7   1062161.003 8
  21238436.209    21238441.583    39171009.433 9 -48137292.987 9
 86  6 20  0 44 35.0800000  0  3G 6G 9G11
  20799149.552    20799152.869    37247047.087 9 -49707562.386 7
  20353726.646    20353730.194     -855975.158 8   1055572.661 8
  21240565.883    21240570.790    39182198.273 8 -48128574.404 7
 86  6 20  0 44 41.0800000  0  3G 6G 9G11
  20800994.779    20800998.795    37256740.991 9 -49700008.701 8
  20352121.355    20352125.450     -864410.011 8   1049000.070 8
  21242697.119    21242702.879    39193400.437 9 -48119845.444 7
 86  6 20  0 44 47.0800000  0  3G 6G 9G11
  20802844.082    20802847.348    37266456.640 9 -49692438.068 8
  20350519.411    20350523.521     -872824.702 8   1042443.146 9
  21244832.327    21244837.046    39204615.894 9 -48111106.143 8
 86  6 20  0 44 53.0800000  0  3G 6G 9G11
  20804696.166    20804700.006    37276194.105 9 -49684850.435 7
  20348921.818    20348925.967     -881219.203 7   1035901.980 8
  21246968.397    21246974.048    39215844.655 8 -48102356.436 8
 86  6 20  0 44 59.0800000  0  3G 6G 9G11
  20806552.798    20806557.070    37285953.391 9 -49677245.800 9
  20347329.093    20347332.839     -889593.474 9   1029376.567 8
  21249107.144    21249113.427    39227086.757 8 -48093596.374 8
 86  6 20  0 45  5.0800000  0  3G 6G 9G11
  20808414.959    20808417.413    37295734.599 8 -49669624.079 7
  20345739.139    20345743.088     -897947.505 8   1022866.950 8
  21251250.559    21251255.397    39238342.115 9 -48084825.959 8
 86  6 20  0 45 11.0800000  0  3G 6G 9G11
  20810279.069    20810283.715    37305537.810 9 -49661985.230 8
  20344154.135    20344158.626     -906280.948 8   1016373.346 8
  21253394.851    21253399.077    39249610.844 9 -48076045.133 9
 86  6 20  0 45 17.0800000  0  3G 6G 9G11
  20812149.927    20812153.366    37315362.934 9 -49654329.287 8
  20342572.167    20342575.049     -914594.033 8   1009895.617 8
  21255540.732    21255546.675    39260892.929 8 -48067253.901 8
 86  6 20  0 45 23.0800000  0  3G 6G 9G11
  20814023.844    20814028.213    37325210.121 9 -49646656.157 8
  20340993.691    20340997.876     -922886.534 7   1003433.932 8
  21257689.535    21257695.003    39272188.406 8 -48058452.228 8
 86  6 20  0 45 29.0800000  0  3G 6G 9G11
  20815901.943    20815904.497    37335079.222 9 -49638965.960 8
  20339418.140    20339422.886     -931158.574 8    996988.184 8
  21259843.100    21259847.037    39283497.235 8 -48049640.160 9
 86  6 20  0 45 35.0800000  0  3G 6G 9G11
  20817783.479    20817787.123    37344970.231 8 -49631258.679 7
  20337848.531    20337852.808     -939410.108 8    990558.422 7
  21261996.750    21262002.709    39294819.322 8 -48040817.762 9
 86  6 20  0 45 41.0800000  0  3G 6G 9G11
  20819669.742    20819673.875    37354883.090 8 -49623534.383 7
  20336282.415    20336286.523     -947641.220 8    984144.562 7
  21264154.232    21264159.982    39306154.581 9 -48031985.098 9
 86  6 20  0 45 47.0800000  0  3G 6G 9G11
  20821560.802    20821565.145    37364817.750 9 -49615793.087 8
  20334720.426    20334724.023     -955852.054 8    977746.502 8
  21266314.172    21266318.284    39317503.011 8 -48023142.169 9
 86  6 20  0 45 53.0800000  0  3G 6G 9G11
  20823454.984    20823458.972    37374774.282 8 -49608034.751 7
  20333162.553    20333166.404     -964042.408 8    971364.415 7
  21268475.996    21268480.894    39328864.584 9 -48014288.987 9
 86  6 20  0 45 59.0800000  0  3G 6G 9G11
  20825353.997    20825357.419    37384752.605 8 -49600259.436 7
  20331606.432    20331611.084     -972212.280 8    964998.278 8
  21270641.307    21270645.863    39340239.251 8 -48005425.621 9
 86  6 20  0 46  5.0800000  0  3G 6G 9G11
  20827257.011    20827261.119    37394752.725 8 -49592467.143 8
  20330055.143    20330060.193     -980361.654 9    958648.119 8
  21272807.507    21272812.195    39351626.999 9 -47996552.057 8
 86  6 20  0 46 11.0800000  0  3G 6G 9G11
  20829163.736    20829168.826    37404774.668 9 -49584657.847 7
  20328509.032    20328512.898     -988490.564 8    952313.897 8
  21274976.305    21274981.471    39363027.827 9 -47987668.306 9
 86  6 20  0 46 17.0800000  0  3G 6G 9G11
  20831075.976    20831079.212    37414818.481 9 -49576831.499 8
  20326965.990    20326969.730     -996598.753 8    945995.839 8
  21277148.729    21277154.302    39374441.715 7 -47978774.365 9
 86  6 20  0 46 23.0800000  0  3G 6G 9G11
  20832989.977    20832995.133    37424884.083 9 -49568988.176 8
  20325427.516    20325432.007    -1004686.585 8    939693.611 8
  21279323.733    21279328.051    39385868.603 9 -47969870.304 8
 86  6 20  0 46 29.0800000  0  3G 6G 9G11
  20834911.232    20834913.607    37434971.421 9 -49561127.926 7
  20323891.941    20323896.350    -1012753.807 8    933407.475 7
  21281500.929    21281506.139    39397308.487 8 -47960956.106 9
 86  6 20  0 46 35.0800000  0  3G 6G 9G11
  20836835.314    20836837.700    37445080.593 8 -49553250.644 8
  20322360.570    20322365.006    -1020800.479 7    927137.335 8
  21283680.367    21283684.730    39408761.344 8 -47952031.809 8
 86  6 20  0 46 41.0800000  0  3G 6G 9G11
  20838762.373    20838765.624    37455211.555 8 -49545356.388 8
  20320832.777    20320838.096    -1028826.500 8    920883.276 9
  21285861.913    21285866.399    39420227.192 9 -47943097.389 9
 86  6 20  0 46 47.0800000  0  3G 6G 9G11
  20840695.351    20840698.544    37465364.326 9 -49537445.151 8
  20319309.166    20319313.987    -1036831.855 8    914645.352 8
  21288046.174    21288051.001    39431706.022 9 -47934152.839 9
 86  6 20  0 46 53.0800000  0  3G 6G 9G11
  20842631.233    20842634.657    37475538.885 9 -49529516.935 7
  20317791.214    20317795.492    -1044816.557 8    908423.500 7
  21290232.839    21290237.544    39443197.779 9 -47925198.236 8
 86  6 20  0 46 59.0800000  0  3G 6G 9G11
  20844570.357    20844574.937    37485735.289 8 -49521571.681 8
  20316275.641    20316279.154    -1052780.568 8    902217.784 9
  21292423.330    21292426.010    39454702.502 8 -47916233.521 8
 86  6 20  0 47  5.0800000  0  3G 6G 9G11
  20846513.880    20846518.681    37495953.475 8 -49513609.465 8
  20314763.071    20314768.456    -1060723.922 8    896028.148 8
  21294614.681    21294618.895    39466220.116 9 -47907258.754 8
 86  6 20  0 47 11.0800000  0  3G 6G 9G11
  20848463.213    20848467.656    37506193.496 9 -49505630.226 7
  20313256.259    20313260.163    -1068646.432 8    889854.779 8
  21296809.075    21296812.838    39477750.679 8 -47898273.906 8
 86  6 20  0 47 17.0800000  0  3G 6G 9G11
  20850415.261    20850420.454    37516455.417 8 -49497633.928 7
  20311752.823    20311756.266    -1076548.112 7    883697.616 8
  21299005.358    21299009.145    39489294.154 8 -47889278.994 7
 86  6 20  0 47 23.0800000  0  3G 6G 9G11
  20852373.051    20852376.275    37526739.227 9 -49489620.573 8
  20310252.755    20310256.504    -1084428.941 7    877556.721 8
  21301204.579    21301208.920    39500850.583 9 -47880274.000 7
 86  6 20  0 47 29.0800000  0  3G 6G 9G11
  20854334.025    20854337.818    37537044.931 8 -49481590.166 8
  20308757.101    20308761.490    -1092288.796 8    871432.156 7
  21303405.600    21303409.843    39512419.949 9 -47871258.910 9
 86  6 20  0 47 35.0800000  0  3G 6G 9G11
  20856299.873    20856302.974    37547372.476 9 -49473542.739 8
  20307265.824    20307270.420    -1100127.823 8    865323.807 8
  21305610.408    21305614.414    39524002.184 8 -47862233.783 8
 86  6 20  0 47 41.0800000  0  3G 6G 9G11
  20858269.502    20858274.249    37557721.790 9 -49465478.333 8
  20305777.674    20305781.910    -1107946.103 8    859231.650 8
  21307816.373    21307820.461    39535597.202 9 -47853198.709 9
 86  6 20  0 47 47.0800000  0  3G 6G 9G11
  20860242.491    20860245.907    37568092.862 8 -49457396.982 7
  20304294.660    20304298.340    -1115743.595 8    853155.682 8
  21310025.649    21310028.722    39547204.910 8 -47844153.753 8
 86  6 20  0 47 53.0800000  0  3G 6G 9G11
  20862220.244    20862224.770    37578485.679 9 -49449298.679 8
  20302814.918    20302818.482    -1123520.193 8    847095.985 7
  21312236.502    21312241.258    39558825.349 9 -47835098.867 8
 86  6 20  0 47 59.0800000  0  3G 6G 9G11
  20864200.760    20864206.090    37588900.171 9 -49441183.517 7
  20301336.721    20301343.232    -1131275.909 7    841052.569 9
  21314450.009    21314454.395    39570458.441 9 -47826034.123 8
 86  6 20  0 48  5.0800000  0  3G 6G 9G11
  20866187.225    20866191.822    37599336.336 7 -49433051.416 7
  20299866.829    20299871.103    -1139010.752 8    835025.421 8
  21316665.640    21316670.841    39582104.184 9 -47816959.514 8
 86  6 20  0 48 11.0800000  0  3G 6G 9G11
  20868178.292    20868182.288    37609794.260 9 -49424902.401 7
  20298399.041    20298403.235    -1146724.806 8    829014.476 8
  21318884.912    21318888.364    39593762.548 9 -47807875.082 8
 86  6 20  0 48 17.0800000  0  3G 6G 9G11
  20870172.586    20870177.802    37620273.900 9 -49416736.445 8
  20296933.982    20296938.202    -1154417.929 7    823019.835 8
  21321105.291    21321110.448    39605433.618 9 -47798780.749 8
 86  6 20  0 48 23.0800000  0  3G 6G 9G11
  20872170.364    20872175.171    37630775.378 9 -49408553.491 8
  20295474.844    20295478.951    -1162090.012 7    817041.575 7
  21323329.131    21323334.328    39617117.386 8 -47789676.518 8
 86  6 20  0 48 29.0800000  0  3G 6G 9G11
  20874172.523    20874175.813    37641298.652 9 -49400353.535 8
  20294018.629    20294023.177    -1169741.072 8    811079.717 9
  21325555.565    21325558.968    39628813.853 8 -47780562.386 8
 86  6 20  0 48 35.0800000  0  3G 6G 9G11
  20876179.433    20876183.318    37651843.698 8 -49392136.629 7
  20292566.327    20292571.079    -1177371.026 8    805134.294 7
  21327782.077    21327787.786    39640522.973 8 -47771438.408 8
 86  6 20  0 48 41.0800000  0  3G 6G 9G11
  20878191.017    20878194.710    37662410.452 8 -49383902.797 8
  20291118.635    20291122.359    -1184980.084 7    799205.154 7
  21330013.829    21330017.332    39652244.645 9 -47762304.637 9
 86  6 20  0 48 47.0800000  0  3G 6G 9G11
  20880205.770    20880209.913    37672998.865 9 -49375652.096 7
  20289673.922    20289679.609    -1192568.066 7    793292.447 9
  21332245.548    21332251.146    39663978.827 8 -47753161.125 8
 86  6 20  0 48 53.0800000  0  3G 6G 9G11
  20882224.389    20882229.913    37683608.958 8 -49367384.496 7
  20288234.017    20288238.431    -1200135.038 8    787396.106 7
  21334482.016    21334486.578    39675725.519 8 -47744007.854 9
 86  6 20  0 48 59.0800000  0  3G 6G 9G11
  20884249.357    20884252.054    37694240.786 9 -49359099.950 8
  20286798.430    20286801.613    -1207680.868 9    781516.245 7
  21336719.126    21336723.734    39687484.723 9 -47734844.850 9
 86  6 20  0 49  5.0800000  0  3G 6G 9G11
  20886274.926    20886278.533    37704894.341 8 -49350798.475 8
  20285367.661    20285370.344    -1215205.557 7    775652.845 7
  21338959.822    21338963.887    39699256.435 9 -47725672.084 8
 86  6 20  0 49 11.0800000  0  3G 6G 9G11
  20888306.207    20888310.255    37715569.633 9 -49342480.077 8
  20283939.739    20283942.034    -1222709.190 8    769805.855 7
  21341201.826    21341207.036    39711040.686 9 -47716489.557 8
 86  6 20  0 49 17.0800000  0  3G 6G 9G11
  20890342.280    20890346.711    37726266.715 9 -49334144.695 8
  20282514.399    20282518.813    -1230191.514 8    763975.484 7
  21343446.171    21343451.573    39722837.521 9 -47707297.213 8
 86  6 20  0 49 23.0800000  0  3G 6G 9G11
  20892381.760    20892385.833    37736985.507 8 -49325792.396 8
  20281095.871    20281100.053    -1237652.742 8    758161.531 7
  21345693.705    21345697.964    39734646.816 8 -47698095.176 7
 86  6 20  0 49 29.0800000  0  3G 6G 9G11
  20894425.567    20894429.095    37747725.966 8 -49317423.204 7
  20279680.349    20279683.029    -1245092.735 7    752364.140 8
  21347943.929    21347948.097    39746468.557 9 -47688883.433 8
 86  6 20  0 49 35.0800000  0  3G 6G 9G11
  20896473.642    20896477.547    37758488.172 9 -49309037.070 7
  20278267.545    20278270.941    -1252511.523 8    746583.269 8
  21350195.542    21350200.124    39758302.694 8 -47679662.028 9
 86  6 20  0 49 41.0800000  0  3G 6G 9G11
  20898524.828    20898528.993    37769272.129 8 -49300634.003 7
  20276858.832    20276864.026    -1259909.115 9    740818.907 8
  21352450.088    21352455.586    39770149.241 9 -47670430.953 8
 86  6 20  0 49 47.0800000  0  3G 6G 9G11
  20900581.965    20900585.762    37780077.756 9 -49292214.033 8
  20275456.391    20275461.037    -1267285.418 8    735071.144 8
  21354706.531    21354711.479    39782008.211 9 -47661190.212 8
 86  6 20  0 49 53.0800000  0  3G 6G 9G11
  20902641.193    20902646.246    37790905.035 9 -49283777.197 7
  20274058.576    20274060.369    -1274640.422 8    729339.977 8
  21356965.539    21356970.109    39793879.529 8 -47651939.819 8
 86  6 20  0 49 59.0800000  0  3G 6G 9G11
  20904706.078    20904709.522    37801753.998 9 -49275323.467 7
  20272661.200    20272665.379    -1281974.206 7    723625.332 8
  21359226.866    21359232.126    39805763.214 8 -47642679.818 8
 86  6 20  0 50  5.0800000  0  3G 6G 9G11
  20906774.523    20906779.936    37812624.597 8 -49266852.880 8
  20271268.626    20271273.640    -1289286.691 7    717927.302 7
  21361490.933    21361495.964    39817659.206 8 -47633410.218 8
 86  6 20  0 50 11.0800000  0  3G 6G 9G11
  20908847.993    20908852.754    37823516.870 8 -49258365.403 8
  20269883.213    20269885.971    -1296577.811 8    712245.918 8
  21363756.371    21363762.113    39829567.502 9 -47624131.032 8
 86  6 20  0 50 17.0800000  0  3G 6G 9G11
  20910924.052    20910927.479    37834430.820 8 -49249861.016 7
  20268499.256    20268502.020    -1303847.697 8    706581.065 8
  21366024.431    21366030.883    39841488.033 8 -47614842.300 8
 86  6 20  0 50 23.0800000  0  3G 6G 9G11
  20913005.887    20913008.945    37845366.406 8 -49241339.792 9
  20267120.078    20267123.300    -1311096.191 8    700932.896 7
  21368294.842    21368301.199    39853420.833 8 -47605544.016 8
 86  6 20  0 50 29.0800000  0  3G 6G 9G11
  20915092.265    20915094.767    37856323.554 8 -49232801.744 8
  20265744.018    20265748.328    -1318323.353 8    695301.347 7
  21370567.846    21370574.068    39865365.858 9 -47596236.219 8
 86  6 20  0 50 35.0800000  0  3G 6G 9G11
  20917181.043    20917185.100    37867302.349 9 -49224246.863 7
  20264372.535    20264377.270    -1325529.069 8    689686.488 8
  21372843.716    21372849.251    39877323.014 9 -47586918.956 7
 86  6 20  0 50 41.0800000  0  3G 6G 9G11
  20919271.922    20919278.214    37878302.822 9 -49215675.060 7
  20263004.921    20263008.467    -1332713.415 8    684088.299 7
  21375121.675    21375127.483    39889292.373 8 -47577592.194 8
 86  6 20  0 50 47.0800000  0  3G 6G 9G11
  20921370.076    20921375.175    37889324.865 9 -49207086.456 8
  20261642.797    20261646.934    -1339876.404 7    678506.757 8
  21377401.727    21377407.760    39901273.826 8 -47568255.988 8
 86  6 20  0 50 53.0800000  0  3G 6G 9G11
  20923472.998    20923476.594    37900368.480 9 -49198481.056 8
  20260283.195    20260287.651    -1347018.050 7    672941.851 8
  21379683.840    21379690.093    39913267.394 9 -47558910.357 8
 86  6 20  0 50 59.0800000  0  3G 6G 9G11
  20925577.886    20925582.312    37911433.649 7 -49189858.858 8
  20258929.152    20258931.917    -1354138.306 8    667393.596 7
  21381968.274    21381975.079    39925273.040 9 -47549555.300 9
 86  6 20  0 51  5.0800000  0  3G 6G 9G11
  20927687.696    20927691.961    37922520.388 8 -49181219.839 7
  20257578.243    20257581.892    -1361236.961 8    661862.175 8
  21384255.130    21384261.404    39937290.783 7 -47540190.835 8
 86  6 20  0 51 11.0800000  0  3G 6G 9G11
  20929801.802    20929806.356    37933628.748 8 -49172563.973 7
  20256230.773    20256236.496    -1368313.974 8    656347.616 8
  21386544.486    21386549.912    39949320.637 8 -47530816.925 9
 86  6 20  0 51 17.0800000  0  3G 6G 9G11
  20931919.021    20931924.780    37944758.776 9 -49163891.224 8
  20254886.770    20254891.724    -1375369.670 7    650849.673 8
  21388836.066    21388840.603    39961362.623 8 -47521433.566 8
 86  6 20  0 51 23.0800000  0  3G 6G 9G11
  20934041.043    20934046.645    37955910.513 9 -49155201.571 8
  20253549.722    20253553.912    -1382403.692 7    645368.626 7
  21391129.920    21391135.474    39973416.718 8 -47512040.761 8
 86  6 20  0 51 29.0800000  0  3G 6G 9G11
  20936167.088    20936171.834    37967083.814 9 -49146495.102 8
  20252215.585    20252219.224    -1389416.118 8    639904.394 8
  21393425.534    21393432.138    39985482.931 8 -47502638.524 8
 86  6 20  0 51 35.0800000  0  3G 6G 9G11
  20938297.921    20938301.958    37978278.800 8 -49137771.737 7
  20250885.799    20250890.407    -1396406.820 7    634457.100 7
  21395725.349    21395729.947    39997561.196 9 -47493226.891 8
 86  6 20  0 51 41.0800000  0  3G 6G 9G11
  20940433.142    20940437.553    37989495.434 8 -49129031.517 8
  20249558.570    20249562.746    -1403375.934 7    629026.616 7
  21398026.021    21398030.551    40009651.519 8 -47483805.854 8
 86  6 20  0 51 47.0800000  0  3G 6G 9G11
  20942571.610    20942575.816    38000733.758 7 -49120274.394 8
  20248236.743    20248240.383    -1410323.272 7    623613.118 7
  21400327.994    21400334.262    40021753.879 9 -47474375.451 8
 86  6 20  0 51 53.0800000  0  3G 6G 9G11
  20944713.905    20944718.079    38011993.666 8 -49111500.434 8
  20246918.352    20246923.144    -1417248.895 8    618216.525 7
  21402633.892    21402639.645    40033868.207 8 -47464935.714 8
 86  6 20  0 51 59.0800000  0  3G 6G 9G11
  20946860.868    20946864.596    38023275.120 8 -49102709.693 8
  20245605.394    20245608.558    -1424153.008 8    612836.704 8
  21404941.473    21404946.630    40045994.426 8 -47455486.711 9
 86  6 20  0 52  5.0800000  0  3G 6G 9G11
  20949011.474    20949016.148    38034578.126 8 -49093902.164 8
  20244294.503    20244300.652    -1431035.390 8    607473.808 8
  21407250.495    21407254.915    40058132.548 9 -47446028.435 8
 86  6 20  0 52 11.0800000  0  3G 6G 9G11
  20951168.132    20951171.033    38045902.607 7 -49085077.893 9
  20242989.790    20242994.668    -1437896.124 7    602127.783 8
  21409563.387    21409567.872    40070282.539 7 -47436560.914 9
 86  6 20  0 52 17.0800000  0  3G 6G 9G11
  20953325.993    20953330.902    38057248.544 5 -49076236.904 7
  20241690.549    20241693.505    -1444735.210 6    596798.625 6
  21411876.791    21411883.405    40082444.325 4 -47427084.202 6
 86  6 20  0 52 23.0800000  0  3G 6G 9G11
  20955488.581    20955493.486    38068615.983 9 -49067379.162 8
  20240390.274    20240395.934    -1451552.524 8    591486.432 7
  21414194.333    21414200.438    40094617.937 9 -47417598.281 8
 86  6 20  0 52 29.0800000  0  4G 6G13G 9G11
  20957656.403    20957659.812    38080005.007 8 -49058504.607 8
                  21368265.098    -4535446.072 9
  20239098.668    20239101.976    -1458348.187 7    586191.114 8
  21416512.972    21416517.820    40106803.407 9 -47408103.095 8
 86  6 20  0 52 35.0800000  0  4G 6G13G 9G11
  20959827.197    20959831.791    38091415.508 8 -49049613.308 7
                  21366070.193    -4546939.321 9
  20237809.071    20237813.869    -1465122.034 7    580912.793 8
  21418834.062    21418839.780    40119000.630 8 -47398598.785 7
 86  6 20  0 52 41.0800000  0  4G 6G13G 9G11
  20962002.478    20962007.535    38102847.445 8 -49040705.314 7
                  21363920.603    -4558413.709 7
  20236524.277    20236527.218    -1471874.272 8    575651.304 6
  21421157.890    21421162.534    40131209.594 9 -47389085.303 8
 86  6 20  0 52 47.0800000  0  4G 6G13G 9G11
  20964181.972    20964186.303    38114300.846 8 -49031780.586 8
  21361741.537    21361744.590    -4569869.725 8   5997217.926 3
  20235242.307    20235247.031    -1478604.737 7    570406.805 8
  21423482.311    21423488.293    40143430.269 8 -47379562.713 8
 86  6 20  0 52 53.0800000  0  4G 6G13G 9G11
  20966365.439    20966370.519    38125775.772 8 -49022839.086 9
  21359563.764    21359569.726    -4581307.101 8   5988305.705 9
  20233967.572    20233970.956    -1485313.307 8    565179.343 7
  21425810.832    21425815.589    40155662.690 8 -47370030.938 9
 86  6 20  0 52 59.0800000  0  4G 6G13G 9G11
  20968553.719    20968557.435    38137272.327 8 -49013880.744 9
  21357392.560    21357397.333    -4592725.730 9   5979407.572 8
  20232693.477    20232698.906    -1491999.970 8    559968.951 7
  21428140.524    21428146.782    40167906.867 9 -47360490.036 9
 86  6 20  0 53  5.0800000  0  4G 6G13G 9G11
  20970745.750    20970750.195    38148790.374 8 -49004905.643 8
  21355221.044    21355227.100    -4604125.711 9   5970524.485 8
  20231426.432    20231430.588    -1498664.812 8    554775.567 7
  21430473.282    21430478.473    40180162.799 8 -47350939.956 9
 86  6 20  0 53 11.0800000  0  4G 6G13G 9G11
  20972940.454    20972946.643    38160329.863 7 -48995913.835 8
  21353057.042    21353061.811    -4615506.917 8   5961656.019 8
  20230160.420    20230167.104    -1505307.714 8    549599.294 7
  21432807.328    21432812.457    40192430.486 9 -47341380.717 8
 86  6 20  0 53 17.0800000  0  4G 6G13G 9G11
  20975140.241    20975145.996    38171890.891 8 -48986905.237 8
  21350894.096    21350899.366    -4626869.417 8   5952802.129 7
  20228901.779    20228906.693    -1511928.653 7    544440.118 8
  21435143.906    21435148.899    40204709.892 9 -47331812.356 9
 86  6 20  0 53 23.0800000  0  4G 6G13G 9G11
  20977344.488    20977350.810    38183473.432 8 -48977879.887 7
  21348735.773    21348741.716    -4638213.234 8   5943962.815 9
  20227646.205    20227649.908    -1518527.675 7    539298.032 8
  21437483.441    21437488.562    40217000.959 8 -47322234.905 8
 86  6 20  0 53 29.0800000  0  4G 6G13G 9G11
  20979554.339    20979557.780    38195077.432 8 -48968837.817 7
  21346580.587    21346586.324    -4649538.388 8   5935138.007 7
  20226394.826    20226398.760    -1525104.812 7    534172.987 9
  21439824.222    21439828.761    40229303.650 9 -47312648.388 9
 86  6 20  0 53 35.0800000  0  4G 6G13G 9G11
  20981765.397    20981770.710    38206702.920 9 -48959778.998 8
  21344429.606    21344435.888    -4660844.830 9   5926327.813 8
  20225146.435    20225151.552    -1531659.944 7    529065.097 7
  21442168.628    21442172.096    40241617.981 9 -47303052.812 8
 86  6 20  0 53 41.0800000  0  4G 6G13G 9G11
  20983981.726    20983986.477    38218349.902 9 -48950703.433 7
  21342281.492    21342286.428    -4672132.655 8   5917532.116 8
  20223903.458    20223908.826    -1538193.084 7    523974.353 8
  21444513.402    21444518.333    40253943.917 8 -47293448.184 8
 86  6 20  0 53 47.0800000  0  4G 6G13G 9G11
  20986202.737    20986208.210    38230018.366 8 -48941611.135 7
  21340136.804    21340142.449    -4683401.759 8   5908751.000 9
  20222664.500    20222670.222    -1544704.250 7    518900.707 7
  21446861.449    21446865.776    40266281.427 9 -47283834.539 8
 86  6 20  0 53 53.0800000  0  4G 6G13G 9G11
  20988426.909    20988431.561    38241708.230 8 -48932502.142 8
  21337996.222    21338001.923    -4694652.193 8   5899984.438 8
  20221430.163    20221434.499    -1551193.431 8    513844.209 8
  21449210.869    21449215.309    40278630.505 8 -47274211.883 8
 86  6 20  0 53 59.0800000  0  4G 6G13G 9G11
  20990654.614    20990660.454    38253419.501 8 -48923376.484 8
  21335860.544    21335863.732    -4705883.874 8   5891232.499 8
  20220199.214    20220205.261    -1557660.648 7    508804.818 8
  21451563.655    21451567.961    40290991.102 9 -47264580.255 8
 86  6 20  0 54  5.0800000  0  4G 6G13G 9G11
  20992887.141    20992893.148    38265152.197 8 -48914234.135 8
  21333725.584    21333730.878    -4717096.771 9   5882495.170 8
  20218973.422    20218976.199    -1564105.731 7    503782.670 8
  21453917.358    21453922.449    40303363.223 8 -47254939.640 8
 86  6 20  0 54 11.0800000  0  4G 6G13G 9G11
  20995125.154    20995129.760    38276906.348 8 -48905075.055 8
  21331596.553    21331598.923    -4728290.922 9   5873772.469 8
  20217751.721    20217755.787    -1570528.749 8    498777.730 7
  21456273.736    21456279.659    40315746.852 8 -47245290.071 9
 86  6 20  0 54 17.0800000  0  4G 6G13G 9G11
  20997365.203    20997371.691    38288681.961 9 -48895899.261 9
  21329469.166    21329473.331    -4739466.358 8   5865064.331 8
  20216533.212    20216538.111    -1576929.710 8    493789.971 8
  21458632.932    21458637.376    40328141.986 9 -47235631.520 9
 86  6 20  0 54 23.0800000  0  4G 6G13G 9G11
  20999610.999    20999615.296    38300479.009 8 -48886706.749 9
  21327346.369    21327350.186    -4750623.080 8   5856370.795 9
  20215319.416    20215323.900    -1583308.531 8    488819.454 7
  21460992.783    21460998.736    40340548.540 9 -47225964.073 9
 86  6 20  0 54 29.0800000  0  4G 6G13G 9G11
  21001859.432    21001864.945    38312297.389 8 -48877497.625 8
  21325225.926    21325230.519    -4761761.081 8   5847691.844 8
  20214109.416    20214112.924    -1589665.298 7    483866.138 7
  21463356.877    21463362.092    40352966.526 8 -47216287.723 8
 86  6 20  0 54 35.0800000  0  4G 6G13G 9G11
  21004113.650    21004118.057    38324137.094 8 -48868271.883 8
  21323110.075    21323114.849    -4772880.472 9   5839027.381 8
  20212904.507    20212909.349    -1595999.999 7    478930.009 8
  21465721.626    21465727.066    40365395.862 8 -47206602.528 8
 86  6 20  0 54 41.0800000  0  4G 6G13G 9G11
  21006369.238    21006374.418    38335998.155 9 -48859029.512 8
  21320997.799    21321001.427    -4783981.163 8   5830377.496 9
  20211702.312    20211706.269    -1602312.642 7    474011.072 7
  21468089.241    21468094.264    40377836.526 8 -47196908.512 8
 86  6 20  0 54 47.0800000  0  4G 6G13G 9G11
  21008631.234    21008634.780    38347880.572 9 -48849770.489 8
  21318888.671    21318893.431    -4795063.175 8   5821742.184 8
  20210505.759    20210508.981    -1608603.055 7    469109.464 7
  21470458.745    21470463.527    40390288.442 8 -47187205.720 8
 86  6 20  0 54 53.0800000  0  4G 6G13G 9G11
  21010895.893    21010901.417    38359784.273 8 -48840494.880 9
  21316783.097    21316787.599    -4806126.481 9   5813121.414 9
  20209312.823    20209317.044    -1614871.470 7    464224.981 7
  21472830.512    21472835.664    40402751.735 9 -47177494.060 8
 86  6 20  0 54 59.0800000  0  4G 6G13G 9G11
  21013164.615    21013170.502    38371709.371 9 -48831202.596 9
  21314682.497    21314685.361    -4817171.086 9   5804515.257 8
  20208124.294    20208127.540    -1621117.548 9    459357.908 8
  21475204.452    21475209.355    40415226.389 8 -47167773.571 8
 86  6 20  0 55  5.0800000  0  4G 6G13G 9G11
  21015438.889    21015444.874    38383655.859 8 -48821893.657 9
  21312582.829    21312587.829    -4828196.896 8   5795923.707 8
  20206938.064    20206944.912    -1627341.465 7    454508.116 8
  21477580.443    21477586.148    40427712.359 8 -47158044.245 8
 86  6 20  0 55 11.0800000  0  4G 6G13G 9G11
  21017716.117    21017721.011    38395623.716 9 -48812568.052 8
  21310488.187    21310493.524    -4839203.971 9   5787346.772 8
  20205759.367    20205762.898    -1633543.139 7    449675.640 6
  21479959.025    21479963.060    40440209.652 8 -47148306.085 9
 86  6 20  0 55 17.0800000  0  4G 6G13G 9G11
  21019997.374    21020003.012    38407612.973 8 -48803225.787 7
  21308396.984    21308403.180    -4850192.149 9   5778784.576 8
  20204583.403    20204587.512    -1639722.519 7    444860.545 7
  21482338.805    21482343.468    40452718.269 8 -47138559.113 8
 86  6 20  0 55 23.0800000  0  4G 6G13G 9G11
  21022284.160    21022287.463    38419623.480 8 -48793866.946 8
  21306309.981    21306313.896    -4861161.636 8   5770236.923 8
  20203413.269    20203414.701    -1645879.614 7    440062.810 7
  21484722.326    21484726.263    40465238.056 7 -47128803.442 7
 86  6 20  0 55 29.0800000  0  4G 6G13G 9G11
  21024572.710    21024577.278    38431655.298 9 -48784491.514 8
  21304227.031    21304231.549    -4872112.453 9   5761703.833 8
  20202244.604    20202249.428    -1652014.416 7    435282.435 7
  21487105.471    21487109.366    40477769.067 8 -47119039.020 7
 86  6 20  0 55 35.0800000  0  4G 6G13G 9G11
  21026866.278    21026871.289    38443708.494 8 -48775099.407 8
  21302145.813    21302151.273    -4883044.490 9   5753185.371 8
  20201082.173    20201084.574    -1658126.834 7    430519.513 7
  21489491.453    21489497.099    40490311.336 8 -47109265.835 9
 86  6 20  0 55 41.0800000  0  4G 6G13G 9G11
  21029163.649    21029168.897    38455782.977 9 -48765690.730 7
  21300069.591    21300073.784    -4893957.882 8   5744681.439 8
  20199922.876    20199926.826    -1664217.056 7    425773.895 7
  21491882.290    21491885.512    40502864.726 7 -47099483.971 9
 86  6 20  0 55 47.0800000  0  4G 6G13G 9G11
  21031465.480    21031470.535    38467878.781 9 -48756265.435 9
  21297995.989    21298001.870    -4904852.581 8   5736192.076 8
  20198767.574    20198771.216    -1670284.921 7    421045.692 8
  21494273.135    21494277.273    40515429.302 8 -47089693.393 8
 86  6 20  0 55 53.0800000  0  4G 6G13G 9G11
  21033771.435    21033777.145    38479995.893 8 -48746823.528 9
  21295927.077    21295931.822    -4915728.586 9   5727717.267 8
  20197617.792    20197621.394    -1676330.423 8    416334.911 7
  21496665.291    21496670.902    40528005.051 8 -47079894.104 8
 86  6 20  0 55 59.0800000  0  4G 6G13G 9G11
  21036081.373    21036086.949    38492134.299 8 -48737365.033 8
  21293861.993    21293865.577    -4926585.784 9   5719257.115 8
  20196471.388    20196475.477    -1682353.562 7    411641.555 7
  21499059.940    21499065.092    40540591.899 8 -47070086.168 8
 86  6 20  0 56  5.0800000  0  4G 6G13G 9G11
  21038395.978    21038399.950    38504293.864 8 -48727890.063 8
  21291797.770    21291802.722    -4937424.300 8   5710811.536 8
  20195328.875    20195333.242    -1688354.466 7    406965.522 8
  21501457.601    21501461.657    40553189.778 8 -47060269.642 8
 86  6 20  0 56 11.0800000  0  4G 6G13G 9G11
  21040713.487    21040718.995    38516474.722 9 -48718398.486 8
  21289738.919    21289744.447    -4948244.025 8   5702380.593 8
  20194191.725    20194196.671    -1694332.785 8    402307.104 7
  21503856.426    21503861.586    40565798.787 8 -47050444.446 9
 86  6 20  0 56 17.0800000  0  4G 6G13G 9G11
  21043035.295    21043040.496    38528676.912 9 -48708890.288 8
  21287682.600    21287689.059    -4959044.935 8   5693964.298 9
  20193058.979    20193063.707    -1700288.696 7    397666.138 7
  21506258.443    21506263.445    40578418.900 8 -47040610.605 8
 86  6 20  0 56 23.0800000  0  4G 6G13G 9G11
  21045360.911    21045366.206    38540900.357 8 -48699365.536 8
  21285632.727    21285636.474    -4969827.051 9   5685562.659 8
  20191929.416    20191932.728    -1706222.046 7    393042.737 8
  21508662.524    21508667.672    40591050.047 8 -47030768.150 8
 86  6 20  0 56 29.0800000  0  4G 6G13G 9G11
  21047692.142    21047696.132    38553145.057 9 -48689824.218 8
  21283584.182    21283588.354    -4980590.442 9   5677175.614 8
  20190804.957    20190809.236    -1712132.932 7    388436.848 7
  21511067.293    21511073.517    40603692.290 8 -47020917.042 8
 86  6 20  0 56 35.0800000  0  4G 6G13G 9G11
  21050026.434    21050030.418    38565410.979 8 -48680266.355 8
  21281538.969    21281543.469    -4991335.124 8   5668803.146 9
  20189682.282    20189688.006    -1718021.508 8    383848.346 8
  21513476.198    21513480.843    40616345.532 8 -47011057.381 7
 86  6 20  0 56 41.0800000  0  4G 6G13G 9G11
  21052364.038    21052368.862    38577698.107 8 -48670691.972 8
  21279498.020    21279502.497    -5002061.081 9   5660445.271 8
  20188567.346    20188571.823    -1723887.569 7    379277.407 8
  21515886.357    21515889.987    40629009.663 9 -47001189.218 8
 86  6 20  0 56 47.0800000  0  4G 6G13G 9G11
  21054705.733    21054711.317    38590006.413 8 -48661101.085 8
  21277460.108    21277465.490    -5012768.249 8   5652102.027 8
  20187455.432    20187459.730    -1729731.172 7    374723.945 8
  21518298.561    21518300.820    40641684.721 8 -46991312.556 8
 86  6 20  0 56 53.0800000  0  4G 6G13G 9G11
  21057051.274    21057056.470    38602335.903 9 -48651493.698 7
  21275426.225    21275430.966    -5023456.685 9   5643773.391 7
  20186346.946    20186352.666    -1735552.490 8    370187.856 8
  21520711.583    21520715.505    40654370.663 9 -46981427.417 8
 86  6 20  0 56 59.0800000  0  4G 6G13G 9G11
  21059402.071    21059406.640    38614686.524 9 -48641869.841 8
  21273396.453    21273401.252    -5034126.421 8   5635459.304 8
  20185243.682    20185249.141    -1741351.199 7    365669.367 8
  21523127.879    21523132.708    40667067.500 8 -46971533.771 7
 86  6 20  0 57  5.0800000  0  4G 6G13G 9G11
  21061757.822    21061761.084    38627058.333 8 -48632229.473 8
  21271369.257    21271374.025    -5044777.397 9   5627159.852 8
  20184144.609    20184150.080    -1747127.419 8    361168.433 7
  21525545.795    21525550.017    40679775.266 9 -46961631.614 8
 86  6 20  0 57 11.0800000  0  4G 6G13G 9G11
  21064114.717    21064120.516    38639451.411 8 -48622572.526 8
  21269346.887    21269352.152    -5055409.464 9   5618875.133 9
  20183049.421    20183054.854    -1752880.888 7    356685.197 8
  21527965.422    21527970.915    40692493.966 8 -46951720.942 8
 86  6 20  0 57 17.0800000  0  4G 6G13G 9G11
  21066478.433    21066482.864    38651865.730 8 -48612899.043 8
  21267326.731    21267331.613    -5066022.634 7   5610605.138 9
  20181960.491    20181964.303    -1758611.666 7    352219.668 8
  21530388.214    21530392.910    40705223.550 9 -46941801.781 8
 86  6 20  0 57 23.0800000  0  4G 6G13G 9G11
  21068844.082    21068848.622    38664301.232 8 -48603209.040 8
  21265310.826    21265316.074    -5076616.978 9   5602349.816 8
  20180873.120    20180878.255    -1764319.840 8    347771.736 8
  21532812.583    21532817.639    40717964.043 8 -46931874.144 8
 86  6 20  0 57 29.0800000  0  4G 6G13G 9G11
  21071214.656    21071218.187    38676757.956 8 -48593502.517 7
  21263297.851    21263303.314    -5087192.579 9   5594109.095 8
  20179790.143    20179796.164    -1770005.446 8    343341.396 8
  21535239.163    21535243.938    40730715.325 7 -46921938.076 8
 86  6 20  0 57 35.0800000  0  4G 6G13G 9G11
  21073589.755    21073593.361    38689235.823 9 -48583779.508 8
  21261289.069    21261294.549    -5097749.454 9   5585882.963 8
  20178714.149    20178719.379    -1775668.477 7    338928.628 8
  21537668.575    21537672.188    40743477.414 8 -46911993.589 8
 86  6 20  0 57 41.0800000  0  4G 6G13G 9G11
  21075968.060    21075972.207    38701734.810 9 -48574040.045 7
  21259284.570    21259288.345    -5108287.574 8   5577671.435 8
  20177640.088    20177646.151    -1781308.777 6    334533.601 8
  21540098.241    21540103.287    40756250.289 8 -46902040.705 8
 86  6 20  0 57 47.0800000  0  4G 6G13G 9G11
  21078349.423    21078354.319    38714254.883 8 -48564284.138 8
  21257282.807    21257287.445    -5118806.975 8   5569474.512 8
  20176571.347    20176576.033    -1786926.405 7    330156.219 8
  21542530.886    21542536.291    40769033.876 8 -46892079.466 8
 86  6 20  0 57 53.0800000  0  4G 6G13G 9G11
  21080737.171    21080741.583    38726796.077 9 -48554511.794 8
  21255282.749    21255289.113    -5129307.661 8   5561292.164 8
  20175506.110    20175511.752    -1792521.337 7    325796.550 8
  21544965.646    21544970.142    40781828.124 8 -46882109.924 8
 86  6 20  0 57 59.0800000  0  4G 6G13G 9G11
  21083127.098    21083131.825    38739358.335 9 -48544723.012 8
  21253288.828    21253294.017    -5139789.507 8   5553124.506 8
  20174447.147    20174451.298    -1798093.728 9    321454.430 8
  21547401.986    21547407.896    40794633.094 9 -46872132.032 9
 86  6 20  0 58  5.0800000  0  4G 6G13G 9G11
  21085521.193    21085527.806    38751941.664 9 -48534917.824 7
  21251297.353    21251302.659    -5150252.596 9   5544971.452 8
  20173389.889    20173395.872    -1803643.322 7    317130.053 8
  21549841.616    21549846.412    40807448.656 8 -46862145.874 8
 86  6 20  0 58 11.0800000  0  4G 6G13G 9G11
  21087920.527    21087925.073    38764546.138 9 -48525096.173 8
  21249311.094    21249316.264    -5160696.952 8   5536832.996 8
  20172339.717    20172343.489    -1809170.232 9    312823.387 8
  21552281.911    21552286.489    40820274.928 8 -46852151.377 8
 86  6 20  0 58 17.0800000  0  4G 6G13G 9G11
  21090322.816    21090327.859    38777171.625 9 -48515258.123 8
  21247325.454    21247330.807    -5171122.550 8   5528709.162 8
  20171292.809    20171295.682    -1814674.500 7    308534.340 8
  21554725.606    21554729.072    40833111.836 8 -46842148.598 8
 86  6 20  0 58 23.0800000  0  4G 6G13G 9G11
  21092729.941    21092733.461    38789818.151 9 -48505403.692 8
  21245346.685    21245351.520    -5181529.375 8   5520599.951 9
  20170248.448    20170252.303    -1820155.996 8    304263.053 8
  21557170.164    21557175.380    40845959.296 9 -46832137.595 9
 86  6 20  0 58 29.0800000  0  4G 6G13G 9G11
  21095139.523    21095145.152    38802485.696 8 -48495532.884 8
  21243369.863    21243374.206    -5191917.523 8   5512505.309 8
  20169210.339    20169214.096    -1825614.727 7    300009.482 8
  21559616.912    21559620.473    40858817.326 8 -46822118.346 8
 86  6 20  0 58 35.0800000  0  4G 6G13G 9G11
  21097554.687    21097558.600    38815174.346 9 -48485645.632 8
  21241396.142    21241400.952    -5202286.772 8   5504425.370 9
  20168175.828    20168180.639    -1831050.618 7    295773.734 7
  21562064.951    21562069.495    40871686.042 8 -46812090.773 8
 86  6 20  0 58 41.0800000  0  4G 6G13G 9G11
  21099973.054    21099978.438    38827884.181 8 -48475741.870 8
  21239425.914    21239431.785    -5212637.132 8   5496360.165 8
  20167145.996    20167150.987    -1836463.567 7    291555.849 8
  21564515.161    21564520.014    40884565.389 7 -46802054.917 9
 86  6 20  0 58 47.0800000  0  4G 6G13G 9G11
  21102395.973    21102400.115    38840615.191 8 -48465821.614 8
  21237460.455    21237465.655    -5222968.590 8   5488309.685 8
  20166120.182    20166123.214    -1841853.691 7    287355.753 8
  21566968.504    21566973.763    40897455.407 8 -46792010.751 8
 86  6 20  0 58 53.0800000  0  4G 6G13G 9G11
  21104822.216    21104826.564    38853367.319 9 -48455884.889 8
  21235498.517    21235502.875    -5233281.198 8   5480273.892 8
  20165098.322    20165102.416    -1847220.785 8    283173.620 7
  21569423.516    21569428.611    40910356.075 9 -46781958.287 8
 86  6 20  0 58 59.0800000  0  4G 6G13G 9G11
  21107252.261    21107257.416    38866140.571 9 -48445931.707 8
  21233538.350    21233544.965    -5243574.907 8   5472252.827 8
  20164081.042    20164085.251    -1852564.871 8    279009.377 8
  21571881.028    21571885.417    40923267.320 9 -46771897.581 8
 86  6 20  0 59  5.0800000  0  4G 6G13G 9G11
  21109687.681    21109692.147    38878934.926 8 -48435962.094 8
  21231583.693    21231589.888    -5253849.732 9   5464246.489 8
  20163069.944    20163073.514    -1857886.178 7    274862.906 7
  21574339.427    21574344.088    40936189.106 8 -46761828.651 9
 86  6 20  0 59 11.0800000  0  4G 6G13G 9G11
  21112125.852    21112131.270    38891750.230 8 -48425976.146 9
  21229632.063    21229637.797    -5264105.742 8   5456254.795 8
  20162060.340    20162063.952    -1863184.519 7    270734.319 7
  21576800.551    21576805.342    40949121.430 8 -46751751.516 8
 86  6 20  0 59 17.0800000  0  4G 6G13G 9G11
  21114569.469    21114574.108    38904586.575 9 -48415973.798 7
  21227683.390    21227689.615    -5274342.924 9   5448277.777 8
  20161055.880    20161060.440    -1868459.965 7    266623.600 7
  21579263.167    21579268.511    40962064.192 7 -46741666.252 8
 86  6 20  0 59 23.0800000  0  4G 6G13G 9G11
  21117016.254    21117018.946    38917443.989 9 -48405955.038 9
  21225738.935    21225744.460    -5284561.342 9   5440315.389 9
  20160057.698    20160060.037    -1873712.388 8    262530.800 8
  21581727.984    21581732.995    40975017.376 9 -46731572.861 8
 86  6 20  0 59 29.0800000  0  4G 6G13G 9G11
  21119467.935    21119470.483    38930322.380 8 -48395919.929 8
  21223798.713    21223803.389    -5294760.963 8   5432367.637 7
  20159061.810    20159066.558    -1878941.936 8    258455.824 8
  21584194.094    21584200.202    40987980.996 8 -46721471.335 8
 86  6 20  0 59 35.0800000  0  4G 6G13G 9G11
  21121921.048    21121926.614    38943221.725 9 -48385868.502 7
  21221861.277    21221866.753    -5304941.691 8   5424434.610 8
  20158070.761    20158075.103    -1884148.423 7    254398.837 7
  21586664.059    21586668.378    41000954.969 9 -46711361.747 7
 86  6 20  0 59 41.0800000  0  4G 6G13G 9G11
  21124380.198    21124384.845    38956142.098 8 -48375800.680 8
  21219926.898    21219931.706    -5315103.573 9   5416516.260 8
  20157084.804    20157088.780    -1889331.847 8    250359.794 8
  21589134.925    21589139.850    41013939.346 8 -46701244.055 8
 86  6 20  0 59 47.0800000  0  4G 6G13G 9G11
  21126842.611    21126846.788    38969083.561 8 -48365716.422 7
  21217996.385    21218001.436    -5325246.654 8   5408612.574 8
  20156102.294    20156106.816    -1894492.299 7    246338.671 8
  21591607.224    21591612.458    41026934.091 8 -46691118.272 8
 86  6 20  0 59 53.0800000  0  4G 6G13G 9G11
  21129309.776    21129312.534    38982045.944 8 -48355615.866 7
  21216070.258    21216075.659    -5335370.805 9   5400723.635 8
  20155124.702    20155129.584    -1899629.608 6    242335.572 8
  21594082.199    21594088.075    41039939.237 8 -46680984.404 9
 86  6 20  0 59 59.0800000  0  4G 6G13G 9G11
  21131779.024    21131783.507    38995029.349 8 -48345498.929 7
  21214147.696    21214153.184    -5345476.106 8   5392849.389 8
  20154152.131    20154156.111    -1904743.928 7    238350.389 8
  21596560.036    21596564.677    41052954.711 9 -46670842.474 9
 86  6 20  1  0  5.0800000  0  4G 6G13G 9G11
  21134253.463    21134258.547    39008033.627 9 -48335365.746 8
  21212228.433    21212233.527    -5355562.590 9   5384989.787 8
  20153180.562    20153187.016    -1909835.219 7    234383.152 7
  21599037.131    21599044.092    41065980.508 8 -46660692.517 9
 86  6 20  1  0 11.0800000  0  4G 6G13G 9G11
  21136732.781    21136737.365    39021058.817 8 -48325216.232 7
  21210312.947    21210317.905    -5365630.278 8   5377144.856 8
  20152218.013    20152222.185    -1914903.487 7    230433.855 8
  21601518.041    21601524.468    41079016.498 9 -46650534.582 8
 86  6 20  1  0 17.0800000  0  4G 6G13G 9G11
  21139215.600    21139220.692    39034104.951 9 -48315050.436 7
  21208400.375    21208404.705    -5375679.145 8   5369314.565 8
  20151257.446    20151262.972    -1919948.648 6    226502.566 7
  21604001.736    21604006.091    41092062.835 9 -46640368.624 8
 86  6 20  1  0 23.0800000  0  4G 6G13G 9G11
  21141702.885    21141707.054    39047172.042 8 -48304868.285 9
  21206491.894    21206497.207    -5385709.222 8   5361498.929 8
  20150302.323    20150307.461    -1924970.709 8    222589.269 8
  21606485.552    21606490.980    41105119.424 9 -46630194.650 9
 86  6 20  1  0 29.0800000  0  4G 6G13G 9G11
  21144192.398    21144197.035    39060260.001 9 -48294669.873 8
  21204587.155    21204592.014    -5395720.429 8   5353697.993 9
  20149351.453    20149355.069    -1929969.688 8    218693.960 8
  21608972.580    21608977.877    41118186.237 8 -46620012.723 8
 86  6 20  1  0 35.0800000  0  4G 6G13G 9G11
  21146687.095    21146692.818    39073368.852 9 -48284455.202 8
  21202685.000    21202690.322    -5405712.826 9   5345911.721 7
  20148403.740    20148407.782    -1934945.493 7    214816.701 7
  21611460.840    21611467.317    41131263.283 9 -46609822.814 7
 86  6 20  1  0 41.0800000  0  4G 6G13G 9G11
  21149186.278    21149189.615    39086498.618 9 -48274224.216 8
  21200787.883    21200792.590    -5415686.393 9   5338140.120 8
  20147461.580    20147465.989    -1939898.046 7    210957.564 8
  21613951.606    21613956.793    41144350.528 9 -46599624.966 9
 86  6 20  1  0 47.0800000  0  4G 6G13G 9G11
  21151688.101    21151691.767    39099649.233 8 -48263976.982 7
  21198893.564    21198898.164    -5425641.089 8   5330383.216 8
  20146523.984    20146528.127    -1944827.518 7    207116.441 8
  21616443.857    21616449.021    41157447.915 8 -46589419.201 8
 86  6 20  1  0 53.0800000  0  4G 6G13G 9G11
  21154194.668    21154199.690    39112820.687 8 -48253713.515 7
  21197002.332    21197008.071    -5435577.041 8   5322640.922 8
  20145591.246    20145595.300    -1949733.904 8    203293.270 7
  21618938.382    21618943.232    41170555.438 9 -46579205.555 8
 86  6 20  1  0 59.0800000  0  4G 6G13G 9G11
  21156704.385    21156708.714    39126013.086 8 -48243433.738 9
  21195113.822    21195120.650    -5445494.155 8   5314913.318 8
  20144660.999    20144665.413    -1954617.048 7    199488.240 8
  21621434.762    21621439.985    41183673.072 8 -46568984.015 9
 86  6 20  1  1  5.0800000  0  4G 6G13G 9G11
  21159219.740    21159223.579    39139226.370 9 -48233137.677 8
  21193230.493    21193235.388    -5455392.389 8   5307200.406 8
  20143736.309    20143741.609    -1959476.860 8    195701.355 7
  21623932.783    21623938.534    41196800.863 9 -46558754.567 8
 86  6 20  1  1 11.0800000  0  4G 6G13G 9G11
  21161737.588    21161742.380    39152460.581 9 -48222825.307 7
  21191351.317    21191357.231    -5465271.669 9   5299502.275 7
  20142815.875    20142821.434    -1964313.407 7    191932.625 8
  21626432.564    21626437.168    41209938.779 8 -46548517.224 8
 86  6 20  1  1 17.0800000  0  4G 6G13G 9G11
  21164260.705    21164264.802    39165715.685 9 -48212496.668 8
  21189473.971    21189481.359    -5475131.997 8   5291818.923 7
  20141900.134    20141904.511    -1969126.648 7    188182.030 7
  21628934.944    21628939.879    41223086.916 7 -46538271.933 8
 86  6 20  1  1 23.0800000  0  4G 6G13G 9G11
  21166786.964    21166790.282    39178991.732 8 -48202151.691 8
  21187601.915    21187607.181    -5484973.402 8   5284150.302 8
  20140988.621    20140993.110    -1973916.450 7    184449.741 9
  21631438.194    21631443.811    41236245.159 9 -46528018.749 8
 86  6 20  1  1 29.0800000  0  4G 6G13G 9G11
  21169317.177    21169321.413    39192288.656 9 -48191790.456 8
  21185733.354    21185737.640    -5494795.922 8   5276496.397 7
  20140081.951    20140087.442    -1978682.951 7    180735.571 7
  21633944.306    21633949.784    41249413.432 8 -46517757.762 8
 86  6 20  1  1 35.0800000  0  4G 6G13G 9G11
  21171851.422    21171856.595    39205606.381 8 -48181413.025 8
  21183867.432    21183872.312    -5504599.589 8   5268857.181 8
  20139178.776    20139183.559    -1983426.210 7    177039.546 7
  21636451.721    21636458.067    41262591.731 9 -46507488.955 8
 86  6 20  1  1 41.0800000  0  4G 6G13G 9G11
  21174390.008    21174393.943    39218944.850 9 -48171019.404 7
  21182005.710    21182010.714    -5514384.465 7   5261232.600 8
  20138280.967    20138285.229    -1988146.156 7    173361.659 7
  21638961.646    21638966.591    41275780.017 8 -46497212.375 8
 86  6 20  1  1 47.0800000  0  4G 6G13G 9G11
  21176930.918    21176936.362    39232304.081 8 -48160609.627 8
  21180146.785    21180152.001    -5524150.544 8   5253622.681 8
  20137386.133    20137392.669    -1992842.830 7    169701.912 7
  21641472.850    21641478.909    41288978.220 8 -46486928.063 9
 86  6 20  1  1 53.0800000  0  4G 6G13G 9G11
  21179477.934    21179481.571    39245684.069 8 -48150183.666 8
  21178292.423    21178297.456    -5533897.742 7   5246027.467 8
  20136497.030    20136501.646    -1997516.178 8    166060.340 8
  21643986.290    21643992.445    41302186.415 8 -46476635.957 8
 86  6 20  1  1 59.0800000  0  4G 6G13G 9G11
  21182028.288    21182033.136    39259084.863 8 -48139741.501 8
  21176439.871    21176446.762    -5543626.172 8   5238446.887 8
  20135613.405    20135617.300    -2002166.177 8    162436.971 8
  21646501.586    21646507.581    41315404.551 8 -46466336.118 9
 86  6 20  1  2  5.0800000  0  4G 6G13G 9G11
  21184582.166    21184585.831    39272506.396 9 -48129283.160 8
  21174592.354    21174598.531    -5553335.739 8   5230880.993 8
  20134733.341    20134737.512    -2006792.763 8    158831.854 8
  21649019.663    21649024.690    41328632.563 8 -46456028.577 9
 86  6 20  1  2 11.0800000  0  4G 6G13G 9G11
  21187141.230    21187144.670    39285948.608 8 -48118808.714 8
  21172748.456    21172754.935    -5563026.376 8   5223329.857 8
  20133857.103    20133860.873    -2011396.018 8    155244.882 7
  21651538.171    21651543.602    41341870.480 9 -46445713.316 9
 86  6 20  1  2 17.0800000  0  4G 6G13G 9G11
  21189702.455    21189706.122    39299411.537 8 -48108318.121 8
  21170907.017    21170913.616    -5572698.267 9   5215793.332 7
  20132984.481    20132990.120    -2015975.884 8    151676.172 8
  21654059.225    21654064.326    41355118.178 9 -46435390.429 9
 86  6 20  1  2 23.0800000  0  4G 6G13G 9G11
  21192268.808    21192272.264    39312895.195 9 -48097811.391 8
  21169070.822    21169077.123    -5582351.387 9   5208271.424 8
  20132117.211    20132121.980    -2020532.409 8    148125.630 8
  21656582.271    21656587.184    41368375.648 9 -46425059.941 8
 86  6 20  1  2 29.0800000  0  4G 6G13G 9G11
  21194837.599    21194842.748    39326399.522 8 -48087288.523 8
  21167238.718    21167243.264    -5591985.612 8   5200764.251 8
  20131255.839    20131259.614    -2025065.483 8    144593.358 8
  21659107.588    21659113.079    41381643.006 8 -46414721.735 8
 86  6 20  1  2 35.0800000  0  4G 6G13G 9G11
  21197412.113    21197416.170    39339924.577 9 -48076749.531 8
  21165408.062    21165414.081    -5601600.994 7   5193271.749 7
  20130397.899    20130401.673    -2029575.129 7    141079.369 8
  21661633.277    21661638.709    41394920.153 8 -46404375.908 9
 86  6 20  1  2 41.0800000  0  4G 6G13G 9G11
  21199989.197    21199992.846    39353470.348 9 -48066194.400 7
  21163582.789    21163587.883    -5611197.517 9   5185793.945 8
  20129544.470    20129547.195    -2034061.318 7    137583.622 8
  21664161.752    21664167.695    41408207.089 8 -46394022.464 9
 86  6 20  1  2 47.0800000  0  4G 6G13G 9G11
  21202570.053    21202574.741    39367036.835 8 -48055623.096 8
  21161760.030    21161765.563    -5620775.228 8   5178330.804 8
  20128695.323    20128699.287    -2038524.014 7    134106.200 8
  21666692.760    21666698.206    41421503.792 8 -46383661.387 8
 86  6 20  1  2 53.0800000  0  4G 6G13G 9G11
  21205156.187    21205160.832    39380624.049 8 -48045035.679 8
  21159941.436    21159945.960    -5630334.043 8   5170882.377 7
  20127849.540    20127853.158    -2042963.164 8    130647.128 7
  21669224.584    21669230.377    41434810.285 8 -46373292.701 8
 86  6 20  1  2 59.0800000  0  4G 6G13G 9G11
  21207745.697    21207749.833    39394232.052 8 -48034432.044 9
  21158124.985    21158130.409    -5639873.854 9   5163448.775 7
  20127008.803    20127013.523    -2047378.575 7    127206.549 8
  21671757.797    21671763.632    41448126.659 8 -46362916.302 8
 86  6 20  1  3  5.0800000  0  4G 6G13G 9G11
  21210339.044    21210343.492    39407860.814 9 -48023812.224 7
  21156313.798    21156318.871    -5649394.758 8   5156029.908 8
  20126173.853    20126178.381    -2051770.508 8    123784.260 7
  21674294.667    21674298.873    41461452.785 9 -46352532.307 8
 86  6 20  1  3 11.0800000  0  4G 6G13G 9G11
  21212936.094    21212941.280    39421510.294 8 -48013176.274 8
  21154504.392    21154510.469    -5658896.780 8   5148625.731 8
  20125341.449    20125347.006    -2056138.807 7    120380.399 7
  21676833.004    21676837.704    41474788.615 8 -46342140.745 9
 86  6 20  1  3 17.0800000  0  4G 6G13G 9G11
  21215537.624    21215542.138    39435180.385 9 -48002524.267 7
  21152700.722    21152705.717    -5668379.948 9   5141236.267 8
  20124515.428    20124521.508    -2060483.551 7    116994.888 8
  21679370.857    21679377.124    41488134.146 9 -46331741.632 8
 86  6 20  1  3 23.0800000  0  4G 6G13G 9G11
  21218142.271    21218147.151    39448871.141 8 -47991856.149 7
  21150898.828    21150904.543    -5677844.247 8   5133861.500 8
  20123694.359    20123697.375    -2064804.641 8    113627.806 9
  21681912.366    21681918.276    41501489.388 8 -46321334.953 9
 86  6 20  1  3 29.0800000  0  4G 6G13G 9G11
  21220752.434    21220757.156    39462582.392 9 -47981172.051 8
  21149101.902    21149107.251    -5687289.781 9   5126501.346 9
  20122876.222    20122878.700    -2069102.332 8    110278.951 8
  21684456.001    21684462.704    41514854.145 9 -46310920.862 8
 86  6 20  1  3 35.0800000  0  4G 6G13G 9G11
  21223364.154    21223368.822    39476314.229 8 -47970471.927 8
  21147308.388    21147314.367    -5696716.462 9   5119155.892 7
  20122062.796    20122066.443    -2073376.409 7    106948.509 8
  21687001.091    21687006.356    41528228.503 8 -46300499.280 8
 86  6 20  1  3 41.0800000  0  4G 6G13G 9G11
  21225981.450    21225986.889    39490066.688 8 -47959755.738 8
  21145519.230    21145523.947    -5706124.218 8   5111825.181 8
  20121253.707    20121257.324    -2077626.797 7    103636.512 9
  21689548.023    21689554.029    41541612.520 8 -46290070.183 8
 86  6 20  1  3 47.0800000  0  4G 6G13G 9G11
  21228603.158    21228606.705    39503839.708 8 -47949023.513 8
  21143731.559    21143736.498    -5715513.153 9   5104509.133 8
  20120448.232    20120452.059    -2081853.667 7    100342.851 8
  21692097.361    21692102.411    41555006.069 8 -46279633.648 9
 86  6 20  1  3 53.0800000  0  4G 6G13G 9G11
  21231227.257    21231231.853    39517633.262 8 -47938275.313 8
  21141948.888    21141953.396    -5724883.293 8   5097207.745 8
  20119649.070    20119653.053    -2086056.934 7     97067.571 8
  21694648.347    21694652.251    41568409.064 8 -46269189.763 8
 86  6 20  1  3 59.0800000  0  4G 6G13G 9G11
  21233855.859    21233860.112    39531447.320 9 -47927511.113 8
  21140169.600    21140173.642    -5734234.640 8   5089920.981 8
  20118853.912    20118857.900    -2090236.574 7     93810.717 8
  21697199.109    21697205.755    41581821.568 8 -46258738.460 9
 86  6 20  1  4  5.0800000  0  4G 6G13G 9G11
  21236488.978    21236493.307    39545282.003 9 -47916730.844 7
  21138393.546    21138397.854    -5743567.121 8   5082648.919 8
  20118062.986    20118066.430    -2094392.536 7     90572.309 7
  21699753.746    21699758.748    41595243.635 8 -46248279.706 9
 86  6 20  1  4 11.0800000  0  4G 6G13G 9G11
  21239125.853    21239130.392    39559137.284 9 -47905934.529 7
  21136621.376    21136626.351    -5752880.750 8   5075391.560 8
  20117275.985    20117280.588    -2098524.714 8     87352.429 7
  21702310.032    21702315.163    41608675.215 9 -46237813.542 8
 86  6 20  1  4 17.0800000  0  4G 6G13G 9G11
  21241766.412    21241771.178    39573013.124 9 -47895122.184 7
  21134852.310    21134857.181    -5762175.517 8   5068148.887 8
  20116494.274    20116498.744    -2102633.272 7     84150.963 6
  21704867.777    21704873.516    41622116.295 9 -46227339.979 9
 86  6 20  1  4 23.0800000  0  4G 6G13G 9G11
  21244410.121    21244414.834    39586909.477 8 -47884293.866 9
  21133087.024    21133091.858    -5771451.491 8   5060920.866 7
  20115718.738    20115722.126    -2106718.003 7     80968.058 7
  21707427.022    21707431.648    41635566.802 9 -46216859.064 8
 86  6 20  1  4 29.0800000  0  4G 6G13G 9G11
  21247059.898    21247063.507    39600826.306 9 -47873449.582 8
  21131326.733    21131330.401    -5780708.550 8   5053707.578 9
  20114944.674    20114948.305    -2110779.052 7     77803.601 7
  21709988.332    21709993.856    41649026.786 8 -46206370.765 8
 86  6 20  1  4 35.0800000  0  4G 6G13G 9G11
  21249711.858    21249715.964    39614763.618 9 -47862589.352 8
  21129567.935    21129573.034    -5789946.766 9   5046508.974 8
  20114176.484    20114178.861    -2114816.421 7     74657.602 8
  21712551.497    21712556.518    41662496.177 8 -46195875.139 9
 86  6 20  1  4 41.0800000  0  4G 6G13G 9G11
  21252367.064    21252371.147    39628721.426 8 -47851713.146 8
  21127813.842    21127817.208    -5799166.167 8   5039325.047 8
  20113413.356    20113415.665    -2118830.037 8     71530.122 6
  21715115.487    21715121.768    41675974.971 9 -46185372.178 8
 86  6 20  1  4 47.0800000  0  4G 6G13G 9G11
  21255027.543    21255031.441    39642699.686 9 -47840821.005 8
  21126062.183    21126066.558    -5808366.736 8   5032155.767 7
  20112653.895    20112658.413    -2122819.853 8     68421.180 7
  21717683.141    21717688.583    41689463.134 8 -46174861.929 9
 86  6 20  1  4 53.0800000  0  4G 6G13G 9G11
  21257691.407    21257695.800    39656698.497 8 -47829912.846 8
  21124314.784    21124320.025    -5817548.425 8   5025001.210 8
  20111898.698    20111902.688    -2126785.906 8     65330.731 7
  21720251.833    21720256.241    41702960.652 9 -46164344.385 9
 86  6 20  1  4 59.0800000  0  4G 6G13G 9G11
  21260359.153    21260363.707    39670717.828 9 -47818988.690 8
  21122572.159    21122575.741    -5826711.177 8   5017861.426 9
  20111149.079    20111153.239    -2130727.994 8     62258.982 8
  21722822.762    21722827.096    41716467.598 9 -46153819.496 9
 86  6 20  1  5  5.0800000  0  4G 6G13G 9G11
  21263029.708    21263034.119    39684757.663 9 -47808048.557 8
  21120831.074    21120835.979    -5835855.026 8   5010736.341 8
  20110403.439    20110407.596    -2134646.279 8     59205.781 7
  21725394.308    21725398.932    41729983.837 9 -46143287.361 9
 86  6 20  1  5 11.0800000  0  4G 6G13G 9G11
  21265706.099    21265711.369    39698817.936 8 -47797092.512 8
  21119096.516    21119100.010    -5844980.015 8   5003625.962 7
  20109662.320    20109665.845    -2138540.733 8     56171.141 7
  21727968.024    21727973.601    41743509.411 8 -46132747.951 9
 86  6 20  1  5 17.0800000  0  4G 6G13G 9G11
  21268384.694    21268390.521    39712898.693 8 -47786120.497 8
  21117361.700    21117367.601    -5854086.076 7   4996530.341 7
  20108926.244    20108929.418    -2142411.255 7     53155.145 9
  21730543.074    21730548.733    41757044.358 9 -46122201.241 8
 86  6 20  1  5 23.0800000  0  4G 6G13G 9G11
  21271069.791    21271073.085    39726999.962 8 -47775132.492 8
  21115633.275    21115638.458    -5863173.224 8   4989449.453 8
  20108195.403    20108197.130    -2146257.805 8     50157.847 7
  21733121.396    21733126.023    41770588.578 8 -46111647.307 8
 86  6 20  1  5 29.0800000  0  4G 6G13G 9G11
  21273757.430    21273760.946    39741121.768 9 -47764128.500 8
  21113906.520    21113912.986    -5872241.517 8   4982383.252 9
  20107465.791    20107468.239    -2150080.464 7     47179.150 8
  21735699.669    21735704.845    41784142.110 8 -46101086.108 8
 86  6 20  1  5 35.0800000  0  4G 6G13G 9G11
  21276447.181    21276451.567    39755264.004 9 -47753108.578 7
  21112185.051    21112190.654    -5881290.947 8   4975331.753 8
  20106743.863    20106747.036    -2153879.191 9     44219.106 7
  21738282.297    21738287.238    41797704.977 8 -46090517.653 8
 86  6 20  1  5 41.0800000  0  4G 6G13G 9G11
  21279143.156    21279147.570    39769426.668 8 -47742072.748 9
  21110466.259    21110472.213    -5890321.495 8   4968294.968 7
  20106025.087    20106028.342    -2157653.846 8     41277.818 8
  21740864.333    21740868.763    41811277.100 8 -46079941.972 9
 86  6 20  1  5 47.0800000  0  4G 6G13G 9G11
  21281842.095    21281846.277    39783609.657 8 -47731021.062 8
  21108750.535    21108756.286    -5899333.186 8   4961272.891 8
  20105311.031    20105314.991    -2161404.654 8     38355.113 8
  21743449.270    21743452.926    41824858.408 9 -46069359.128 9
 86  6 20  1  5 53.0800000  0  4G 6G13G 9G11
  21284544.016    21284548.772    39797813.084 8 -47719953.466 8
  21107040.416    21107045.855    -5908326.054 8   4954265.459 8
  20104602.717    20104606.361    -2165131.574 8     35451.016 8
  21746034.817    21746039.586    41838448.864 8 -46058769.156 8
 86  6 20  1  5 59.0800000  0  4G 6G13G 9G11
  21287251.975    21287255.420    39812036.820 8 -47708870.044 9
  21105332.741    21105338.051    -5917300.082 8   4947272.724 7
  20103897.922    20103901.596    -2168834.478 8     32565.629 8
  21748622.125    21748627.563    41852048.452 8 -46048172.089 8
 86  6 20  1  6  5.0800000  0  4G 6G13G 9G11
  21289961.941    21289966.832    39826280.955 8 -47697770.725 8
  21103628.581    21103633.813    -5926255.176 9   4940294.728 8
  20103197.211    20103201.447    -2172513.445 8     29698.905 7
  21751212.837    21751217.061    41865657.180 7 -46037567.878 8
 86  6 20  1  6 11.0800000  0  4G 6G13G 9G11
  21292676.278    21292682.445    39840545.407 8 -47686655.580 7
  21101927.676    21101933.389    -5935191.379 8   4933331.458 8
  20102502.050    20102505.772    -2176168.469 8     26850.842 7
  21753803.502    21753808.791    41879274.975 8 -46026956.613 9
 86  6 20  1  6 17.0800000  0  4G 6G13G 9G11
  21295394.730    21295398.486    39854830.089 9 -47675524.652 9
  21100231.511    21100236.137    -5944108.854 8   4926382.779 8
  20101811.051    20101815.553    -2179799.521 8     24021.458 8
  21756396.542    21756402.291    41892901.779 9 -46016338.322 9
 86  6 20  1  6 23.0800000  0  4G 6G13G 9G11
  21298117.324    21298121.596    39869135.023 9 -47664377.954 9
  21098537.636    21098543.629    -5953007.535 8   4919448.759 8
  20101124.376    20101128.903    -2183406.611 8     21210.735 9
  21758992.080    21758995.713    41906537.601 8 -46005713.012 8
 86  6 20  1  6 29.0800000  0  4G 6G13G 9G11
  21300842.989    21300847.041    39883460.252 9 -47653215.442 8
  21096847.933    21096853.920    -5961887.426 9   4912529.370 8
  20100443.462    20100447.366    -2186989.754 8     18418.666 8
  21761588.728    21761594.066    41920182.426 9 -45995080.677 8
 86  6 20  1  6 35.0800000  0  4G 6G13G 9G11
  21303573.561    21303578.113    39897805.779 9 -47642037.125 8
  21095162.191    21095168.370    -5970748.505 8   4905624.639 8
  20099765.445    20099769.701    -2190548.884 8     15645.321 8
  21764186.088    21764190.572    41933836.226 8 -45984441.360 8
 86  6 20  1  6 41.0800000  0  4G 6G13G 9G11
  21306306.954    21306309.863    39912171.540 8 -47630843.024 7
  21093479.089    21093484.294    -5979590.747 8   4898734.577 8
  20099093.504    20099097.244    -2194084.005 7     12890.683 8
  21766786.542    21766792.212    41947499.031 8 -45973795.020 8
 86  6 20  1  6 47.0800000  0  4G 6G13G 9G11
  21309043.792    21309049.338    39926557.495 8 -47619633.192 8
  21091799.898    21091804.566    -5988414.057 8   4891859.282 8
  20098424.230    20098429.091    -2197595.000 8     10154.843 8
  21769387.543    21769392.866    41961170.832 8 -45963141.675 9
 86  6 20  1  6 53.0800000  0  4G 6G13G 9G11
  21311784.636    21311790.550    39940963.812 9 -47608407.506 8
  21090126.087    21090129.917    -5997218.469 8   4884998.703 9
  20097761.370    20097766.041    -2201081.882 7      7437.802 8
  21771991.145    21771997.266    41974851.628 8 -45952481.315 9
 86  6 20  1  6 59.0800000  0  4G 6G13G 9G11
  21314529.995    21314536.037    39955390.395 8 -47597166.006 8
  21088453.600    21088459.175    -6006003.930 8   4878152.908 8
  20097102.016    20097106.368    -2204544.670 7      4739.531 9
  21774597.528    21774601.044    41988541.423 8 -45941813.947 8
 86  6 20  1  7  5.0800000  0  4G 6G13G 9G11
  21317279.142    21317284.219    39969837.330 9 -47585908.667 8
  21086786.309    21086789.220    -6014770.558 8   4871321.771 7
  20096448.259    20096451.369    -2207983.250 8      2060.107 8
  21777203.236    21777206.871    42002240.253 8 -45931139.524 8
 86  6 20  1  7 11.0800000  0  4G 6G13G 9G11
  21320032.680    21320038.047    39984304.553 9 -47574635.522 8
  21085120.526    21085126.037    -6023518.279 8   4864505.363 8
  20095797.156    20095800.875    -2211397.673 7      -600.488 8
  21779811.068    21779816.254    42015948.128 8 -45920458.082 8
 86  6 20  1  7 17.0800000  0  4G 6G13G 9G11
  21322789.185    21322793.872    39998792.067 9 -47563346.551 9
  21083459.468    21083463.521    -6032247.123 8   4857703.676 8
  20095153.461    20095156.606    -2214787.866 8     -3242.192 8
  21782421.772    21782426.954    42029664.923 9 -45909769.664 8
 86  6 20  1  7 23.0800000  0  4G 6G13G 9G11
  21325550.396    21325556.453    40013299.778 9 -47552041.843 8
  21081801.319    21081806.730    -6040957.132 8   4850916.665 8
  20094512.295    20094515.907    -2218153.907 8     -5865.083 8
  21785033.829    21785038.676    42043390.673 8 -45899074.280 8
 86  6 20  1  7 29.0800000  0  4G 6G13G 9G11
  21328314.937    21328318.844    40027827.708 8 -47540721.391 8
  21080148.391    21080152.845    -6049648.356 8   4844144.285 8
  20093876.176    20093881.037    -2221495.700 7     -8469.071 7
  21787646.538    21787651.318    42057125.255 9 -45888372.008 9
 86  6 20  1  7 35.0800000  0  4G 6G13G 9G11
  21331083.879    21331087.295    40042375.823 9 -47529385.193 8
  21078497.482    21078503.070    -6058320.732 8   4837386.591 8
  20093244.296    20093248.151    -2224813.423 6    -11054.316 8
  21790261.465    21790267.251    42070868.646 8 -45877662.873 8
 86  6 20  1  7 41.0800000  0  4G 6G13G 9G11
  21333855.166    21333859.949    40056944.047 9 -47518033.340 8
  21076850.776    21076856.749    -6066974.333 9   4830643.547 8
  20092617.605    20092621.685    -2228106.999 7    -13620.726 7
  21792880.563    21792883.245    42084620.809 9 -45866946.896 8
 86  6 20  1  7 47.0800000  0  4G 6G13G 9G11
  21336631.953    21336635.499    40071532.383 9 -47506665.803 7
  21075207.940    21075212.817    -6075609.152 9   4823915.120 7
  20091995.781    20092000.227    -2231376.389 7    -16168.305 7
  21795498.607    21795503.205    42098381.801 8 -45856224.061 8
 86  6 20  1  7 53.0800000  0  4G 6G13G 9G11
  21339411.059    21339415.317    40086140.888 8 -47495282.560 9
  21073567.453    21073573.216    -6084225.090 8   4817201.399 8
  20091379.301    20091381.249    -2234621.574 7    -18697.027 8
  21798118.847    21798122.547    42112151.541 8 -45845494.395 8
 86  6 20  1  7 59.0800000  0  4G 6G13G 9G11
  21342194.744    21342200.211    40100769.478 9 -47483883.658 8
  21071931.132    21071937.053    -6092822.262 8   4810502.311 8
  20090765.503    20090769.484    -2237842.605 8    -21206.916 8
  21800739.919    21800744.482    42125929.946 8 -45834757.964 8
 86  6 20  1  8  5.0800000  0  4G 6G13G 9G11
  21344982.746    21344987.298    40115418.156 9 -47472469.113 8
  21070300.332    21070304.540    -6101400.654 9   4803817.857 8
  20090157.020    20090160.752    -2241039.305 8    -23697.864 7
  21803364.203    21803369.160    42139717.098 9 -45824014.742 9
 86  6 20  1  8 11.0800000  0  4G 6G13G 9G11
  21347774.552    21347780.039    40130087.085 8 -47461038.794 9
  21068670.499    21068675.798    -6109960.129 8   4797148.139 9
  20089553.376    20089558.048    -2244211.746 8    -26169.878 8
  21805988.942    21805993.834    42153512.993 9 -45813264.697 9
 86  6 20  1  8 17.0800000  0  4G 6G13G 9G11
  21350570.627    21350573.679    40144776.067 8 -47449592.824 9
  21067045.022    21067049.960    -6118500.764 9   4790493.113 8
  20088954.765    20088957.539    -2247359.959 8    -28623.049 7
  21808616.058    21808621.263    42167317.561 8 -45802507.886 8
 86  6 20  1  8 23.0800000  0  4G 6G13G 9G11
  21353368.592    21353372.115    40159484.974 8 -47438131.349 8
  21065425.021    21065428.067    -6127022.633 8   4783852.693 8
  20088359.640    20088363.230    -2250483.953 7    -31057.324 8
  21811244.530    21811249.502    42181130.772 8 -45791744.361 7
 86  6 20  1  8 29.0800000  0  4G 6G13G 9G11
  21356171.677    21356174.984    40174214.002 8 -47426654.188 9
  21063805.064    21063810.296    -6135525.692 8   4777226.937 8
  20087770.360    20087773.262    -2253583.700 8    -33472.712 7
  21813875.318    21813878.857    42194952.654 8 -45780974.056 8
 86  6 20  1  8 35.0800000  0  4G 6G13G 9G11
  21358978.859    21358981.435    40188963.119 9 -47415161.356 9
  21062190.637    21062196.368    -6144009.907 8   4770615.869 8
  20087185.399    20087188.578    -2256659.140 7    -35869.163 8
  21816506.948    21816511.536    42208783.225 9 -45770196.989 8
 86  6 20  1  8 41.0800000  0  4G 6G13G 9G11
  21361788.292    21361793.042    40203732.331 8 -47403652.901 9
  21060578.838    21060585.186    -6152475.264 8   4764019.480 8
  20086603.617    20086608.179    -2259710.199 7    -38246.611 7
  21819139.858    21819144.186    42222622.470 8 -45759413.166 8
 86  6 20  1  8 47.0800000  0  4G 6G13G 9G11
  21364602.912    21364607.356    40218521.604 9 -47392128.788 8
  21058973.181    21058977.808    -6160921.703 9   4757437.853 7
  20086028.034    20086031.699    -2262736.842 7    -40605.028 8
  21821776.433    21821780.082    42236470.354 8 -45748622.610 8
 86  6 20  1  8 53.0800000  0  4G 6G13G 9G11
  21367420.906    21367425.582    40233331.001 8 -47380589.002 8
  21057369.817    21057374.441    -6169349.220 8   4750870.942 8
  20085457.465    20085458.836    -2265739.104 8    -42944.445 8
  21824411.699    21824416.792    42250326.903 8 -45737825.306 8
 86  6 20  1  8 59.0800000  0  4G 6G13G 9G11
  21370243.683    21370247.632    40248160.462 9 -47369033.589 8
  21055769.043    21055775.364    -6177757.882 8   4744318.760 8
  20084890.881    20084893.344    -2268716.989 9    -45264.890 8
  21827050.476    21827055.816    42264192.098 8 -45727021.254 8
 86  6 20  1  9  5.0800000  0  4G 6G13G 9G11
  21373069.778    21373073.728    40263009.968 8 -47357462.542 7
  21054172.265    21054178.380    -6186147.599 8   4737781.307 8
  20084329.723    20084332.042    -2271670.450 7    -47566.283 8
  21829690.669    21829694.509    42278065.854 8 -45716210.544 8
 86  6 20  1  9 11.0800000  0  4G 6G13G 9G11
  21375898.907    21375902.556    40277879.525 9 -47345875.873 8
  21052578.840    21052585.339    -6194518.432 8   4731258.594 8
  20083770.147    20083775.290    -2274599.415 8    -49848.598 7
  21832331.997    21832338.013    42291948.187 9 -45705393.149 8
 86  6 20  1  9 17.0800000  0  4G 6G13G 9G11
  21378732.704    21378737.249    40292769.136 9 -47334273.585 8
  21050990.593    21050995.650    -6202870.395 8   4724750.572 8
  20083219.378    20083220.457    -2277503.928 7    -52111.843 7
  21834975.994    21834979.482    42305839.103 8 -45694569.060 8
 86  6 20  1  9 23.0800000  0  4G 6G13G 9G11
  21381569.216    21381573.722    40307678.763 9 -47322655.702 9
  21049404.413    21049408.896    -6211203.518 9   4718257.238 7
  20082671.152    20082674.074    -2280383.984 7    -54356.026 8
  21837622.289    21837624.728    42319738.563 8 -45683738.315 8
 86  6 20  1  9 29.0800000  0  4G 6G13G 9G11
  21384409.475    21384415.087    40322608.344 9 -47311022.263 9
  21047822.761    21047827.651    -6219517.818 8   4711778.574 7
  20082126.736    20082130.029    -2283239.636 8    -56581.231 7
  21840267.589    21840271.647    42333646.496 9 -45672900.965 8
 86  6 20  1  9 35.0800000  0  4G 6G13G 9G11
  21387255.690    21387259.225    40337557.812 9 -47299373.331 8
  21046243.877    21046249.963    -6227813.317 9   4705314.547 8
  20081588.285    20081590.831    -2286070.803 8    -58787.330 7
  21842915.764    21842920.323    42347562.890 8 -45662057.031 8
 86  6 20  1  9 41.0800000  0  4G 6G13G 9G11
  21390103.820    21390108.608    40352527.274 9 -47287708.822 8
  21044668.588    21044674.174    -6236090.035 8   4698865.164 8
  20081055.129    20081057.058    -2288877.524 8    -60974.384 8
  21845565.548    21845570.438    42361487.746 8 -45651206.477 9
 86  6 20  1  9 47.0800000  0  4G 6G13G 9G11
  21392956.217    21392960.198    40367516.642 8 -47276028.797 8
  21043097.720    21043102.861    -6244347.957 8   4692430.428 8
  20080525.084    20080527.665    -2291659.731 8    -63142.328 7
  21848217.254    21848221.964    42375420.961 9 -45640349.444 8
 86  6 20  1  9 53.0800000  0  4G 6G13G 9G11
  21395812.217    21395816.786    40382525.858 9 -47264333.306 8
  21041530.570    21041535.249    -6252587.088 8   4686010.330 8
  20080000.223    20080004.167    -2294417.518 8    -65291.242 8
  21850869.698    21850873.654    42389362.572 9 -45629485.859 8
 86  6 20  1  9 59.0800000  0  4G 6G13G 9G11
  21398671.533    21398675.739    40397555.019 9 -47252622.284 8
  21039965.043    21039972.163    -6260807.455 8   4679604.856 9
  20079480.442    20079482.399    -2297150.832 8    -67421.104 7
  21853524.660    21853528.574    42403312.559 9 -45618615.735 8
 86  6 20  1 10  5.0800000  0  4G 6G13G 9G11
  21401536.469    21401541.244    40412604.110 8 -47240895.719 8
  21038404.784    21038409.903    -6269008.994 8   4673214.065 8
  20078963.870    20078967.438    -2299859.640 7    -69531.858 7
  21856180.882    21856184.674    42417270.958 8 -45607739.056 8
 86  6 20  1 10 11.0800000  0  4G 6G13G 9G11
  21404403.802    21404407.036    40427673.110 9 -47229153.638 7
  21036847.148    21036853.425    -6277191.591 9   4666838.008 8
  20078453.479    20078456.705    -2302543.842 7    -71623.447 7
  21858838.187    21858843.412    42431237.718 9 -45596855.873 7
 86  6 20  1 10 17.0800000  0  4G 6G13G 9G11
  21407274.826    21407278.668    40442762.131 8 -47217395.975 8
  21035294.106    21035298.531    -6285355.266 8   4660476.708 9
  20077946.824    20077950.628    -2305203.426 7    -73695.849 7
  21861497.076    21861502.481    42445212.922 8 -45585966.104 8
 86  6 20  1 10 23.0800000  0  4G 6G13G 9G11
  21410149.913    21410153.997    40457871.130 9 -47205622.726 9
  21033745.290    21033748.828    -6293499.949 8   4654130.216 8
  20077446.068    20077448.642    -2307838.283 8    -75748.983 7
  21864158.531    21864163.554    42459196.581 8 -45575069.748 8
 86  6 20  1 10 29.0800000  0  4G 6G13G 9G11
  21413028.327    21413032.793    40473000.112 8 -47193833.900 8
  21032197.456    21032202.257    -6301625.643 8   4647798.508 8
  20076948.958    20076952.074    -2310448.498 7    -77782.927 8
  21866821.046    21866827.230    42473188.690 9 -45564166.802 8
 86  6 20  1 10 35.0800000  0  4G 6G13G 9G11
  21415911.684    21415915.624    40488149.010 8 -47182029.578 8
  21030656.481    21030659.916    -6309732.505 8   4641481.493 8
  20076457.500    20076460.771    -2313033.878 8    -79797.494 6
  21869486.063    21869490.032    42487189.167 8 -45553257.356 8
 86  6 20  1 10 41.0800000  0  4G 6G13G 9G11
  21418797.936    21418801.212    40503317.783 9 -47170209.764 7
  21029116.474    21029121.664    -6317820.565 9   4635179.110 8
  20075970.571    20075973.868    -2315594.782 7    -81793.001 8
  21872151.032    21872156.280    42501197.890 8 -45542341.465 8
 86  6 20  1 10 47.0800000  0  4G 6G13G 9G11
  21421689.601    21421693.794    40518506.359 8 -47158374.510 7
  21027582.042    21027585.964    -6325889.743 8   4628891.441 8
  20075486.935    20075491.848    -2318130.955 7    -83769.245 7
  21874817.413    21874823.440    42515214.878 9 -45531419.129 8
 86  6 20  1 10 53.0800000  0  4G 6G13G 9G11
  21424582.235    21424587.166    40533714.769 9 -47146523.800 8
  21026049.497    21026054.181    -6333940.172 9   4622618.388 8
  20075009.289    20075014.341    -2320642.611 7    -85726.376 8
  21877487.302    21877491.209    42529240.031 8 -45520490.446 7
 86  6 20  1 10 59.0800000  0  4G 6G13G 9G11
  21427479.407    21427484.093    40548942.945 9 -47134657.706 8
  21024520.115    21024526.269    -6341971.867 8   4616359.925 8
  20074536.747    20074538.628    -2323129.706 8    -87664.365 7
  21880157.311    21880163.479    42543273.408 8 -45509555.338 9
 86  6 20  1 11  5.0800000  0  4G 6G13G 9G11
  21430381.636    21430386.528    40564190.708 8 -47122776.341 8
  21022995.507    21023000.153    -6349984.879 8   4610116.043 8
  20074066.694    20074071.708    -2325592.246 8    -89583.228 7
  21882829.259    21882834.997    42557314.860 8 -45498613.953 8
 86  6 20  1 11 11.0800000  0  4G 6G13G 9G11
  21433286.855    21433291.205    40579458.179 8 -47110879.607 9
  21021474.184    21021479.225    -6357979.172 7   4603886.719 8
  20073603.485    20073607.089    -2328030.132 8    -91482.883 7
  21885504.415    21885508.494    42571364.426 8 -45487666.257 8
 86  6 20  1 11 17.0800000  0  4G 6G13G 9G11
  21436195.797    21436200.573    40594745.334 8 -47098967.545 8
  21019956.322    21019961.712    -6365954.720 8   4597672.020 9
  20073145.388    20073147.887    -2330443.399 7    -93363.353 6
  21888178.926    21888183.041    42585422.064 8 -45476712.245 8
 86  6 20  1 11 23.0800000  0  4G 6G13G 9G11
  21439108.979    21439113.708    40610052.223 9 -47087040.105 8
  21018442.316    21018447.766    -6373911.397 9   4591472.009 8
  20072687.916    20072693.209    -2332832.086 8    -95224.665 8
  21890854.909    21890861.195    42599487.815 8 -45465751.922 8
 86  6 20  1 11 29.0800000  0  4G 6G13G 9G11
  21442025.402    21442030.461    40625378.813 9 -47075097.311 8
  21016931.409    21016937.587    -6381849.309 8   4585286.627 8
  20072239.347    20072242.736    -2335196.054 7    -97066.716 7
  21893533.246    21893539.479    42613561.682 9 -45454785.268 8
 86  6 20  1 11 35.0800000  0  4G 6G13G 9G11
  21444945.417    21444949.807    40640725.095 8 -47063139.179 8
  21015425.104    21015429.752    -6389768.460 8   4579115.870 8
  20071792.143    20071797.357    -2337535.464 8    -98889.635 8
  21896212.591    21896217.399    42627643.609 8 -45443812.352 8
 86  6 20  1 11 41.0800000  0  4G 6G13G 9G11
  21447869.100    21447873.687    40656091.052 8 -47051165.714 8
  21013920.843    21013927.881    -6397668.899 8   4572959.687 8
  20071353.079    20071358.923    -2339850.089 7   -100693.243 7
  21898893.874    21898899.960    42641733.547 9 -45432833.185 8
 86  6 20  1 11 47.0800000  0  4G 6G13G 9G11
  21450797.562    21450801.057    40671476.498 9 -47039177.056 8
  21012422.224    21012427.032    -6405550.690 8   4566818.046 8
  20070917.436    20070921.138    -2342140.233 7   -102477.764 8
  21901577.087    21901582.712    42655831.357 9 -45421847.875 8
 86  6 20  1 11 53.0800000  0  4G 6G13G 9G11
  21453730.058    21453733.583    40686881.644 9 -47027173.053 8
  21010925.560    21010929.746    -6413413.718 9   4560691.012 9
  20070486.791    20070492.234    -2344405.586 7   -104242.992 7
  21904261.005    21904266.479    42669937.185 9 -45410856.325 8
 86  6 20  1 11 59.0800000  0  4G 6G13G 9G11
  21456665.105    21456669.871    40702306.500 7 -47015153.685 8
  21009431.832    21009436.850    -6421257.896 8   4554578.683 8
  20070059.070    20070064.227    -2346646.044 7   -105988.797 7
  21906946.498    21906952.155    42684051.142 8 -45399858.435 7
 86  6 20  1 12  5.0800000  0  4G 6G13G 9G11
  21459603.818    21459607.777    40717751.034 8 -47003118.990 8
  21007943.015    21007949.643    -6429083.368 8   4548480.911 8
  20069638.974    20069643.898    -2348861.879 7   -107715.406 7
  21909633.368    21909640.247    42698173.101 8 -45388854.314 8
 86  6 20  1 12 11.0800000  0  4G 6G13G 9G11
  21462545.497    21462550.390    40733215.289 8 -46991068.927 8
  21006457.523    21006463.344    -6436889.999 8   4542397.835 8
  20069222.620    20069226.757    -2351052.788 7   -109422.623 8
  21912322.787    21912329.337    42712303.103 8 -45377843.924 9
 86  6 20  1 12 17.0800000  0  4G 6G13G 9G11
  21465491.995    21465497.352    40748699.136 9 -46979003.592 8
  21004976.141    21004980.969    -6444677.872 8   4536329.370 8
  20068809.885    20068814.556    -2353218.919 7   -111110.515 8
  21915013.631    21915018.357    42726441.082 8 -45366827.328 8
 86  6 20  1 12 23.0800000  0  4G 6G13G 9G11
  21468442.117    21468447.102    40764202.504 8 -46966923.068 9
  21003498.319    21003503.225    -6452446.908 7   4530275.580 7
  20068401.305    20068406.180    -2355360.413 7   -112779.215 8
  21917704.938    21917710.391    42740586.948 8 -45355804.575 9
 86  6 20  1 12 29.0800000  0  4G 6G13G 9G11
  21471397.972    21471400.754    40779725.440 8 -46954827.273 9
  21002022.326    21002027.673    -6460197.283 9   4524236.336 8
  20068000.028    20068004.408    -2357477.031 8   -114428.513 8
  21920398.764    21920404.047    42754740.618 8 -45344775.740 9
 86  6 20  1 12 35.0800000  0  4G 6G13G 9G11
  21474354.452    21474358.973    40795267.879 8 -46942716.289 9
  21000551.643    21000556.542    -6467928.905 9   4518211.694 9
  20067600.859    20067605.554    -2359568.885 7   -116058.533 8
  21923093.416    21923098.247    42768902.199 8 -45333740.733 7
 86  6 20  1 12 41.0800000  0  4G 6G13G 9G11
  21477316.283    21477319.992    40810829.814 8 -46930590.092 8
  20999083.299    20999088.553    -6475641.813 8   4512201.649 8
  20067207.307    20067212.585    -2361635.901 8   -117669.212 7
  21925789.830    21925794.360    42783071.640 8 -45322699.611 8
 86  6 20  1 12 47.0800000  0  4G 6G13G 9G11
  21480280.662    21480285.970    40826411.389 9 -46918448.611 8
  20997619.908    20997624.482    -6483335.918 7   4506206.255 8
  20066819.920    20066823.508    -2363678.150 7   -119260.553 8
  21928487.984    21928493.168    42797248.930 8 -45311652.389 8
 86  6 20  1 12 53.0800000  0  4G 6G13G 9G11
  21483248.673    21483253.113    40842012.590 9 -46906291.833 8
  20996159.525    20996163.537    -6491011.270 8   4500225.450 7
  20066435.565    20066438.802    -2365695.404 8   -120832.449 7
  21931186.307    21931192.695    42811434.130 9 -45300598.965 7
 86  6 20  1 12 59.0800000  0  4G 6G13G 9G11
  21486220.927    21486226.656    40857633.318 8 -46894119.853 8
  20994702.235    20994706.329    -6498667.829 8   4494259.338 8
  20066056.386    20066059.959    -2367687.857 7   -122385.000 8
  21933888.543    21933892.456    42825627.183 8 -45289539.444 8
 86  6 20  1 13  5.0800000  0  4G 6G13G 9G11
  21489196.665    21489202.633    40873273.611 8 -46881932.611 8
  20993248.832    20993253.449    -6506305.518 8   4488307.885 8
  20065681.699    20065686.622    -2369655.349 8   -123918.115 6
  21936590.500    21936595.094    42839828.111 8 -45278473.792 9
 86  6 20  1 13 11.0800000  0  4G 6G13G 9G11
  21492177.702    21492181.975    40888933.411 8 -46869730.179 8
  20991799.395    20991804.393    -6513924.456 9   4482371.050 7
  20065312.689    20065315.462    -2371597.945 7   -125431.810 8
  21939294.234    21939298.399    42854036.821 8 -45267402.066 8
 86  6 20  1 13 17.0800000  0  4G 6G13G 9G11
  21495161.055    21495167.130    40904612.947 8 -46857512.367 8
  20990352.049    20990357.462    -6521524.437 7   4476448.997 8
  20064948.180    20064952.819    -2373515.474 7   -126925.986 6
  21941998.895    21942004.169    42868253.559 8 -45256324.090 8
 86  6 20  1 13 23.0800000  0  4G 6G13G 9G11
  21498149.765    21498153.859    40920311.968 9 -46845279.372 8
  20988910.855    20988915.195    -6529105.729 9   4470541.498 8
  20064588.715    20064591.463    -2375407.966 6   -128400.658 8
  21944706.392    21944712.188    42882478.086 8 -45245240.044 9
 86  6 20  1 13 29.0800000  0  4G 6G13G 9G11
  21501140.266    21501145.435    40936030.398 8 -46833031.238 8
  20987470.611    20987474.997    -6536668.398 8   4464648.523 8
  20064232.276    20064235.613    -2377275.688 8   -129856.008 7
  21947415.592    21947419.491    42896710.249 9 -45234150.055 8
 86  6 20  1 13 35.0800000  0  4G 6G13G 9G11
  21504135.410    21504138.885    40951768.290 8 -46820767.950 8
  20986035.202    20986039.753    -6544212.242 8   4458770.205 9
  20063881.701    20063885.209    -2379118.380 7   -131291.873 7
  21950124.723    21950128.973    42910950.140 8 -45223054.042 8
 86  6 20  1 13 41.0800000  0  4G 6G13G 9G11
  21507132.614    21507137.539    40967525.699 7 -46808489.458 7
  20984601.977    20984607.320    -6551737.199 8   4452906.612 8
  20063536.259    20063540.500    -2380936.072 7   -132708.255 7
  21952834.690    21952841.448    42925197.809 8 -45211951.958 8
 86  6 20  1 13 47.0800000  0  4G 6G13G 9G11
  21510134.910    21510139.861    40983302.602 8 -46796195.772 8
  20983175.414    20983179.842    -6559243.372 9   4447057.649 9
  20063194.878    20063198.787    -2382728.732 7   -134105.129 7
  21955547.792    21955552.807    42939453.145 8 -45200843.903 8
 86  6 20  1 13 53.0800000  0  4G 6G13G 9G11
  21513141.162    21513147.041    40999098.940 9 -46783886.943 8
  20981750.052    20981755.724    -6566730.818 7   4441223.286 7
  20062858.435    20062862.358    -2384496.402 7   -135482.532 7
  21958261.637    21958268.422    42953716.160 8 -45189729.864 8
 86  6 20  1 13 59.0800000  0  4G 6G13G 9G11
  21516151.642    21516156.382    41014914.716 8 -46771562.965 8
  20980329.688    20980334.026    -6574199.438 8   4435403.571 9
  20062526.874    20062529.642    -2386239.039 7   -136840.421 7
  21960979.073    21960984.376    42967986.846 8 -45178609.848 9
 86  6 20  1 14  5.0800000  0  4G 6G13G 9G11
  21519165.558    21519169.308    41030749.941 8 -46759223.830 8
  20978911.584    20978917.359    -6581649.306 9   4429598.488 8
  20062199.069    20062202.685    -2387956.657 7   -138178.835 7
  21963694.578    21963700.837    42982265.198 8 -45167483.861 8
 86  6 20  1 14 11.0800000  0  4G 6G13G 9G11
  21522181.998    21522186.362    41046604.563 8 -46746869.590 7
  20977496.730    20977502.769    -6589080.351 8   4423808.078 8
  20061878.038    20061883.257    -2389649.202 7   -139497.694 7
  21966414.044    21966419.011    42996551.174 7 -45156351.935 8
 86  6 20  1 14 17.0800000  0  4G 6G13G 9G11
  21525202.300    21525207.721    41062478.516 8 -46734500.276 8
  20976087.025    20976091.854    -6596492.716 8   4418032.222 9
  20061560.401    20061562.941    -2391316.719 7   -140797.058 7
  21969131.588    21969138.907    43010844.767 8 -45145214.066 8
 86  6 20  1 14 23.0800000  0  4G 6G13G 9G11
  21528226.828    21528231.828    41078371.823 8 -46722115.881 7
  20974680.705    20974683.550    -6603886.419 8   4412270.892 8
  20061246.533    20061250.715    -2392959.195 7   -142076.915 7
  21971854.122    21971861.549    43025145.923 8 -45134070.306 8
 86  6 20  1 14 29.0800000  0  4G 6G13G 9G11
  21531254.968    21531258.224    41094284.517 9 -46709716.393 8
  20973275.657    20973280.660    -6611261.451 8   4406524.107 7
  20060938.528    20060942.685    -2394576.651 8   -143337.256 8
  21974577.057    21974583.096    43039454.674 8 -45122920.637 8
 86  6 20  1 14 35.0800000  0  4G 6G13G 9G11
  21534285.971    21534290.807    41110216.515 9 -46697301.844 7
  20971876.400    20971880.436    -6618617.768 8   4400791.927 8
  20060636.433    20060640.874    -2396169.090 7   -144578.113 7
  21977301.908    21977307.706    43053770.917 8 -45111765.119 9
 86  6 20  1 14 41.0800000  0  4G 6G13G 9G11
  21537322.357    21537326.825    41126167.714 8 -46684872.349 7
  20970479.331    20970485.876    -6625955.371 8   4395074.320 9
  20060337.884    20060342.451    -2397736.582 6   -145799.538 7
  21980027.590    21980033.235    43068094.573 9 -45100603.833 8
 86  6 20  1 14 47.0800000  0  4G 6G13G 9G11
  21540360.504    21540363.973    41142138.162 8 -46672427.847 7
  20969087.143    20969091.891    -6633274.322 8   4389371.246 7
  20060043.153    20060048.979    -2399278.967 6   -147001.413 7
  21982754.649    21982760.044    43082425.651 7 -45089436.751 8
 86  6 20  1 14 53.0800000  0  4G 6G13G 9G11
  21543404.514    21543407.642    41158127.761 9 -46659968.423 8
  20967697.070    20967702.639    -6640574.741 8   4383682.617 9
  20059755.753    20059758.618    -2400796.449 7   -148183.866 7
  21985481.682    21985488.709    43096764.146 8 -45078263.909 9
 86  6 20  1 14 59.0800000  0  4G 6G13G 9G11
  21546450.249    21546454.416    41174136.487 8 -46647494.096 8
  20966312.627    20966316.063    -6647856.556 8   4378008.481 9
  20059471.563    20059476.868    -2402288.973 6   -149346.861 7
  21988213.828    21988218.714    43111109.958 8 -45067085.357 9
 86  6 20  1 15  5.0800000  0  4G 6G13G 9G11
  21549499.770    21549503.859    41190164.312 8 -46635004.873 8
  20964929.976    20964935.002    -6655119.846 8   4372348.785 8
  20059192.486    20059196.598    -2403756.545 7   -150490.414 7
  21990943.736    21990949.950    43125463.078 9 -45055901.105 8
 86  6 20  1 15 11.0800000  0  4G 6G13G 9G11
  21552553.403    21552559.063    41206211.206 8 -46622500.815 8
  20963550.953    20963556.683    -6662364.540 8   4366703.582 8
  20058916.152    20058922.778    -2405199.188 6   -151614.555 8
  21993676.986    21993682.990    43139823.445 8 -45044711.214 8
 86  6 20  1 15 17.0800000  0  4G 6G13G 9G11
  21555611.972    21555615.610    41222277.317 9 -46609981.770 8
  20962176.420    20962180.516    -6669590.610 8   4361072.875 7
  20058646.943    20058653.173    -2406616.646 8   -152719.071 7
  21996410.522    21996417.558    43154191.164 8 -45033515.579 8
 86  6 20  1 15 23.0800000  0  4G 6G13G 9G11
  21558671.905    21558677.086    41238362.564 9 -46597447.823 8
  20960804.478    20960809.532    -6676798.024 8   4355456.730 9
  20058385.520    20058388.768    -2408009.062 7   -153804.075 8
  21999147.357    21999151.538    43168566.219 7 -45022314.250 8
 86  6 20  1 15 29.0800000  0  4G 6G13G 9G11
  21561737.481    21561741.943    41254466.932 9 -46584898.960 8
  20959436.350    20959441.583    -6683986.840 9   4349855.051 8
  20058120.984    20058128.035    -2409376.349 7   -154869.501 8
  22001883.896    22001890.329    43182948.529 8 -45011107.251 9
 86  6 20  1 15 35.0800000  0  4G 6G13G 9G11
  21564804.997    21564809.823    41270590.504 8 -46572335.142 8
  20958071.518    20958077.203    -6691156.977 8   4344267.934 8
  20057867.095    20057871.996    -2410718.604 7   -155915.409 7
  22004620.989    22004627.024    43197338.203 8 -44999894.516 7
 86  6 20  1 15 41.0800000  0  4G 6G13G 9G11
  21567877.532    21567880.875    41286733.224 8 -46559756.397 8
  20956710.902    20956716.042    -6698308.426 9   4338695.392 8
  20057615.602    20057622.404    -2412035.643 7   -156941.677 7
  22007361.414    22007367.377    43211735.208 8 -44988676.081 8
 86  6 20  1 15 47.0800000  0  4G 6G13G 9G11
  21570950.767    21570958.509    41302895.121 9 -46547162.731 7
  20955353.729    20955359.171    -6705441.095 8   4333137.469 7
  20057369.980    20057375.572    -2413327.548 7   -157948.346 7
  22010102.555    22010107.906    43226139.559 8 -44977451.908 7
 86  6 20  1 15 53.0800000  0  4G 6G13G 9G11
  21574032.001    21574035.485    41319076.219 9 -46534554.083 8
  20953999.078    20954006.558    -6712555.081 8   4327594.099 8
  20057129.561    20057135.396    -2414594.154 7   -158935.316 8
  22012844.478    22012850.075    43240551.234 8 -44966222.026 8
 86  6 20  1 15 59.0800000  0  4G 6G13G 9G11
  21577114.861    21577119.262    41335276.495 8 -46521930.498 7
  20952650.007    20952656.109    -6719650.336 8   4322065.340 8
  20056893.661    20056898.530    -2415835.502 7   -159902.605 7
  22015588.038    22015594.136    43254970.319 8 -44954986.374 8
 86  6 20  1 16  5.0800000  0  4G 6G13G 9G11
  21580201.182    21580205.441    41351495.991 9 -46509291.925 9
  20951303.151    20951308.189    -6726726.824 8   4316551.198 8
  20056661.470    20056667.342    -2417051.529 7   -160850.151 7
  22018334.236    22018340.721    43269396.721 9 -44943745.028 9
 86  6 20  1 16 11.0800000  0  4G 6G13G 9G11
  21583291.624    21583296.275    41367734.654 8 -46496638.431 8
  20949959.760    20949966.142    -6733784.577 8   4311051.658 7
  20056435.193    20056440.197    -2418242.193 7   -161777.953 7
  22021081.088    22021086.659    43283830.417 8 -44932497.987 8
 86  6 20  1 16 17.0800000  0  4G 6G13G 9G11
  21586385.445    21586388.934    41383992.465 9 -46483970.005 8
  20948620.867    20948625.988    -6740823.598 8   4305566.714 8
  20056213.909    20056218.548    -2419407.599 7   -162686.062 7
  22023827.418    22023834.506    43298271.385 8 -44921245.298 8
 86  6 20  1 16 23.0800000  0  4G 6G13G 9G11
  21589481.319    21589487.777    41400269.387 8 -46471286.719 8
  20947284.937    20947290.791    -6747843.928 8   4300096.337 8
  20055997.069    20056001.688    -2420547.777 7   -163574.498 8
  22026577.097    22026583.727    43312719.617 8 -44909986.934 9
 86  6 20  1 16 29.0800000  0  4G 6G13G 9G11
  21592582.643    21592586.502    41416565.357 9 -46458588.542 8
  20945953.496    20945956.581    -6754845.612 8   4294640.493 8
  20055783.777    20055790.263    -2421662.655 8   -164443.246 7
  22029328.886    22029334.894    43327175.044 8 -44898722.969 8
 86  6 20  1 16 35.0800000  0  4G 6G13G 9G11
  21595688.223    21595692.603    41432880.335 8 -46445875.591 9
  20944624.135    20944629.025    -6761828.648 7   4289199.168 9
  20055578.446    20055582.941    -2422752.301 7   -165292.313 7
  22032081.425    22032086.805    43341637.648 8 -44887453.415 8
 86  6 20  1 16 41.0800000  0  4G 6G13G 9G11
  21598796.518    21598801.651    41449214.367 8 -46433147.772 8
  20943298.094    20943305.408    -6768793.034 8   4283772.383 9
  20055375.848    20055380.191    -2423816.764 7   -166121.768 8
  22034833.610    22034841.533    43356107.374 8 -44876178.303 8
 86  6 20  1 16 47.0800000  0  4G 6G13G 9G11
  21601908.520    21601913.122    41465567.395 9 -46420405.153 8
  20941977.023    20941982.368    -6775738.819 9   4278360.087 9
  20055177.643    20055182.618    -2424855.930 8   -166931.514 7
  22037589.112    22037595.076    43370584.198 8 -44864897.656 8
 86  6 20  1 16 53.0800000  0  4G 6G13G 9G11
  21605023.970    21605028.897    41481939.406 9 -46407647.747 8
  20940659.254    20940663.966    -6782666.027 9   4272962.271 8
  20054983.144    20054988.892    -2425869.809 7   -167721.560 6
  22040345.247    22040351.103    43385068.122 8 -44853611.488 8
 86  6 20  1 16 59.0800000  0  4G 6G13G 9G11
  21608141.512    21608147.198    41498330.333 9 -46394875.599 9
  20939343.942    20939349.048    -6789574.632 8   4267578.940 8
  20054796.541    20054799.913    -2426858.413 7   -168491.892 7
  22043103.987    22043108.509    43399559.095 8 -44842319.817 8
 86  6 20  1 17  5.0800000  0  4G 6G13G 9G11
  21611264.894    21611270.089    41514740.236 8 -46382088.662 8
  20938032.039    20938038.511    -6796464.668 8   4262210.097 8
  20054613.283    20054618.168    -2427821.775 8   -169242.557 7
  22045862.055    22045867.199    43414057.094 8 -44831022.689 8
 86  6 20  1 17 11.0800000  0  4G 6G13G 9G11
  21614391.287    21614396.278    41531168.967 8 -46369287.073 7
  20936725.017    20936730.953    -6803336.194 8   4256855.670 8
  20054435.725    20054438.207    -2428759.891 8   -169973.545 7
  22048621.295    22048628.219    43428562.002 7 -44819720.157 8
 86  6 20  1 17 17.0800000  0  4G 6G13G 9G11
  21617521.737    21617526.874    41547616.573 8 -46356470.755 7
  20935421.064    20935425.859    -6810189.191 8   4251515.677 8
  20054260.232    20054264.674    -2429672.884 7   -170684.961 7
  22051383.317    22051390.551    43443073.836 7 -44808412.248 8
 86  6 20  1 17 23.0800000  0  4G 6G13G 9G11
  21620655.621    21620657.839    41564083.014 9 -46343639.772 8
  20934120.442    20934125.702    -6817023.637 8   4246190.145 8
  20054092.815    20054095.626    -2430560.541 7   -171376.653 7
  22054146.833    22054152.324    43457592.586 8 -44797098.931 8
 86  6 20  1 17 29.0800000  0  4G 6G13G 9G11
  21623792.710    21623796.252    41580568.160 9 -46330794.202 8
  20932824.115    20932829.323    -6823839.615 8   4240878.989 7
  20053928.463    20053931.918    -2431423.065 7   -172048.740 8
  22056910.207    22056917.252    43472118.232 8 -44785780.257 9
 86  6 20  1 17 35.0800000  0  4G 6G13G 9G11
  21626932.182    21626938.352    41597072.031 9 -46317934.058 9
  20931530.702    20931534.920    -6830637.073 8   4235582.272 8
  20053768.696    20053772.380    -2432260.315 7   -172701.148 7
  22059676.515    22059682.495    43486650.701 8 -44774456.265 8
 86  6 20  1 17 41.0800000  0  4G 6G13G 9G11
  21630078.308    21630081.651    41613594.635 7 -46305059.297 7
  20930239.870    20930245.440    -6837416.008 7   4230299.996 8
  20053615.725    20053616.945    -2433072.376 7   -173333.917 7
  22062442.358    22062449.349    43501189.967 8 -44763126.950 8
 86  6 20  1 17 47.0800000  0  4G 6G13G 9G11
  21633225.251    21633229.900    41630136.108 9 -46292169.842 8
  20928952.167    20928958.340    -6844176.426 8   4225032.145 8
  20053463.471    20053469.120    -2433859.095 7   -173946.949 6
  22065210.929    22065216.625    43515736.160 9 -44751792.267 8
 86  6 20  1 17 53.0800000  0  4G 6G13G 9G11
  21636376.586    21636380.463    41646696.372 9 -46279265.749 8
  20927670.811    20927676.310    -6850918.282 9   4219778.752 8
  20053320.135    20053322.632    -2434620.516 7   -174540.261 7
  22067980.728    22067986.213    43530289.240 7 -44740452.215 9
 86  6 20  1 17 59.0800000  0  4G 6G13G 9G11
  21639530.798    21639535.755    41663275.524 8 -46266346.932 8
  20926391.686    20926395.436    -6857641.541 9   4214539.851 7
  20053180.878    20053183.354    -2435356.441 7   -175113.698 7
  22070751.473    22070756.530    43544849.244 8 -44729106.758 8
 86  6 20  1 18  5.0800000  0  4G 6G13G 9G11
  21642688.142    21642693.023    41679873.541 8 -46253413.427 8
  20925116.726    20925121.296    -6864346.145 8   4209315.506 8
  20053044.850    20053047.895    -2436066.936 7   -175667.343 7
  22073524.541    22073528.908    43559416.170 8 -44717755.901 8
 86  6 20  1 18 11.0800000  0  4G 6G13G 9G11
  21645851.627    21645856.692    41696490.387 8 -46240465.233 8
  20923843.814    20923848.310    -6871032.014 8   4204105.734 8
  20052915.037    20052918.510    -2436751.901 7   -176201.087 7
  22076296.595    22076301.052    43573990.056 9 -44706399.637 8
 86  6 20  1 18 17.0800000  0  4G 6G13G 9G11
  21649016.362    21649021.355    41713126.181 8 -46227502.271 7
  20922575.323    20922578.901    -6877699.188 8   4198910.539 8
  20052787.108    20052791.749    -2437411.486 7   -176715.034 7
  22079071.526    22079077.117    43588570.909 8 -44695037.934 8
 86  6 20  1 18 23.0800000  0  4G 6G13G 9G11
  21652186.134    21652191.485    41729780.812 9 -46214524.655 8
  20921309.250    20921313.533    -6884347.799 9   4193729.803 9
  20052667.110    20052671.858    -2438045.460 8   -177209.066 7
  22081848.059    22081852.794    43603158.633 8 -44683670.869 8
 86  6 20  1 18 29.0800000  0  4G 6G13G 9G11
  21655360.429    21655363.520    41746454.133 8 -46201532.452 8
  20920047.534    20920052.053    -6890977.923 9   4188563.489 8
  20052551.172    20052553.903    -2438654.131 7   -177683.320 7
  22084625.252    22084630.445    43617753.159 8 -44672298.528 8
 86  6 20  1 18 35.0800000  0  4G 6G13G 9G11
  21658535.642    21658540.051    41763146.113 8 -46188525.712 9
  20918788.970    20918794.574    -6897589.486 8   4183411.612 9
  20052439.212    20052445.696    -2439237.367 6   -178137.814 7
  22087403.832    22087408.325    43632354.422 8 -44660920.923 7
 86  6 20  1 18 41.0800000  0  4G 6G13G 9G11
  21661715.284    21661719.799    41779856.881 8 -46175504.357 8
  20917534.059    20917540.491    -6904182.448 9   4178274.235 7
  20052333.158    20052338.454    -2439795.213 7   -178572.504 7
  22090183.580    22090188.152    43646962.430 8 -44649538.054 8
 86  6 20  1 18 47.0800000  0  4G 6G13G 9G11
  21664898.623    21664904.654    41796586.334 8 -46162468.417 8
  20916283.056    20916288.444    -6910756.850 8   4173151.340 9
  20052231.362    20052237.897    -2440327.600 7   -178987.343 6
  22092963.432    22092969.254    43661577.197 9 -44638149.927 7
 86  6 20  1 18 53.0800000  0  4G 6G13G 9G11
  21668086.111    21668090.597    41813334.493 8 -46149417.906 8
  20915034.758    20915041.280    -6917312.666 8   4168042.919 8
  20052135.776    20052140.224    -2440834.460 7   -179382.305 7
  22095745.764    22095751.459    43676198.698 8 -44626756.558 7
 86  6 20  1 18 59.0800000  0  4G 6G13G 9G11
  21671277.039    21671281.103    41830101.242 9 -46136352.909 9
  20913791.420    20913797.205    -6923849.986 8   4162948.900 7
  20052043.697    20052050.247    -2441315.964 6   -179757.499 7
  22098529.079    22098534.299    43690826.837 8 -44615358.002 8
 86  6 20  1 19  5.0800000  0  4G 6G13G 9G11
  21674470.341    21674474.512    41846886.640 8 -46123273.390 8
  20912551.604    20912556.007    -6930368.830 8   4157869.288 8
  20051956.456    20051963.037    -2441771.915 7   -180112.784 7
  22101315.112    22101320.233    43705461.645 8 -44603954.263 8
 86  6 20  1 19 11.0800000  0  4G 6G13G 9G11
  21677668.379    21677673.895    41863690.585 8 -46110179.414 8
  20911314.228    20911319.555    -6936869.243 8   4152804.043 8
  20051875.310    20051881.474    -2442202.410 6   -180448.257 7
  22104100.795    22104107.132    43720103.022 8 -44592545.408 8
 86  6 20  1 19 17.0800000  0  4G 6G13G 9G11
  21680869.981    21680874.989    41880513.109 9 -46097070.950 7
  20910082.379    20910086.705    -6943351.167 8   4147753.202 8
  20051799.428    20051803.946    -2442607.645 6   -180764.013 7
  22106889.129    22106893.823    43734751.033 8 -44581131.371 8
 86  6 20  1 19 23.0800000  0  4G 6G13G 9G11
  21684074.777    21684078.520    41897354.239 8 -46083948.007 8
  20908851.176    20908856.150    -6949814.553 8   4142716.812 8
  20051725.150    20051731.609    -2442987.340 6   -181059.869 7
  22109678.299    22109682.374    43749405.628 9 -44569712.197 8
 86  6 20  1 19 29.0800000  0  4G 6G13G 9G11
  21687282.495    21687287.693    41914213.952 8 -46070810.565 8
  20907624.322    20907630.583    -6956259.457 8   4137694.804 8
  20051658.451    20051663.478    -2443341.517 6   -181335.869 7
  22112466.312    22112472.519    43764066.875 8 -44558287.872 8
 86  6 20  1 19 35.0800000  0  4G 6G13G 9G11
  21690494.114    21690500.014    41931092.305 8 -46057658.595 8
  20906402.341    20906407.749    -6962685.987 7   4132687.124 8
  20051596.696    20051602.616    -2443670.107 7   -181591.926 7
  22115258.067    22115263.462    43778734.703 8 -44546858.393 8
 86  6 20  1 19 41.0800000  0  4G 6G13G 9G11
  21693710.397    21693714.690    41947989.250 8 -46044492.156 7
  20905181.199    20905187.610    -6969093.922 8   4127693.945 9
  20051539.968    20051543.203    -2443973.084 6   -181827.992 7
  22118051.323    22118055.487    43793409.222 8 -44535423.700 8
 86  6 20  1 19 47.0800000  0  4G 6G13G 9G11
  21696928.900    21696934.213    41964904.783 9 -46031311.239 8
  20903967.200    20903970.912    -6975483.337 8   4122715.178 9
  20051487.011    20051490.756    -2444250.562 7   -182044.216 6
  22120843.703    22120849.725    43808090.300 8 -44523983.898 8
 86  6 20  1 19 53.0800000  0  4G 6G13G 9G11
  21700152.049    21700157.097    41981838.828 8 -46018115.884 8
  20902753.668    20902758.797    -6981854.199 8   4117750.870 9
  20051439.421    20051443.297    -2444502.394 8   -182240.441 7
  22123639.308    22123645.001    43822777.929 8 -44512539.009 8
 86  6 20  1 19 59.0800000  0  4G 6G13G 9G11
  21703376.883    21703384.032    41998791.343 8 -46004906.133 8
  20901545.087    20901549.681    -6988206.591 8   4112800.964 8
  20051396.166    20051400.119    -2444728.780 8   -182416.845 7
  22126435.737    22126441.622    43837472.022 8 -44501089.063 8
 86  6 20  1 20  5.0800000  0  4G 6G13G 9G11
  21706606.644    21706611.634    42015762.269 9 -45991682.043 9
  20900340.543    20900345.252    -6994540.587 8   4107865.391 7
  20051357.268    20051361.314    -2444929.778 7   -182573.472 7
  22129232.053    22129239.556    43852172.599 8 -44489634.073 8
 86  6 20  1 20 11.0800000  0  4G 6G13G 9G11
  21709839.690    21709844.223    42032751.606 8 -45978443.611 8
  20899138.347    20899144.176    -7000856.196 7   4102944.156 8
  20051323.816    20051328.420    -2445105.203 7   -182710.169 7
  22132032.307    22132036.018    43866879.577 9 -44478174.090 7
 86  6 20  1 20 17.0800000  0  4G 6G13G 9G11
  21713075.803    21713082.023    42049759.291 8 -45965190.870 8
  20897940.386    20897944.842    -7007153.450 8   4098037.205 8
  20051295.963    20051299.735    -2445255.194 8   -182827.036 7
  22134831.997    22134837.243    43881592.868 8 -44466709.198 9
 86  6 20  1 20 23.0800000  0  4G 6G13G 9G11
  21716316.721    21716320.700    42066785.350 9 -45951923.805 8
  20896745.858    20896750.832    -7013432.327 9   4093144.568 8
  20051272.684    20051276.039    -2445379.686 7   -182924.052 7
  22137633.565    22137636.881    43896312.513 9 -44455239.349 8
 86  6 20  1 20 29.0800000  0  4G 6G13G 9G11
  21719558.843    21719564.677    42083829.797 8 -45938642.421 8
  20895554.037    20895559.908    -7019692.834 8   4088266.263 8
  20051252.447    20051256.531    -2445478.684 8   -183001.197 7
  22140435.969    22140440.473    43911038.563 8 -44443764.511 9
 86  6 20  1 20 35.0800000  0  4G 6G13G 9G11
  21722806.482    21722810.918    42100892.652 8 -45925346.698 8
  20894366.005    20894371.277    -7025934.956 8   4083402.277 8
  20051239.221    20051243.091    -2445552.104 7   -183058.409 8
  22143240.342    22143243.231    43925770.922 8 -44432284.745 7
 86  6 20  1 20 41.0800000  0  4G 6G13G 9G11
  21726056.928    21726063.023    42117973.846 9 -45912036.680 8
  20893181.256    20893187.214    -7032158.549 8   4078552.731 8
  20051229.877    20051234.257    -2445599.944 8   -183095.681 7
  22146043.410    22146049.251    43940509.593 8 -44420800.067 8
 86  6 20  1 20 47.0800000  0  4G 6G13G 9G11
  21729310.528    21729315.478    42135073.580 9 -45898712.214 8
  20892001.921    20892006.123    -7038363.586 8   4073717.638 8
  20051226.565    20051230.612    -2445622.056 7   -183112.908 7
  22148849.169    22148854.503    43955254.755 8 -44409310.343 7
 86  6 20  1 20 53.0800000  0  4G 6G13G 9G11
  21732568.906    21732573.929    42152191.769 8 -45885373.384 9
  20890823.811    20890828.956    -7044550.052 8   4068897.021 8
  20051225.498    20051229.648    -2445618.414 7   -183110.070 7
  22151657.236    22151660.944    43970006.333 8 -44397815.606 7
 86  6 20  1 20 59.0800000  0  4G 6G13G 9G11
  21735828.968    21735833.790    42169328.340 8 -45872020.210 8
  20889649.948    20889654.202    -7050718.015 9   4064090.809 8
  20051232.941    20051236.355    -2445589.066 7   -183087.197 5
  22154465.077    22154469.205    43984764.337 9 -44386315.862 9
 86  6 20  1 21  5.0800000  0  4G 6G13G 9G11
  21739093.956    21739098.606    42186483.376 8 -45858652.658 8
  20888479.615    20888484.362    -7056867.494 8   4059299.027 8
  20051244.361    20051246.465    -2445534.104 6   -183044.380 6
  22157275.164    22157278.876    43999528.759 8 -44374811.124 8
 86  6 20  1 21 11.0800000  0  4G 6G13G 9G11
  21742362.143    21742366.333    42203656.833 8 -45845270.731 7
  20887313.790    20887317.854    -7062998.371 8   4054521.724 8
  20051258.345    20051262.777    -2445453.350 6   -182981.449 7
  22160085.791    22160090.828    44014299.599 8 -44363301.378 8
 86  6 20  1 21 17.0800000  0  4G 6G13G 9G11
  21745633.140    21745638.994    42220848.610 9 -45831874.557 8
  20886149.636    20886153.092    -7069110.829 9   4049758.775 8
  20051277.987    20051281.972    -2445346.906 6   -182898.502 7
  22162898.388    22162901.857    44029076.712 8 -44351786.755 8
 86  6 20  1 21 23.0800000  0  4G 6G13G 9G11
  21748908.169    21748913.815    42238058.751 8 -45818464.067 8
  20884990.623    20884994.367    -7075204.827 9   4045010.209 7
  20051302.910    20051306.355    -2445214.711 7   -182795.500 7
  22165711.301    22165715.866    44043860.186 9 -44340267.162 8
 86  6 20  1 21 29.0800000  0  4G 6G13G 9G11
  21752186.723    21752191.895    42255287.248 9 -45805039.274 9
  20883834.065    20883838.296    -7081280.407 8   4040275.997 8
  20051334.589    20051336.014    -2445056.770 7   -182672.423 7
  22168525.130    22168529.981    44058649.966 9 -44328742.656 7
 86  6 20  1 21 35.0800000  0  4G 6G13G 9G11
  21755468.738    21755474.345    42272534.013 8 -45791600.238 8
  20882680.773    20882686.350    -7087337.577 8   4035556.141 8
  20051368.225    20051371.575    -2444873.201 7   -182529.372 6
  22171342.048    22171345.952    44073446.017 9 -44317213.271 8
 86  6 20  1 21 41.0800000  0  4G 6G13G 9G11
  21758755.245    21758758.624    42289799.049 8 -45778146.959 8
  20881531.924    20881537.295    -7093376.404 7   4030850.565 8
  20051408.304    20051412.270    -2444663.965 6   -182366.329 6
  22174158.771    22174162.059    44088248.236 8 -44305679.075 8
 86  6 20  1 21 47.0800000  0  4G 6G13G 9G11
  21762044.304    21762048.520    42307082.203 9 -45764679.575 8
  20880387.392    20880392.597    -7099396.939 8   4026159.244 8
  20051452.922    20051456.896    -2444429.144 7   -182183.363 7
  22176976.102    22176980.716    44103056.602 9 -44294140.094 9
 86  6 20  1 21 53.0800000  0  4G 6G13G 9G11
  21765335.273    21765340.127    42324383.543 9 -45751198.026 8
  20879244.056    20879250.025    -7105399.156 9   4021482.198 8
  20051501.834    20051504.650    -2444168.595 7   -181980.332 7
  22179795.894    22179799.104    44117871.146 8 -44282596.293 8
 86  6 20  1 21 59.0800000  0  4G 6G13G 9G11
  21768630.652    21768636.347    42341702.992 8 -45737702.363 9
  20878106.408    20878110.355    -7111382.967 8   4016819.491 7
  20051555.108    20051559.769    -2443882.403 7   -181757.337 7
  22182615.367    22182619.899    44132691.805 9 -44271047.729 8
 86  6 20  1 22  5.0800000  0  4G 6G13G 9G11
  21771930.726    21771935.892    42359040.633 8 -45724192.510 8
  20876971.109    20876974.885    -7117348.439 8   4012171.087 7
  20051615.168    20051620.524    -2443570.573 7   -181514.343 7
  22185436.488    22185440.981    44147518.505 9 -44259494.464 9
 86  6 20  1 22 11.0800000  0  4G 6G13G 9G11
  21775232.025    21775239.469    42376396.369 8 -45710668.577 8
  20875838.528    20875843.388    -7123295.511 9   4007537.008 8
  20051678.863    20051683.647    -2443232.955 7   -181251.276 8
  22188258.667    22188264.107    44162351.281 9 -44247936.453 7
 86  6 20  1 22 17.0800000  0  4G 6G13G 9G11
  21778539.113    21778544.255    42393770.263 8 -45697130.475 8
  20874710.982    20874715.016    -7129224.323 8   4002917.166 7
  20051747.824    20051752.446    -2442869.811 7   -180968.302 8
  22191082.873    22191086.906    44177190.168 8 -44236373.698 8
 86  6 20  1 22 23.0800000  0  4G 6G13G 9G11
  21781847.995    21781854.557    42411162.246 9 -45683578.288 8
  20873585.304    20873590.413    -7135134.781 8   3998311.618 8
  20051819.903    20051828.131    -2442480.937 5   -180665.285 6
  22193908.261    22193912.468    44192035.040 8 -44224806.246 8
 86  6 20  1 22 29.0800000  0  4G 6G13G 9G11
  21785163.209    21785166.017    42428572.172 8 -45670012.106 8
  20872463.154    20872468.863    -7141027.002 8   3993720.287 8
  20051901.155    20051907.461    -2442066.407 6   -180342.284 7
  22196734.231    22196738.648    44206885.839 9 -44213234.203 8
 86  6 20  1 22 35.0800000  0  4G 6G13G 9G11
  21788478.078    21788484.021    42446000.129 9 -45656431.892 8
  20871346.532    20871351.799    -7146900.957 8   3989143.170 8
  20051985.754    20051989.911    -2441626.194 7   -179999.254 6
  22199561.314    22199565.237    44221742.596 9 -44201657.505 8
 86  6 20  1 22 41.0800000  0  4G 6G13G 9G11
  21791797.751    21791803.063    42463446.087 9 -45642837.634 8
  20870232.047    20870236.755    -7152756.695 8   3984580.275 7
  20052073.461    20052078.781    -2441160.285 7   -179636.201 7
  22202389.628    22202394.181    44236605.381 9 -44190076.112 8
 86  6 20  1 22 47.0800000  0  4G 6G13G 9G11
  21795121.668    21795127.220    42480910.058 9 -45629229.361 8
  20869121.414    20869125.683    -7158594.181 8   3980031.595 8
  20052166.305    20052171.762    -2440668.699 7   -179253.158 7
  22205219.369    22205222.998    44251474.119 9 -44178490.089 8
 86  6 20  1 22 53.0800000  0  4G 6G13G 9G11
  21798448.215    21798454.046    42498392.110 9 -45615606.998 8
  20868014.445    20868019.514    -7164413.340 8   3975497.181 8
  20052265.627    20052271.449    -2440151.316 6   -178850.005 7
  22208049.463    22208054.084    44266348.826 9 -44166899.412 8
 86  6 20  1 22 59.0800000  0  4G 6G13G 9G11
  21801777.391    21801782.903    42515892.162 9 -45601970.605 8
  20866909.494    20866915.679    -7170214.212 8   3970977.033 8
  20052368.397    20052374.971    -2439608.245 7   -178426.854 7
  22210881.071    22210884.217    44281229.490 9 -44155304.087 8
 86  6 20  1 23  5.0800000  0  4G 6G13G 9G11
  21805111.195    21805117.461    42533410.199 9 -45588320.175 8
  20865810.834    20865814.548    -7175996.785 8   3966471.151 8
  20052478.311    20052482.909    -2439039.363 7   -177983.546 7
  22213713.461    22213718.660    44296116.150 9 -44143704.102 8
 86  6 20  1 23 11.0800000  0  4G 6G13G 9G11
  21808448.880    21808454.254    42550946.275 8 -45574655.711 9
  20864712.830    20864718.602    -7181760.931 8   3961979.600 8
  20052592.026    20052594.902    -2438444.720 7   -177520.205 6
  22216546.908    22216551.393    44311008.772 8 -44132099.453 8
 86  6 20  1 23 17.0800000  0  4G 6G13G 9G11
  21811788.703    21811793.356    42568500.408 8 -45560977.169 8
  20863619.769    20863624.595    -7187506.752 8   3957502.348 8
  20052709.789    20052712.858    -2437824.215 7   -177036.690 6
  22219382.415    22219387.871    44325907.323 9 -44120490.198 8
 86  6 20  1 23 23.0800000  0  4G 6G13G 9G11
  21815133.170    21815138.028    42586072.569 8 -45547284.589 7
  20862529.684    20862534.248    -7193234.180 8   3953039.420 9
  20052832.509    20052837.080    -2437177.841 7   -176533.023 6
  22222219.164    22222223.401    44340811.843 9 -44108876.293 8
 86  6 20  1 23 29.0800000  0  4G 6G13G 9G11
  21818479.939    21818485.420    42603662.719 9 -45533577.987 8
  20861442.430    20861447.894    -7198943.287 8   3948590.774 8
  20052960.177    20052964.300    -2436505.582 7   -176009.173 7
  22225056.206    22225061.078    44355722.261 9 -44097257.775 8
 86  6 20  1 23 35.0800000  0  4G 6G13G 9G11
  21821831.781    21821835.778    42621270.865 9 -45519857.343 8
  20860360.307    20860365.563    -7204634.061 8   3944156.418 8
  20053094.425    20053096.115    -2435807.435 6   -175465.176 6
  22227895.060    22227899.699    44370638.640 8 -44085634.635 8
 86  6 20  1 23 41.0800000  0  4G 6G13G 9G11
  21825186.315    21825190.553    42638896.936 8 -45506122.748 8
  20859280.605    20859285.425    -7210306.502 8   3939736.334 8
  20053231.573    20053235.953    -2435083.508 8   -174901.067 7
  22230735.238    22230738.777    44385560.902 9 -44074006.897 8
 86  6 20  1 23 47.0800000  0  4G 6G13G 9G11
  21828543.631    21828548.785    42656540.953 8 -45492374.172 8
  20858205.564    20858209.599    -7215960.670 8   3935330.505 8
  20053373.773    20053377.119    -2434333.702 6   -174316.805 6
  22233574.961    22233580.260    44400489.070 8 -44062374.559 8
 86  6 20  1 23 53.0800000  0  4G 6G13G 9G11
  21831904.257    21831909.610    42674202.874 9 -45478611.636 8
  20857132.411    20857137.879    -7221596.579 9   3930938.898 7
  20053521.730    20053526.735    -2433557.960 7   -173712.314 7
  22236416.112    22236421.047    44415423.047 9 -44050737.694 8
 86  6 20  1 23 59.0800000  0  4G 6G13G 9G11
  21835269.380    21835273.514    42691882.728 8 -45464835.138 8
  20856063.129    20856068.966    -7227214.123 8   3926561.591 8
  20053673.984    20053678.450    -2432756.456 7   -173087.776 6
  22239261.456    22239264.435    44430362.858 8 -44039096.285 9
 86  6 20  1 24  5.0800000  0  4G 6G13G 9G11
  21838636.791    21838641.285    42709580.466 8 -45451044.698 8
  20854998.629    20855002.771    -7232813.310 9   3922198.586 9
  20053832.469    20053835.213    -2431929.067 7   -172443.061 7
  22242103.403    22242107.860    44445308.472 7 -44027450.355 9
 86  6 20  1 24 11.0800000  0  4G 6G13G 9G11
  21842008.091    21842012.630    42727296.039 8 -45437240.360 8
  20853935.435    20853940.155    -7238394.169 9   3917849.871 9
  20053995.836    20053997.251    -2431075.793 7   -171778.178 7
  22244950.172    22244953.255    44460259.892 9 -44015799.899 9
 86  6 20  1 24 17.0800000  0  4G 6G13G 9G11
  21845381.516    21845387.125    42745029.476 8 -45423422.104 9
  20852877.195    20852883.116    -7243956.826 9   3913515.340 8
  20054161.030    20054166.345    -2430196.607 8   -171093.092 6
  22247796.464    22247800.743    44475217.079 8 -44004144.945 8
 86  6 20  1 24 23.0800000  0  4G 6G13G 9G11
  21848760.342    21848763.522    42762780.780 9 -45409589.915 8
  20851822.067    20851827.356    -7249501.194 8   3909195.061 9
  20054335.121    20054337.045    -2429291.524 7   -170387.840 7
  22250643.010    22250647.856    44490180.076 8 -43992485.477 9
 86  6 20  1 24 29.0800000  0  4G 6G13G 9G11
  21852141.751    21852144.597    42780549.868 8 -45395743.876 8
  20850770.731    20850776.004    -7255027.250 9   3904889.050 8
  20054510.767    20054513.087    -2428360.543 7   -169662.382 7
  22253490.458    22253495.311    44505148.818 9 -43980821.525 8
 86  6 20  1 24 35.0800000  0  4G 6G13G 9G11
  21855526.075    21855530.825    42798336.718 8 -45381884.005 8
  20849722.663    20849727.653    -7260535.143 9   3900597.190 9
  20054692.173    20054696.814    -2427403.718 7   -168916.815 8
  22256340.861    22256345.780    44520123.213 9 -43969153.172 9
 86  6 20  1 24 41.0800000  0  4G 6G13G 9G11
  21858913.897    21858919.662    42816141.203 8 -45368010.367 8
  20848678.436    20848683.530    -7266024.932 9   3896319.443 9
  20054879.838    20054884.494    -2426421.075 7   -168151.124 8
  22259191.872    22259195.958    44535103.192 8 -43957480.455 8
 86  6 20  1 24 47.0800000  0  4G 6G13G 9G11
  21862306.429    21862310.855    42833963.254 8 -45354123.074 9
  20847636.579    20847641.952    -7271496.625 8   3892055.779 8
  20055070.837    20055075.065    -2425412.738 6   -167365.410 6
  22262042.674    22262048.659    44550088.674 9 -43945803.464 8
 86  6 20  1 24 53.0800000  0  4G 6G13G 9G11
  21865700.575    21865705.842    42851802.972 8 -45340221.998 8
  20846599.906    20846604.972    -7276950.151 9   3887806.298 8
  20055269.514    20055274.686    -2424378.503 6   -166559.500 7
  22264895.546    22264901.315    44565079.697 8 -43934122.148 8
 86  6 20  1 24 59.0800000  0  4G 6G13G 9G11
  21869097.340    21869103.801    42869660.371 8 -45326307.147 8
  20845564.987    20845569.382    -7282385.428 7   3883571.008 8
  20055470.558    20055473.621    -2423318.374 7   -165733.437 7
  22267749.102    22267753.669    44580076.332 8 -43922436.456 9
 86  6 20  1 25  5.0800000  0  4G 6G13G 9G11
  21872499.271    21872505.183    42887535.425 7 -45312378.543 8
  20844534.520    20844538.507    -7287802.573 9   3879349.856 8
  20055676.724    20055681.468    -2422232.460 6   -164887.280 6
  22270604.665    22270609.718    44595078.516 9 -43910746.453 9
 86  6 20  1 25 11.0800000  0  4G 6G13G 9G11
  21875905.522    21875910.166    42905428.110 8 -45298436.200 8
  20843507.315    20843511.656    -7293201.561 9   3875142.864 8
  20055888.081    20055892.671    -2421120.683 6   -164020.946 7
  22273459.608    22273464.557    44610086.255 8 -43899052.104 8
 86  6 20  1 25 17.0800000  0  4G 6G13G 9G11
  21879312.793    21879317.461    42923338.371 8 -45284480.144 8
  20842481.559    20842488.200    -7298582.449 9   3870949.960 8
  20056103.711    20056110.370    -2419982.978 6   -163134.432 8
  22276317.200    22276322.565    44625099.528 8 -43887353.448 8
 86  6 20  1 25 23.0800000  0  4G 6G13G 9G11
  21882723.647    21882729.761    42941266.269 8 -45270510.359 8
  20841461.783    20841467.315    -7303945.239 9   3866771.164 8
  20056326.943    20056330.102    -2418819.395 7   -162227.753 6
  22279173.943    22279179.473    44640118.324 8 -43875650.499 9
 86  6 20  1 25 29.0800000  0  4G 6G13G 9G11
  21886139.766    21886143.246    42959211.839 8 -45256526.802 8
  20840444.628    20840450.322    -7309289.792 8   3862606.593 8
  20056551.007    20056556.532    -2417629.740 6   -161300.759 7
  22282034.577    22282038.200    44655142.711 8 -43863943.178 8
 86  6 20  1 25 35.0800000  0  4G 6G13G 9G11
  21889557.375    21889562.761    42977175.087 8 -45242529.476 7
  20839432.042    20839436.440    -7314616.064 8   3858456.263 8
  20056783.745    20056789.245    -2416414.109 7   -160353.519 7
  22284894.345    22284898.571    44670172.731 8 -43852231.483 8
 86  6 20  1 25 41.0800000  0  4G 6G13G 9G11
  21892979.647    21892983.345    42995156.001 8 -45228518.373 9
  20838420.392    20838426.657    -7319924.038 8   3854320.176 8
  20057021.058    20057023.022    -2415172.429 6   -159385.953 7
  22287755.492    22287759.473    44685208.365 9 -43840515.397 8
 86  6 20  1 25 47.0800000  0  4G 6G13G 9G11
  21896404.183    21896409.794    43013154.695 8 -45214493.419 8
  20837415.112    20837421.118    -7325213.721 8   3850198.366 8
  20057261.128    20057266.600    -2413904.754 6   -158398.182 6
  22290617.946    22290623.536    44700249.606 9 -43828794.950 8
 86  6 20  1 25 53.0800000  0  4G 6G13G 9G11
  21899831.873    21899838.020    43031170.993 8 -45200454.759 8
  20836411.632    20836417.613    -7330485.104 8   3846090.794 8
  20057508.343    20057511.850    -2412611.004 6   -157390.055 7
  22293480.643    22293486.932    44715296.390 8 -43817070.191 8
 86  6 20  1 25 59.0800000  0  4G 6G13G 9G11
  21903264.104    21903269.378    43049204.877 8 -45186402.399 8
  20835411.060    20835416.126    -7335738.366 8   3841997.347 8
  20057757.814    20057762.624    -2411291.250 7   -156361.683 6
  22296345.010    22296350.062    44730348.641 9 -43805341.159 8
 86  6 20  1 26  5.0800000  0  4G 6G13G 9G11
  21906699.796    21906704.817    43067256.212 8 -45172336.415 8
  20834415.036    20834421.487    -7340973.564 7   3837917.979 7
  20058013.924    20058018.463    -2409945.601 7   -155313.113 7
  22299210.377    22299215.703    44745406.335 9 -43793607.910 8
 86  6 20  1 26 11.0800000  0  4G 6G13G 9G11
  21910138.409    21910142.664    43085325.044 9 -45158256.823 8
  20833422.093    20833428.588    -7346190.607 8   3833852.761 8
  20058273.827    20058279.957    -2408573.879 6   -154244.246 7
  22302077.250    22302082.557    44760469.430 8 -43781870.430 9
 86  6 20  1 26 17.0800000  0  4G 6G13G 9G11
  21913578.566    21913584.864    43103411.356 8 -45144163.596 9
  20832433.182    20832438.245    -7351389.492 8   3829801.685 8
  20058540.365    20058545.308    -2407176.167 7   -153155.126 6
  22304944.422    22304949.788    44775537.913 8 -43770128.758 8
 86  6 20  1 26 23.0800000  0  4G 6G13G 9G11
  21917025.253    21917028.758    43121515.118 8 -45130056.766 8
  20831447.477    20831452.870    -7356570.212 8   3825764.757 8
  20058812.496    20058816.208    -2405752.581 6   -152045.827 7
  22307812.925    22307817.948    44790611.717 8 -43758382.938 8
 86  6 20  1 26 29.0800000  0  4G 6G13G 9G11
  21920472.624    21920477.115    43139636.242 9 -45115936.402 8
  20830465.798    20830469.960    -7361732.950 8   3821741.860 8
  20059087.308    20059091.936    -2404303.069 7   -150916.348 7
  22310682.024    22310687.758    44805690.807 8 -43746633.002 9
 86  6 20  1 26 35.0800000  0  4G 6G13G 9G11
  21923924.457    21923929.441    43157774.736 8 -45101802.532 8
  20829485.850    20829491.548    -7366877.684 8   3817732.982 8
  20059369.052    20059372.911    -2402827.590 6   -149766.627 7
  22313552.374    22313558.035    44820775.143 7 -43734878.972 8
 86  6 20  1 26 41.0800000  0  4G 6G13G 9G11
  21927379.188    21927383.090    43175930.502 8 -45087655.182 6
  20828511.228    20828515.713    -7372004.348 8   3813738.185 8
  20059655.536    20059660.069    -2401326.211 6   -148596.713 7
  22316423.894    22316429.743    44835864.712 8 -43723120.872 9
 86  6 20  1 26 47.0800000  0  4G 6G13G 9G11
  21930838.722    21930843.244    43194103.723 7 -45073494.233 7
  20827539.409    20827543.031    -7377113.012 8   3809757.412 8
  20059944.931    20059949.218    -2399798.805 7   -147406.527 6
  22319296.399    22319302.714    44850959.531 8 -43711358.688 8
 86  6 20  1 26 53.0800000  0  4G 6G13G 9G11
  21934299.542    21934304.666    43212294.335 8 -45059319.739 9
  20826570.264    20826574.597    -7382203.664 8   3805790.678 8
  20060241.559    20060244.857    -2398245.467 8   -146196.113 7
  22322169.595    22322175.128    44866059.709 7 -43699592.326 8
 86  6 20  1 26 59.0800000  0  4G 6G13G 9G11
  21937764.894    21937769.135    43230502.328 8 -45045131.699 7
  20825604.112    20825609.741    -7387276.156 8   3801838.086 7
  20060542.719    20060544.873    -2396665.899 8   -144965.296 6
  22325044.702    22325049.367    44881165.236 8 -43687821.778 8
 86  6 20  1 27  5.0800000  0  4G 6G13G 9G11
  21941232.601    21941237.905    43248727.754 8 -45030930.076 8
  20824643.607    20824647.748    -7392330.418 9   3797899.708 8
  20060847.015    20060851.660    -2395060.467 6   -143714.311 7
  22327920.794    22327924.910    44896276.087 8 -43676047.099 9
 86  6 20  1 27 11.0800000  0  4G 6G13G 9G11
  21944703.846    21944707.785    43266970.517 8 -45016714.938 8
  20823684.836    20823688.446    -7397366.603 8   3793975.412 7
  20061159.511    20061161.969    -2393428.931 7   -142442.977 7
  22330796.326    22330801.580    44911392.213 8 -43664268.310 8
 86  6 20  1 27 17.0800000  0  4G 6G13G 9G11
  21948177.604    21948183.079    43285230.555 8 -45002486.333 8
  20822729.601    20822734.050    -7402384.742 8   3790065.177 8
  20061473.723    20061476.267    -2391771.303 7   -141151.317 6
  22333673.069    22333680.324    44926513.586 8 -43652485.427 9
 86  6 20  1 27 23.0800000  0  4G 6G13G 9G11
  21951656.798    21951660.844    43303507.889 8 -44988244.269 8
  20821777.871    20821783.233    -7407384.829 8   3786169.011 9
  20061795.107    20061797.039    -2390087.716 7   -139839.429 6
  22336551.939    22336558.148    44941640.139 8 -43640698.497 8
 86  6 20  1 27 29.0800000  0  4G 6G13G 9G11
  21955138.390    21955142.526    43321802.460 8 -44973988.756 9
  20820831.630    20820833.143    -7412366.854 8   3782286.918 8
  20062120.773    20062121.725    -2388378.143 7   -138507.291 7
  22339432.431    22339437.403    44956771.858 8 -43628907.560 8
 86  6 20  1 27 35.0800000  0  4G 6G13G 9G11
  21958622.972    21958628.720    43340114.244 9 -44959719.846 8
  20819885.824    20819890.312    -7417330.949 9   3778418.792 8
  20062448.813    20062454.472    -2386642.588 7   -137154.908 7
  22342312.407    22342316.980    44971908.671 8 -43617112.665 8
 86  6 20  1 27 41.0800000  0  4G 6G13G 9G11
  21962111.091    21962114.667    43358443.205 9 -44945437.532 9
  20818943.972    20818948.726    -7422277.082 9   3774564.666 8
  20062785.182    20062788.294    -2384881.039 7   -135782.277 7
  22345192.946    22345199.600    44987050.560 8 -43605313.776 9
 86  6 20  1 27 47.0800000  0  4G 6G13G 9G11
  21965602.082    21965607.625    43376789.329 9 -44931141.855 8
  20818005.937    20818010.220    -7427205.219 8   3770724.562 8
  20063125.374    20063127.594    -2383093.359 7   -134389.274 6
  22348075.424    22348081.316    45002197.499 7 -43593510.971 9
 86  6 20  1 27 53.0800000  0  4G 6G13G 9G11
  21969096.727    21969101.527    43395152.624 9 -44916832.800 8
  20817073.592    20817077.938    -7432115.392 9   3766898.445 8
  20063470.135    20063474.172    -2381279.772 7   -132976.088 7
  22350958.910    22350964.708    45017349.556 7 -43581704.187 9
 86  6 20  1 27 59.0800000  0  4G 6G13G 9G11
  21972594.721    21972598.879    43413533.106 9 -44902510.349 8
  20816141.158    20816145.827    -7437007.555 9   3763086.382 8
  20063820.687    20063823.231    -2379440.150 6   -131542.611 7
  22353843.521    22353848.624    45032506.712 9 -43569893.427 8
 86  6 20  1 28  5.0800000  0  4G 6G13G 9G11
  21976094.098    21976099.258    43431930.747 9 -44888174.542 8
  20815213.121    20815218.926    -7441881.687 9   3759288.371 8
  20064175.238    20064179.863    -2377574.382 7   -130088.778 7
  22356728.448    22356734.853    45047668.880 8 -43558078.755 9
 86  6 20  1 28 11.0800000  0  4G 6G13G 9G11
  21979599.907    21979604.392    43450345.565 8 -44873825.329 8
  20814289.153    20814294.835    -7446737.802 9   3755504.380 9
  20064536.246    20064538.184    -2375682.517 5   -128614.595 7
  22359613.664    22359620.735    45062836.172 8 -43546260.084 9
 86  6 20  1 28 17.0800000  0  4G 6G13G 9G11
  21983106.583    21983111.713    43468777.604 8 -44859462.719 8
  20813368.630    20813373.912    -7451575.864 8   3751734.477 8
  20064899.680    20064903.012    -2373764.554 7   -127120.088 7
  22362502.265    22362507.868    45078008.664 7 -43534437.374 9
 86  6 20  1 28 23.0800000  0  4G 6G13G 9G11
  21986617.706    21986621.986    43487226.841 9 -44845086.686 8
  20812451.374    20812457.198    -7456395.798 9   3747978.677 7
  20065270.162    20065272.704    -2371820.380 8   -125605.151 7
  22365389.623    22365396.833    45093186.312 8 -43522610.651 9
 86  6 20  1 28 29.0800000  0  4G 6G13G 9G11
  21990130.617    21990136.530    43505693.372 8 -44830697.193 8
  20811538.130    20811542.829    -7461197.640 8   3744236.989 9
  20065645.240    20065647.966    -2369849.988 8   -124069.771 8
  22368278.630    22368285.908    45108369.073 8 -43510779.925 8
 86  6 20  1 28 35.0800000  0  4G 6G13G 9G11
  21993648.932    21993654.371    43524176.966 8 -44816294.390 8
  20810627.553    20810631.304    -7465981.428 8   3740509.373 8
  20066024.907    20066027.533    -2367853.496 6   -122514.053 6
  22371170.664    22371175.171    45123556.900 8 -43498945.259 9
 86  6 20  1 28 41.0800000  0  4G 6G13G 9G11
  21997170.252    21997174.458    43542677.696 9 -44801878.245 9
  20809722.237    20809724.927    -7470747.288 8   3736795.729 8
  20066410.181    20066412.047    -2365830.784 7   -120937.927 7
  22374061.518    22374066.511    45138749.716 8 -43487106.707 9
 86  6 20  1 28 47.0800000  0  4G 6G13G 9G11
  22000693.779    22000696.739    43561195.383 9 -44787448.872 8
  20808816.953    20808822.171    -7475495.216 9   3733096.043 7
  20066798.441    20066803.193    -2363782.083 7   -119341.536 7
  22376953.588    22376958.553    45153947.473 8 -43475264.304 8
 86  6 20  1 28 53.0800000  0  4G 6G13G 9G11
  22004220.480    22004225.416    43579730.075 8 -44773006.266 8
  20807916.958    20807921.246    -7480225.319 8   3729410.256 8
  20067192.904    20067198.413    -2361707.319 7   -117724.849 7
  22379845.909    22379851.811    45169150.181 7 -43463418.043 8
 86  6 20  1 28 59.0800000  0  4G 6G13G 9G11
  22007750.299    22007755.124    43598281.717 9 -44758550.444 7
  20807020.260    20807025.349    -7484937.549 9   3725738.401 8
  20067593.402    20067597.573    -2359606.495 7   -116087.825 7
  22382739.669    22382745.702    45184357.731 8 -43451568.007 8
 86  6 20  1 29  5.0800000  0  4G 6G13G 9G11
  22011284.533    22011289.202    43616850.369 9 -44744081.362 8
  20806126.768    20806130.752    -7489631.834 8   3722080.521 9
  20067997.215    20068002.456    -2357479.576 6   -114430.498 7
  22385633.525    22385640.680    45199570.153 7 -43439714.172 9
 86  6 20  1 29 11.0800000  0  4G 6G13G 9G11
  22014821.134    22014825.412    43635436.014 9 -44729599.062 8
  20805235.954    20805242.309    -7494308.138 8   3718436.652 8
  20068408.521    20068412.137    -2355326.542 6   -112752.805 7
  22388529.741    22388536.239    45214787.532 8 -43427856.481 8
 86  6 20  1 29 17.0800000  0  4G 6G13G 9G11
  22018360.372    22018365.704    43654038.622 8 -44715103.529 8
  20804351.385    20804354.860    -7498966.498 8   3714806.769 7
  20068822.329    20068827.494    -2353147.329 5   -111054.732 6
  22391427.593    22391433.397    45230009.884 8 -43415994.925 8
 86  6 20  1 29 23.0800000  0  4G 6G13G 9G11
  22021903.729    22021908.512    43672658.198 9 -44700594.772 8
  20803467.288    20803471.626    -7503606.911 9   3711190.856 8
  20069243.131    20069246.869    -2350941.879 7   -109336.206 8
  22394324.187    22394330.968    45245237.103 8 -43404129.563 9
 86  6 20  1 29 29.0800000  0  4G 6G13G 9G11
  22025451.372    22025455.909    43691294.795 9 -44686072.765 8
  20802588.941    20802592.735    -7508229.320 9   3707589.003 8
  20069668.139    20069671.412    -2348710.388 7   -107597.380 7
  22397223.767    22397230.403    45260469.198 8 -43392260.403 8
 86  6 20  1 29 35.0800000  0  4G 6G13G 9G11
  22029000.398    22029006.391    43709948.308 9 -44671537.559 8
  20801711.251    20801716.836    -7512833.731 8   3704001.142 7
  20070097.979    20070101.967    -2346452.635 7   -105838.088 8
  22400121.942    22400129.159    45275706.174 7 -43380387.444 8
 86  6 20  1 29 41.0800000  0  4G 6G13G 9G11
  22032553.319    22032557.336    43728618.721 9 -44656989.188 8
  20800838.697    20800843.334    -7517420.265 8   3700427.243 9
  20070530.253    20070536.222    -2344168.699 7   -104058.399 7
  22403023.123    22403029.591    45290947.995 7 -43368510.706 8
 86  6 20  1 29 47.0800000  0  4G 6G13G 9G11
  22036108.174    22036112.992    43747305.981 8 -44642427.685 8
  20799969.638    20799974.072    -7521988.958 9   3696867.211 8
  20070970.752    20070974.656    -2341858.759 7   -102258.444 6
  22405923.813    22405931.127    45306194.531 8 -43356630.284 8
 86  6 20  1 29 53.0800000  0  4G 6G13G 9G11
  22039668.594    22039672.353    43766010.045 9 -44627853.101 8
  20799101.600    20799108.641    -7526539.830 8   3693321.099 9
  20071416.417    20071420.825    -2339522.671 7   -100438.135 7
  22408826.156    22408832.954    45321445.875 8 -43344746.137 8
 86  6 20  1 29 59.0800000  0  4G 6G13G 9G11
  22043230.663    22043234.671    43784730.969 8 -44613265.383 8
  20798241.858    20798245.185    -7531072.842 8   3689788.890 8
  20071866.235    20071869.294    -2337160.345 7    -98597.352 7
  22411729.549    22411736.248    45336701.969 8 -43332858.275 9
 86  6 20  1 30  5.0800000  0  4G 6G13G 9G11
  22046796.692    22046801.624    43803468.681 8 -44598664.569 8
  20797380.853    20797385.936    -7535587.928 8   3686270.648 9
  20072319.231    20072325.042    -2334771.965 8    -96736.261 7
  22414634.030    22414640.045    45351962.796 8 -43320966.738 8
 86  6 20  1 30 11.0800000  0  4G 6G13G 9G11
  22050365.634    22050369.396    43822223.198 9 -44584050.658 8
  20796525.995    20796530.087    -7540085.181 8   3682766.297 8
  20072779.623    20072783.031    -2332357.407 6    -94854.804 7
  22417538.218    22417544.705    45367228.275 8 -43309071.563 8
 86  6 20  1 30 17.0800000  0  4G 6G13G 9G11
  22053937.641    22053942.077    43840994.428 9 -44569423.747 8
  20795673.927    20795677.590    -7544564.650 8   3679275.815 8
  20073244.009    20073247.669    -2329916.714 7    -92952.971 7
  22420444.243    22420449.826    45382498.483 8 -43297172.710 8
 86  6 20  1 30 23.0800000  0  4G 6G13G 9G11
  22057511.900    22057517.353    43859782.378 8 -44554783.792 9
  20794824.471    20794829.427    -7549026.329 8   3675799.190 7
  20073713.908    20073716.314    -2327450.004 6    -91030.847 7
  22423351.227    22423357.025    45397773.337 8 -43285270.225 8
 86  6 20  1 30 29.0800000  0  4G 6G13G 9G11
  22061091.321    22061096.414    43878587.065 8 -44540130.805 9
  20793979.240    20793983.771    -7553470.225 8   3672336.409 8
  20074187.797    20074191.436    -2324957.092 7    -89088.318 7
  22426258.389    22426264.596    45413052.860 8 -43273364.109 9
 86  6 20  1 30 35.0800000  0  4G 6G13G 9G11
  22064671.651    22064677.045    43897408.429 9 -44525464.804 8
  20793136.777    20793140.943    -7557896.386 8   3668887.463 7
  20074667.941    20074671.661    -2322438.110 8    -87125.487 7
  22429168.868    22429173.000    45428337.025 8 -43261454.380 8
 86  6 20  1 30 41.0800000  0  4G 6G13G 9G11
  22068257.649    22068262.222    43916246.424 8 -44510785.847 8
  20792297.759    20792301.641    -7562304.759 8   3665452.380 9
  20075152.973    20075154.522    -2319893.043 6    -85142.307 7
  22432077.531    22432082.104    45443625.765 8 -43249541.083 7
 86  6 20  1 30 47.0800000  0  4G 6G13G 9G11
  22071845.046    22071849.715    43935101.168 8 -44496093.851 7
  20791462.142    20791467.358    -7566695.355 9   3662031.129 8
  20075641.561    20075644.104    -2317321.670 7    -83138.651 6
  22434987.675    22434992.749    45458919.114 8 -43237624.190 7
 86  6 20  1 30 53.0800000  0  4G 6G13G 9G11
  22075436.376    22075440.923    43953972.513 9 -44481388.898 8
  20790629.248    20790635.129    -7571068.169 9   3658623.763 7
  20076134.994    20076138.688    -2314724.148 7    -81114.598 7
  22437897.799    22437904.154    45474217.118 8 -43225703.673 7
 86  6 20  1 30 59.0800000  0  4G 6G13G 9G11
  22079030.215    22079035.288    43972860.514 8 -44466670.991 8
  20789801.672    20789805.225    -7575423.148 8   3655230.266 8
  20076633.448    20076637.066    -2312100.472 7    -79070.168 7
  22440809.911    22440816.104    45489519.701 7 -43213779.584 7
 86  6 20  1 31  5.0800000  0  4G 6G13G 9G11
  22082628.372    22082633.602    43991765.122 8 -44451940.135 8
  20788975.183    20788979.648    -7579760.327 8   3651850.662 8
  20077137.593    20077142.733    -2309450.648 7    -77005.365 6
  22443722.562    22443729.063    45504826.854 8 -43201851.931 8
 86  6 20  1 31 11.0800000  0  4G 6G13G 9G11
  22086228.316    22086234.300    44010686.347 8 -44437196.339 8
  20788154.226    20788157.694    -7584079.619 8   3648484.987 7
  20077647.571    20077651.029    -2306774.642 7    -74920.156 7
  22446636.976    22446642.443    45520138.598 9 -43189920.714 9
 86  6 20  1 31 17.0800000  0  4G 6G13G 9G11
  22089832.076    22089837.927    44029624.251 9 -44422439.533 8
  20787335.620    20787340.348    -7588381.128 8   3645133.155 8
  20078163.225    20078167.343    -2304072.390 7    -72814.524 7
  22449552.033    22449557.830    45535454.975 7 -43177985.874 8
 86  6 20  1 31 23.0800000  0  4G 6G13G 9G11
  22093439.581    22093445.398    44048578.741 9 -44407669.811 8
  20786519.538    20786524.889    -7592664.948 8   3641795.125 8
  20078681.215    20078686.054    -2301344.015 7    -70688.505 7
  22452467.203    22452472.592    45550775.858 8 -43166047.536 9
 86  6 20  1 31 29.0800000  0  4G 6G13G 9G11
  22097048.894    22097053.719    44067549.771 8 -44392887.201 8
  20785708.707    20785713.558    -7596931.024 9   3638470.909 8
  20079204.699    20079209.179    -2298589.284 7    -68541.968 7
  22455383.270    22455388.765    45566101.217 9 -43154105.698 8
 86  6 20  1 31 35.0800000  0  4G 6G13G 9G11
  22100662.436    22100667.629    44086537.367 8 -44378091.691 8
  20784899.433    20784903.560    -7601179.319 8   3635160.561 8
  20079734.605    20079738.960    -2295808.365 6    -66375.015 7
  22458301.028    22458307.076    45581431.048 7 -43142160.379 8
 86  6 20  1 31 41.0800000  0  4G 6G13G 9G11
  22104278.145    22104283.972    44105541.505 7 -44363283.274 8
  20784095.051    20784099.012    -7605409.833 8   3631864.058 8
  20080268.787    20080272.074    -2293001.283 7    -64187.679 6
  22461218.603    22461224.859    45596765.388 8 -43130211.536 9
 86  6 20  1 31 47.0800000  0  4G 6G13G 9G11
  22107898.122    22107902.900    44124562.175 8 -44348461.976 8
  20783293.219    20783296.971    -7609622.603 8   3628581.386 7
  20080808.506    20080812.942    -2290167.896 7    -61979.841 6
  22464136.750    22464143.852    45612104.277 8 -43118259.173 8
 86  6 20  1 31 53.0800000  0  4G 6G13G 9G11
  22111521.267    22111526.626    44143599.463 8 -44333627.745 8
  20782496.153    20782499.615    -7613817.603 9   3625312.564 7
  20081351.454    20081356.476    -2287308.292 7    -59751.579 7
  22467057.584    22467062.216    45627447.669 8 -43106303.274 7
 86  6 20  1 31 59.0800000  0  4G 6G13G 9G11
  22115147.869    22115151.613    44162653.234 8 -44318780.659 8
  20781700.359    20781704.558    -7617994.797 8   3622057.614 7
  20081900.618    20081905.825    -2284422.341 7    -57502.803 7
  22469976.865    22469983.826    45642795.586 8 -43094343.865 8
 86  6 20  1 32  5.0800000  0  4G 6G13G 9G11
  22118775.353    22118781.244    44181723.547 8 -44303920.684 9
  20780908.663    20780912.993    -7622154.190 9   3618816.533 7
  20082456.023    20082458.566    -2281510.084 7    -55233.496 7
  22472899.704    22472905.125    45658148.042 8 -43082380.910 8
 86  6 20  1 32 11.0800000  0  4G 6G13G 9G11
  22122407.365    22122412.392    44200810.291 7 -44289047.896 9
  20780120.840    20780124.963    -7626295.912 9   3615589.227 8
  20083014.527    20083018.087    -2278571.609 7    -52943.791 7
  22475822.109    22475827.814    45673504.936 9 -43070414.518 8
 86  6 20  1 32 17.0800000  0  4G 6G13G 9G11
  22126043.094    22126048.519    44219913.436 8 -44274162.335 8
  20779336.446    20779340.756    -7630419.893 8   3612375.734 8
  20083577.400    20083582.300    -2275606.980 7    -50633.688 7
  22478744.604    22478750.144    45688866.226 8 -43058444.688 8
 86  6 20  1 32 23.0800000  0  4G 6G13G 9G11
  22129681.395    22129685.191    44239032.946 8 -44259264.022 9
  20778555.396    20778557.631    -7634526.250 9   3609175.990 8
  20084148.761    20084152.550    -2272616.143 7    -48303.167 7
  22481668.475    22481673.700    45704231.824 7 -43046471.505 9
 86  6 20  1 32 29.0800000  0  4G 6G13G 9G11
  22133322.117    22133327.080    44258168.866 9 -44244352.920 8
  20777777.096    20777781.090    -7638615.010 8   3605989.947 8
  20084722.883    20084726.040    -2269598.986 7    -45952.129 7
  22484594.192    22484599.497    45719601.781 9 -43034494.916 7
 86  6 20  1 32 35.0800000  0  4G 6G13G 9G11
  22136967.998    22136972.710    44277321.119 8 -44229429.091 8
  20777000.929    20777006.493    -7642686.076 8   3602817.698 7
  20085300.974    20085305.127    -2266555.766 8    -43580.790 7
  22487518.841    22487524.970    45734976.063 8 -43022514.960 8
 86  6 20  1 32 41.0800000  0  4G 6G13G 9G11
  22140614.367    22140620.619    44296489.651 8 -44214492.582 8
  20776229.351    20776234.978    -7646739.477 8   3599659.195 8
  20085883.409    20085889.188    -2263486.264 6    -41188.978 6
  22490446.077    22490450.840    45750354.663 8 -43010531.641 7
 86  6 20  1 32 47.0800000  0  4G 6G13G 9G11
  22144266.120    22144270.646    44315674.501 8 -44199543.373 8
  20775462.374    20775467.248    -7650775.249 8   3596514.445 8
  20086473.187    20086478.231    -2260390.607 7    -38776.762 7
  22493372.811    22493378.137    45765737.525 8 -42998545.002 8
 86  6 20  1 32 53.0800000  0  4G 6G13G 9G11
  22147918.489    22147925.480    44334875.653 7 -44184581.446 8
  20774698.846    20774702.225    -7654793.453 8   3593383.386 9
  20087069.259    20087071.832    -2257268.702 6    -36344.120 7
  22496300.811    22496307.474    45781124.633 7 -42986555.051 8
 86  6 20  1 32 59.0800000  0  4G 6G13G 9G11
  22151576.209    22151581.735    44354093.052 8 -44169606.856 8
  20773936.566    20773940.726    -7658793.984 8   3590266.096 8
  20087666.576    20087671.690    -2254120.581 6    -33891.047 7
  22499229.907    22499235.523    45796515.997 8 -42974561.798 8
 86  6 20  1 33  5.0800000  0  4G 6G13G 9G11
  22155236.943    22155242.562    44373326.700 8 -44154619.605 9
  20773178.585    20773183.325    -7662776.879 8   3587162.545 8
  20088270.964    20088276.748    -2250946.216 7    -31417.513 7
  22502158.570    22502164.688    45811911.501 9 -42962565.296 8
 86  6 20  1 33 11.0800000  0  4G 6G13G 9G11
  22158900.159    22158904.083    44392576.545 9 -44139619.723 9
  20772423.861    20772429.161    -7666742.225 9   3584072.671 8
  20088881.394    20088885.066    -2247745.597 7    -28923.527 7
  22505089.470    22505095.309    45827311.247 8 -42950565.500 8
 86  6 20  1 33 17.0800000  0  4G 6G13G 9G11
  22162567.767    22162571.586    44411842.619 9 -44124607.212 8
  20771672.920    20771677.305    -7670689.929 9   3580996.550 9
  20089494.240    20089499.592    -2244518.821 8    -26409.143 7
  22508021.154    22508027.348    45842715.221 8 -42938562.407 9
 86  6 20  1 33 23.0800000  0  4G 6G13G 9G11
  22166235.843    22166240.329    44431124.891 8 -44109582.059 8
  20770924.892    20770929.529    -7674620.054 8   3577934.115 8
  20090114.157    20090118.690    -2241265.711 7    -23874.267 7
  22510952.580    22510958.357    45858123.385 8 -42926556.054 8
 86  6 20  1 33 29.0800000  0  4G 6G13G 9G11
  22169907.252    22169913.576    44450423.327 9 -44094544.324 9
  20770180.143    20770184.999    -7678532.559 9   3574885.421 9
  20090738.939    20090741.670    -2237986.401 7    -21318.957 7
  22513884.894    22513891.607    45873535.683 9 -42914546.471 8
 86  6 20  1 33 35.0800000  0  4G 6G13G 9G11
  22173583.050    22173588.701    44469737.946 8 -44079493.985 8
  20769439.385    20769444.218    -7682427.439 8   3571850.442 9
  20091366.363    20091370.340    -2234680.897 7    -18743.238 6
  22516819.938    22516824.717    45888952.191 8 -42902533.614 8
 86  6 20  1 33 41.0800000  0  4G 6G13G 9G11
  22177261.824    22177267.459    44489068.771 8 -44064431.013 9
  20768701.348    20768705.858    -7686304.699 8   3568829.214 9
  20092000.864    20092004.821    -2231349.098 7    -16147.031 7
  22519754.589    22519760.587    45904372.964 8 -42890517.429 9
 86  6 20  1 33 47.0800000  0  4G 6G13G 9G11
  22180942.439    22180949.273    44508415.865 9 -44049355.373 8
  20767966.941    20767970.906    -7690164.302 8   3565821.722 8
  20092637.506    20092644.568    -2227990.864 7    -13530.244 8
  22522689.108    22522695.399    45919797.940 9 -42878497.966 9
 86  6 20  1 33 53.0800000  0  4G 6G13G 9G11
  22184626.752    22184633.107    44527779.041 7 -44034267.192 9
  20767235.996    20767240.982    -7694006.322 8   3562827.958 8
  20093284.459    20093287.583    -2224606.430 7    -10893.011 7
  22525625.222    22525631.089    45935227.070 8 -42866475.281 8
 86  6 20  1 33 59.0800000  0  4G 6G13G 9G11
  22188315.270    22188320.185    44547158.281 8 -44019166.491 8
  20766507.702    20766511.974    -7697830.793 8   3559847.867 8
  20093934.069    20093938.079    -2221195.696 7     -8235.306 6
  22528562.308    22528567.924    45950660.258 8 -42854449.416 8
 86  6 20  1 34  5.0800000  0  4G 6G13G 9G11
  22192006.754    22192012.853    44566553.539 8 -44004053.310 8
  20765783.493    20765787.574    -7701637.799 8   3556881.368 8
  20094587.051    20094590.594    -2217758.849 7     -5557.234 7
  22531499.311    22531504.783    45966097.476 9 -42842420.426 8
 86  6 20  1 34 11.0800000  0  4G 6G13G 9G11
  22195700.095    22195704.874    44585964.792 8 -43988927.652 7
  20765062.390    20765067.054    -7705427.368 9   3553928.472 8
  20095246.825    20095250.999    -2214295.744 7     -2858.713 7
  22534438.257    22534443.552    45981538.692 8 -42830388.310 8
 86  6 20  1 34 17.0800000  0  4G 6G13G 9G11
  22199397.738    22199402.931    44605391.957 8 -43973789.623 9
  20764345.164    20764348.823    -7709199.541 8   3550989.118 9
  20095910.059    20095915.479    -2210806.482 6      -139.801 7
  22537377.686    22537383.429    45996983.855 8 -42818353.116 8
 86  6 20  1 34 23.0800000  0  4G 6G13G 9G11
  22203097.174    22203103.441    44624835.165 7 -43958639.078 8
  20763630.303    20763634.453    -7712954.298 9   3548063.340 9
  20096579.096    20096583.500    -2207290.943 7      2599.579 7
  22540318.550    22540323.653    46012433.083 8 -42806314.760 8
 86  6 20  1 34 29.0800000  0  4G 6G13G 9G11
  22206799.912    22206804.733    44644294.350 9 -43943476.078 8
  20762918.814    20762923.505    -7716691.498 8   3545151.239 7
  20097253.288    20097255.900    -2203749.188 8      5359.389 7
  22543257.951    22543264.372    46027886.342 7 -42794273.259 8
 86  6 20  1 34 35.0800000  0  4G 6G13G 9G11
  22210505.864    22210511.519    44663769.524 8 -43928300.629 9
  20762210.894    20762215.910    -7720411.123 8   3542252.841 8
  20097931.342    20097936.181    -2200181.127 7      8139.689 8
  22546199.252    22546205.328    46043343.624 8 -42782228.637 8
 86  6 20  1 34 41.0800000  0  4G 6G13G 9G11
  22214215.207    22214220.366    44683260.683 8 -43913112.720 8
  20761506.101    20761510.147    -7724113.211 8   3539368.096 8
  20098615.789    20098619.188    -2196586.758 6     10940.503 7
  22549141.551    22549147.768    46058804.867 8 -42770180.926 8
 86  6 20  1 34 47.0800000  0  4G 6G13G 9G11
  22217927.059    22217932.457    44702767.796 8 -43897912.395 9
  20760805.557    20760809.487    -7727797.828 8   3536496.967 7
  20099304.515    20099309.707    -2192966.147 7     13761.757 7
  22552085.173    22552091.214    46074270.120 8 -42758130.073 8
 86  6 20  1 34 53.0800000  0  4G 6G13G 9G11
  22221642.234    22221648.277    44722290.877 8 -43882699.600 7
  20760108.018    20760113.026    -7731464.977 8   3533639.459 9
  20099998.460    20100004.451    -2189319.298 7     16603.447 7
  22555027.617    22555034.197    46089739.359 9 -42746076.110 8
 86  6 20  1 34 59.0800000  0  4G 6G13G 9G11
  22225361.097    22225366.911    44741829.868 8 -43867474.424 9
  20759413.486    20759417.725    -7735114.600 9   3530795.604 9
  20100696.713    20100702.411    -2185646.112 6     19465.677 7
  22557972.311    22557977.942    46105212.586 8 -42734019.062 9
 86  6 20  1 35  5.0800000  0  4G 6G13G 9G11
  22229081.126    22229086.080    44761384.772 8 -43852236.843 9
  20758722.256    20758726.510    -7738746.718 8   3527965.389 8
  20101399.495    20101404.799    -2181946.712 7     22348.326 8
  22560917.665    22560924.511    46120689.721 9 -42721958.956 8
 86  6 20  1 35 11.0800000  0  4G 6G13G 9G11
  22232807.153    22232811.793    44780955.637 8 -43836986.828 8
  20758034.022    20758037.929    -7742361.276 8   3525148.857 9
  20102111.782    20102115.785    -2178220.821 7     25251.620 7
  22563863.782    22563869.457    46136170.873 8 -42709895.721 8
 86  6 20  1 35 17.0800000  0  4G 6G13G 9G11
  22236533.204    22236537.802    44800542.400 8 -43821724.413 8
  20757349.325    20757353.911    -7745958.257 8   3522346.016 8
  20102824.756    20102828.812    -2174468.572 7     28175.462 7
  22566810.329    22566816.775    46151656.011 8 -42697829.380 9
 86  6 20  1 35 23.0800000  0  4G 6G13G 9G11
  22240264.037    22240269.238    44820145.066 7 -43806449.627 8
  20756668.509    20756673.256    -7749537.717 8   3519556.831 8
  20103543.058    20103548.477    -2170690.030 6     31119.765 7
  22569758.752    22569764.497    46167145.055 9 -42685759.998 8
 86  6 20  1 35 29.0800000  0  4G 6G13G 9G11
  22243997.108    22244002.029    44839763.546 8 -43791162.499 8
  20755990.524    20755995.093    -7753099.755 8   3516781.227 8
  20104267.820    20104271.408    -2166885.134 7     34084.621 6
  22572706.458    22572711.487    46182637.967 8 -42673687.605 9
 86  6 20  1 35 35.0800000  0  4G 6G13G 9G11
  22247733.500    22247739.037    44859397.855 9 -43775863.053 9
  20755316.400    20755320.356    -7756644.408 8   3514019.163 9
  20104996.440    20105002.123    -2163053.932 6     37069.978 7
  22575653.800    22575660.996    46198134.772 8 -42661612.176 9
 86  6 20  1 35 41.0800000  0  4G 6G13G 9G11
  22251472.522    22251477.380    44879047.933 8 -43760551.303 8
  20754644.701    20754649.611    -7760171.692 8   3511270.638 8
  20105730.841    20105735.540    -2159196.496 6     40075.774 8
  22578603.820    22578610.018    46213635.438 8 -42649533.730 9
 86  6 20  1 35 47.0800000  0  4G 6G13G 9G11
  22255215.849    22255219.968    44898713.754 8 -43745227.293 8
  20753977.005    20753982.093    -7763681.565 8   3508535.663 8
  20106470.462    20106474.798    -2155312.855 7     43101.990 8
  22581554.514    22581560.328    46229139.950 8 -42637452.308 8
 86  6 20  1 35 53.0800000  0  4G 6G13G 9G11
  22258959.042    22258965.466    44918395.291 7 -43729891.038 8
  20753312.986    20753316.466    -7767174.054 8   3505814.263 8
  20107213.214    20107217.300    -2151402.964 7     46148.655 7
  22584505.884    22584511.935    46244648.245 8 -42625367.910 9
 86  6 20  1 35 59.0800000  0  4G 6G13G 9G11
  22262707.922    22262713.920    44938092.527 8 -43714542.547 7
  20752651.022    20752656.283    -7770649.121 9   3503106.417 8
  20107962.658    20107966.382    -2147466.698 7     49215.856 6
  22587458.395    22587465.233    46260160.311 8 -42613280.592 8
 86  6 20  1 36  5.0800000  0  4G 6G13G 9G11
  22266459.773    22266464.780    44957805.479 9 -43699181.799 9
  20751991.488    20751997.901    -7774106.809 8   3500412.112 9
  20108716.719    20108720.831    -2143504.184 7     52303.551 6
  22590410.803    22590416.668    46275676.225 8 -42601190.280 8
 86  6 20  1 36 11.0800000  0  4G 6G13G 9G11
  22270213.756    22270218.129    44977534.130 8 -43683808.851 8
  20751337.912    20751342.243    -7777547.194 9   3497731.299 8
  20109475.052    20109479.176    -2139515.306 7     55411.760 6
  22593363.922    22593369.999    46291195.933 8 -42589096.993 8
 86  6 20  1 36 17.0800000  0  4G 6G13G 9G11
  22273970.524    22273976.847    44997278.412 9 -43668423.694 8
  20750686.031    20750690.574    -7780970.233 8   3495064.001 8
  20110239.823    20110243.291    -2135500.202 6     58540.412 7
  22596317.418    22596324.120    46306719.362 8 -42577000.819 8
 86  6 20  1 36 23.0800000  0  4G 6G13G 9G11
  22277731.099    22277737.111    45017038.313 8 -43653026.390 8
  20750039.178    20750043.536    -7784375.885 9   3492410.252 8
  20111009.832    20111012.995    -2131458.835 7     61689.533 6
  22599273.481    22599278.956    46322246.489 8 -42564901.762 9
 86  6 20  1 36 29.0800000  0  4G 6G13G 9G11
  22281494.365    22281499.600    45036813.738 7 -43637616.969 9
  20749393.808    20749397.837    -7787764.214 9   3489770.004 8
  20111782.609    20111788.089    -2127391.276 6     64859.061 7
  22602228.429    22602234.184    46337777.258 8 -42552799.868 8
 86  6 20  1 36 35.0800000  0  4G 6G13G 9G11
  22285260.258    22285266.237    45056604.742 9 -43622195.431 7
  20748753.071    20748756.899    -7791135.294 8   3487143.187 8
  20112561.660    20112566.604    -2123297.442 7     68049.058 7
  22605184.698    22605190.639    46353311.665 7 -42540695.136 8
 86  6 20  1 36 41.0800000  0  4G 6G13G 9G11
  22289029.351    22289034.897    45076411.288 8 -43606761.753 8
  20748113.743    20748118.102    -7794489.117 8   3484529.830 8
  20113345.463    20113350.732    -2119177.332 7     71259.534 7
  22608141.455    22608147.086    46368849.693 7 -42528587.591 8
 86  6 20  1 36 47.0800000  0  4G 6G13G 9G11
  22292801.731    22292805.417    45096233.313 8 -43591316.015 8
  20747479.373    20747482.620    -7797825.658 8   3481929.936 8
  20114134.648    20114140.949    -2115030.978 7     74490.460 7
  22611098.749    22611105.331    46384391.350 8 -42516477.205 8
 86  6 20  1 36 53.0800000  0  4G 6G13G 9G11
  22296576.209    22296581.154    45116070.889 8 -43575858.179 8
  20746846.964    20746851.230    -7801144.898 8   3479343.511 8
  20114930.926    20114932.910    -2110858.384 8     77741.831 7
  22614057.021    22614063.139    46399936.601 8 -42504364.021 8
 86  6 20  1 36 59.0800000  0  4G 6G13G 9G11
  22300354.890    22300358.209    45135923.845 8 -43560388.351 8
  20746219.324    20746224.094    -7804446.972 8   3476770.482 8
  20115728.409    20115733.835    -2106659.595 7     81013.592 8
  22617014.678    22617020.849    46415485.430 8 -42492248.067 8
 86  6 20  1 37  5.0800000  0  4G 6G13G 9G11
  22304135.565    22304140.215    45155792.236 9 -43544906.484 8
  20745594.314    20745599.377    -7807731.856 9   3474210.841 8
  20116532.181    20116537.773    -2102434.643 7     84305.784 7
  22619974.352    22619980.943    46431037.767 8 -42480129.353 9
 86  6 20  1 37 11.0800000  0  4G 6G13G 9G11
  22307919.077    22307923.812    45175676.109 9 -43529412.575 8
  20744971.510    20744977.275    -7810999.461 8   3471664.675 8
  20117341.024    20117345.653    -2098183.328 7     87618.484 7
  22622935.523    22622941.016    46446593.669 7 -42468007.872 9
 86  6 20  1 37 17.0800000  0  4G 6G13G 9G11
  22311705.632    22311710.234    45195575.352 8 -43513906.684 8
  20744353.998    20744357.323    -7814249.862 8   3469131.900 8
  20118154.302    20118160.121    -2093905.831 6     90951.610 8
  22625896.586    22625901.420    46462153.077 8 -42455883.662 8
 86  6 20  1 37 23.0800000  0  4G 6G13G 9G11
  22315495.527    22315501.053    45215489.974 8 -43498388.796 8
  20743737.951    20743744.092    -7817483.084 8   3466612.507 8
  20118975.770    20118979.530    -2089602.096 6     94305.162 7
  22628858.288    22628863.922    46477716.049 8 -42443756.684 8
 86  6 20  1 37 29.0800000  0  4G 6G13G 9G11
  22319287.633    22319293.715    45235420.022 9 -43482858.891 8
  20743126.371    20743131.163    -7820699.118 9   3464106.511 8
  20119798.717    20119803.034    -2085272.081 7     97679.207 7
  22631820.564    22631826.718    46493282.555 7 -42431626.936 7
 86  6 20  1 37 35.0800000  0  4G 6G13G 9G11
  22323083.672    22323088.969    45255365.463 8 -43467316.996 9
  20742517.226    20742522.540    -7823897.940 9   3461613.929 7
  20120627.455    20120632.868    -2080915.768 6    101073.718 7
  22634783.514    22634788.246    46508852.577 8 -42419494.445 8
 86  6 20  1 37 41.0800000  0  4G 6G13G 9G11
  22326881.265    22326886.526    45275326.307 8 -43451763.111 8
  20741912.827    20741917.285    -7827079.478 8   3459134.816 8
  20121462.278    20121466.629    -2076533.210 6    104488.712 8
  22637746.307    22637751.594    46524426.142 8 -42407359.202 8
 86  6 20  1 37 47.0800000  0  4G 6G13G 9G11
  22330683.246    22330688.724    45295302.585 8 -43436197.187 8
  20741310.696    20741314.748    -7830243.719 9   3456669.183 7
  20122300.049    20122305.014    -2072124.278 7    107924.242 7
  22640710.759    22640716.675    46540003.199 8 -42395221.230 8
 86  6 20  1 37 53.0800000  0  4G 6G13G 9G11
  22334487.297    22334492.986    45315294.233 9 -43420619.287 9
  20740710.321    20740715.537    -7833390.731 8   3454216.971 9
  20123144.295    20123148.470    -2067689.016 8    111380.282 7
  22643676.816    22643682.072    46555583.805 7 -42383080.498 8
 86  6 20  1 37 59.0800000  0  4G 6G13G 9G11
  22338294.673    22338299.603    45335301.329 8 -43405029.367 8
  20740116.193    20740120.491    -7836520.416 8   3451778.254 8
  20123993.122    20123997.352    -2063227.323 7    114856.938 6
  22646641.576    22646647.545    46571167.944 9 -42370937.025 9
 86  6 20  1 38  5.0800000  0  4G 6G13G 9G11
  22342104.133    22342109.386    45355323.785 9 -43389427.447 7
  20739524.777    20739528.898    -7839632.729 8   3449353.079 8
  20124846.314    20124851.277    -2058739.177 8    118354.195 8
  22649607.906    22649612.864    46586755.650 9 -42358790.761 8
 86  6 20  1 38 11.0800000  0  4G 6G13G 9G11
  22345918.224    22345922.968    45375361.593 8 -43373813.580 9
  20738934.681    20738938.794    -7842727.802 9   3446941.330 8
  20125706.711    20125710.447    -2054224.780 6    121871.897 7
  22652574.672    22652580.406    46602346.852 8 -42346641.771 8
 86  6 20  1 38 17.0800000  0  4G 6G13G 9G11
  22349736.020    22349739.095    45395414.646 9 -43358187.829 9
  20738348.493    20738354.521    -7845805.710 8   3444542.978 8
  20126572.186    20126574.081    -2049684.050 7    125410.136 8
  22655542.867    22655547.691    46617941.571 8 -42334490.056 9
 86  6 20  1 38 23.0800000  0  4G 6G13G 9G11
  22353552.330    22353559.688    45415483.000 9 -43342550.160 8
  20737766.067    20737770.546    -7848866.430 8   3442158.014 9
  20127438.781    20127443.814    -2045117.013 8    128968.872 7
  22658509.843    22658516.468    46633539.709 7 -42322335.654 9
 86  6 20  1 38 29.0800000  0  4G 6G13G 9G11
  22357373.609    22357379.288    45435566.568 9 -43326900.620 9
  20737187.505    20737192.197    -7851909.984 8   3439786.417 9
  20128313.991    20128318.635    -2040523.735 6    132548.037 7
  22661478.773    22661485.217    46649141.229 7 -42310178.630 9
 86  6 20  1 38 35.0800000  0  4G 6G13G 9G11
  22361199.223    22361204.383    45455665.353 9 -43311239.242 8
  20736610.767    20736615.851    -7854936.428 8   3437428.152 8
  20129193.141    20129197.727    -2035904.063 8    136147.785 8
  22664448.613    22664454.378    46664746.121 8 -42298018.977 8
 86  6 20  1 38 41.0800000  0  4G 6G13G 9G11
  22365026.226    22365031.939    45475779.286 8 -43295566.045 9
  20736038.773    20736043.557    -7857945.742 9   3435083.236 8
  20130076.195    20130080.665    -2031258.189 7    139767.959 6
  22667418.482    22667423.969    46680354.337 8 -42285856.741 8
 86  6 20  1 38 47.0800000  0  4G 6G13G 9G11
  22368857.227    22368862.768    45495908.327 8 -43279881.100 9
  20735469.330    20735474.173    -7860938.028 8   3432751.585 7
  20130966.799    20130971.064    -2026586.090 7    143408.560 7
  22670389.900    22670395.899    46695965.816 8 -42273691.942 9
 86  6 20  1 38 53.0800000  0  4G 6G13G 9G11
  22372690.211    22372696.429    45516052.399 8 -43264184.430 8
  20734902.556    20734908.381    -7863913.336 8   3430433.177 8
  20131859.159    20131863.661    -2021887.911 7    147069.478 7
  22673360.282    22673366.417    46711580.565 7 -42261524.619 8
 86  6 20  1 38 59.0800000  0  4G 6G13G 9G11
  22376526.248    22376531.894    45536211.455 8 -43248476.081 8
  20734340.668    20734344.595    -7866871.648 9   3428127.984 8
  20132757.823    20132763.761    -2017163.426 6    150750.874 7
  22676333.640    22676338.330    46727198.473 8 -42249354.822 8
 86  6 20  1 39  5.0800000  0  4G 6G13G 9G11
  22380365.188    22380371.241    45556385.596 8 -43232755.990 7
  20733780.370    20733784.740    -7869812.972 9   3425836.062 8
  20133663.026    20133668.263    -2012412.771 8    154452.708 7
  22679306.387    22679312.119    46742819.616 7 -42237182.505 8
 86  6 20  1 39 11.0800000  0  4G 6G13G 9G11
  22384206.635    22384213.334    45576574.796 8 -43217024.137 8
  20733224.286    20733227.424    -7872737.142 8   3423557.499 8
  20134572.433    20134576.808    -2007635.853 7    158174.956 7
  22682277.879    22682284.887    46758444.045 9 -42225007.629 9
 86  6 20  1 39 17.0800000  0  4G 6G13G 9G11
  22388051.786    22388057.414    45596778.992 8 -43201280.626 9
  20732670.864    20732675.400    -7875644.236 8   3421292.225 8
  20135484.643    20135490.473    -2002832.601 8    161917.754 7
  22685252.944    22685258.210    46774071.727 8 -42212830.215 8
 86  6 20  1 39 23.0800000  0  4G 6G13G 9G11
  22391899.949    22391904.906    45616998.220 8 -43185525.388 8
  20732120.777    20732126.276    -7878534.285 9   3419040.245 8
  20136406.388    20136409.017    -1998003.190 6    165680.933 7
  22688226.222    22688232.629    46789702.674 8 -42200650.257 9
 86  6 20  1 39 29.0800000  0  4G 6G13G 9G11
  22395750.455    22395756.054    45637232.477 8 -43169758.439 9
  20731574.342    20731579.281    -7881407.330 9   3416801.512 8
  20137329.158    20137333.162    -1993147.433 7    169464.638 7
  22691201.163    22691207.711    46805336.892 7 -42188467.757 9
 86  6 20  1 39 35.0800000  0  4G 6G13G 9G11
  22399603.824    22399608.947    45657481.703 9 -43153979.830 8
  20731030.481    20731035.292    -7884263.365 8   3414576.045 9
  20138257.256    20138262.841    -1988265.463 7    173268.764 7
  22694179.022    22694184.190    46820974.356 9 -42176282.722 9
 86  6 20  1 39 41.0800000  0  4G 6G13G 9G11
  22403460.935    22403465.322    45677745.932 8 -43138189.542 9
  20730489.414    20730494.840    -7887102.367 8   3412363.835 8
  20139192.048    20139197.382    -1983357.240 6    177093.374 7
  22697153.527    22697159.799    46836614.985 7 -42164095.227 8
 86  6 20  1 39 47.0800000  0  4G 6G13G 9G11
  22407318.378    22407324.548    45698025.095 8 -43122387.598 9
  20729953.428    20729957.889    -7889924.367 8   3410164.870 8
  20140130.508    20140135.592    -1978422.711 7    180938.454 8
  22700131.019    22700136.892    46852258.785 8 -42151905.253 9
 86  6 20  1 39 53.0800000  0  4G 6G13G 9G11
  22411181.174    22411186.780    45718319.262 9 -43106573.965 8
  20729419.651    20729423.785    -7892729.297 8   3407979.217 8
  20141074.460    20141079.373    -1973461.848 7    184804.051 7
  22703108.888    22703114.324    46867905.808 8 -42139712.777 8
 86  6 20  1 39 59.0800000  0  4G 6G13G 9G11
  22415045.395    22415051.121    45738628.434 7 -43090748.658 9
  20728887.708    20728893.217    -7895517.233 8   3405806.802 8
  20142023.249    20142028.978    -1968474.684 7    188690.157 7
  22706086.183    22706092.497    46883555.965 7 -42127517.845 9
 86  6 20  1 40  5.0800000  0  4G 6G13G 9G11
  22418914.013    22418918.523    45758952.503 8 -43074911.715 9
  20728361.775    20728367.780    -7898288.093 8   3403647.699 9
  20142977.522    20142982.681    -1963461.151 7    192596.804 7
  22709065.231    22709070.697    46899209.366 8 -42115320.397 9
 86  6 20  1 40 11.0800000  0  4G 6G13G 9G11
  22422783.605    22422789.093    45779291.531 8 -43059063.126 8
  20727837.341    20727842.313    -7901041.858 8   3401501.916 8
  20143935.895    20143941.496    -1958421.275 7    196523.980 7
  22712044.010    22712049.973    46914865.929 8 -42103120.473 9
 86  6 20  1 40 17.0800000  0  4G 6G13G 9G11
  22426656.396    22426661.218    45799645.455 8 -43043202.941 8
  20727317.196    20727321.886    -7903778.642 8   3399369.355 8
  20144901.912    20144905.455    -1953355.163 7    200471.602 6
  22715024.936    22715030.929    46930525.645 8 -42090918.104 9
 86  6 20  1 40 23.0800000  0  4G 6G13G 9G11
  22430531.760    22430537.617    45820014.219 8 -43027331.203 8
  20726799.193    20726804.816    -7906498.421 8   3397250.053 8
  20145870.847    20145874.540    -1948262.707 7    204439.747 7
  22718006.152    22718010.614    46946188.455 8 -42078713.318 9
 86  6 20  1 40 29.0800000  0  4G 6G13G 9G11
  22434410.859    22434417.181    45840397.806 8 -43011447.893 7
  20726284.619    20726289.759    -7909201.250 9   3395143.958 8
  20146843.962    20146850.783    -1943144.017 7    208428.334 7
  22720985.544    22720992.687    46961854.353 9 -42066506.132 8
 86  6 20  1 40 35.0800000  0  4G 6G13G 9G11
  22438293.186    22438299.570    45860796.240 8 -42995553.010 9
  20725774.411    20725778.493    -7911887.139 8   3393051.049 8
  20147823.166    20147827.352    -1937999.026 8    212437.426 8
  22723968.393    22723973.946    46977523.366 8 -42054296.508 8
 86  6 20  1 40 41.0800000  0  4G 6G13G 9G11
  22442177.204    22442182.418    45881209.495 8 -42979646.594 8
  20725266.044    20725271.581    -7914556.070 8   3390971.372 7
  20148808.589    20148810.249    -1932827.720 7    216467.006 7
  22726950.143    22726956.852    46993195.487 9 -42042084.476 9
 86  6 20  1 40 47.0800000  0  4G 6G13G 9G11
  22446064.798    22446071.064    45901637.481 8 -42963728.697 8
  20724761.820    20724766.049    -7917207.986 8   3388904.952 8
  20149796.380    20149801.449    -1927630.202 6    220517.035 7
  22729934.077    22729939.149    47008870.695 7 -42029870.030 8
 86  6 20  1 40 53.0800000  0  4G 6G13G 9G11
  22449954.209    22449960.827    45922080.318 8 -42947799.220 9
  20724259.952    20724265.380    -7919842.929 8   3386851.756 9
  20150791.813    20150795.109    -1922406.311 7    224587.588 7
  22732917.053    22732922.914    47024549.014 8 -42017653.167 9
 86  6 20  1 40 59.0800000  0  4G 6G13G 9G11
  22453849.056    22453854.340    45942537.957 8 -42931858.219 8
  20723762.216    20723766.952    -7922460.806 8   3384811.861 8
  20151788.992    20151794.120    -1917156.103 7    228678.664 6
  22735900.175    22735906.843    47040230.451 8 -42005433.875 8
 86  6 20  1 41  5.0800000  0  4G 6G13G 9G11
  22457744.595    22457748.309    45963010.349 8 -42915905.707 8
  20723266.907    20723272.208    -7925061.782 8   3382785.124 9
  20152794.214    20152799.354    -1911879.552 7    232790.254 7
  22738885.714    22738892.153    47055914.921 9 -41993212.210 8
 86  6 20  1 41 11.0800000  0  4G 6G13G 9G11
  22461642.433    22461647.306    45983497.328 9 -42899941.842 8
  20722775.019    20722780.369    -7927645.921 8   3380771.498 8
  20153803.239    20153807.573    -1906576.829 7    236922.259 7
  22741871.423    22741876.703    47071602.331 8 -41980988.247 8
 86  6 20  1 41 17.0800000  0  4G 6G13G 9G11
  22465544.188    22465549.203    46003998.984 7 -42883966.536 8
  20722286.863    20722291.933    -7930213.216 8   3378771.019 8
  20154815.732    20154821.592    -1901247.900 7    241074.666 8
  22744856.836    22744862.132    47087292.689 8 -41968762.006 8
 86  6 20  1 41 23.0800000  0  4G 6G13G 9G11
  22469448.603    22469452.427    46024515.175 8 -42867979.901 8
  20721801.726    20721805.535    -7932763.666 8   3376783.671 9
  20155835.578    20155841.525    -1895892.697 7    245247.559 8
  22747842.986    22747848.825    47102985.920 8 -41956533.520 8
 86  6 20  1 41 29.0800000  0  4G 6G13G 9G11
  22473354.797    22473359.963    46045045.910 8 -42851981.937 8
  20721319.728    20721325.004    -7935297.279 8   3374809.422 8
  20156859.534    20156863.651    -1890511.347 7    249440.802 8
  22750829.962    22750835.725    47118681.990 8 -41944302.816 8
 86  6 20  1 41 35.0800000  0  4G 6G13G 9G11
  22477264.641    22477269.442    46065591.168 8 -42835972.653 8
  20720840.154    20720845.181    -7937814.167 8   3372848.208 8
  20157889.960    20157892.873    -1885103.918 7    253654.396 8
  22753817.802    22753822.830    47134380.937 8 -41932069.873 9
 86  6 20  1 41 41.0800000  0  4G 6G13G 9G11
  22481177.183    22481182.396    46086150.930 8 -42819952.063 9
  20720364.816    20720369.431    -7940314.328 9   3370900.038 8
  20158922.559    20158927.131    -1879670.257 7    257888.408 7
  22756805.389    22756811.579    47150082.738 8 -41919834.709 8
 86  6 20  1 41 47.0800000  0  4G 6G13G 9G11
  22485092.604    22485097.715    46106725.213 9 -42803920.162 7
  20719891.423    20719895.740    -7942797.727 9   3368964.921 8
  20159961.924    20159965.780    -1874210.406 6    262142.844 8
  22759793.905    22759800.479    47165787.330 8 -41907597.382 9
 86  6 20  1 41 53.0800000  0  4G 6G13G 9G11
  22489010.078    22489016.363    46127313.978 9 -42787876.984 8
  20719422.844    20719427.018    -7945264.296 8   3367042.916 8
  20161006.440    20161009.824    -1868724.248 8    266417.755 7
  22762783.207    22762788.680    47181494.782 8 -41895357.803 7
 86  6 20  1 41 59.0800000  0  4G 6G13G 9G11
  22492930.664    22492936.090    46147917.319 9 -42771822.439 8
  20718956.037    20718960.943    -7947713.922 8   3365134.123 8
  20162055.103    20162059.108    -1863211.793 8    270713.190 7
  22765772.249    22765777.993    47197205.186 8 -41883115.932 8
 86  6 20  1 42  5.0800000  0  4G 6G13G 9G11
  22496853.995    22496858.755    46168535.209 9 -42755756.559 8
  20718493.491    20718498.235    -7950146.733 8   3363238.431 7
  20163108.835    20163112.760    -1857673.094 7    275029.049 7
  22768761.862    22768768.876    47212918.491 7 -41870871.799 8
 86  6 20  1 42 11.0800000  0  4G 6G13G 9G11
  22500779.767    22500785.655    46189167.649 8 -42739679.349 9
  20718033.427    20718038.339    -7952562.756 8   3361355.824 7
  20164167.945    20164172.118    -1852108.041 7    279365.448 7
  22771753.058    22771759.751    47228634.656 8 -41858625.453 9
 86  6 20  1 42 17.0800000  0  4G 6G13G 9G11
  22504709.785    22504714.768    46209814.614 8 -42723590.807 8
  20717577.099    20717581.899    -7954961.990 7   3359486.300 8
  20165231.233    20165236.315    -1846516.768 7    283722.309 7
  22774744.926    22774750.956    47244353.701 8 -41846376.844 8
 86  6 20  1 42 23.0800000  0  4G 6G13G 9G11
  22508640.106    22508646.019    46230476.056 9 -42707490.998 9
  20717123.477    20717128.813    -7957344.341 8   3357629.910 7
  20166300.647    20166305.266    -1840899.165 8    288099.633 8
  22777736.383    22777741.246    47260075.629 9 -41834125.993 8
 86  6 20  1 42 29.0800000  0  4G 6G13G 9G11
  22512575.033    22512581.275    46251151.903 9 -42691379.965 9
  20716673.757    20716678.400    -7959709.903 8   3355786.630 8
  20167374.612    20167378.922    -1835255.378 8    292497.398 7
  22780729.144    22780734.296    47275800.329 8 -41821872.985 8
 86  6 20  1 42 35.0800000  0  4G 6G13G 9G11
  22516512.703    22516518.058    46271842.129 8 -42675257.722 8
  20716226.538    20716231.088    -7962058.709 8   3353956.390 8
  20168454.463    20168458.934    -1829585.315 7    296915.627 7
  22783721.609    22783727.149    47291527.795 9 -41809617.824 9
 86  6 20  1 42 41.0800000  0  4G 6G13G 9G11
  22520452.754    22520458.608    46292546.673 8 -42659124.319 9
  20715783.398    20715787.097    -7964390.851 8   3352139.138 9
  20169538.332    20169542.177    -1823889.164 7    301354.174 7
  22786715.822    22786719.995    47307257.907 8 -41797360.587 8
 86  6 20  1 42 47.0800000  0  4G 6G13G 9G11
  22524395.389    22524401.107    46313265.433 8 -42642979.848 8
  20715342.701    20715347.697    -7966706.384 8   3350334.829 8
  20170626.954    20170631.489    -1818166.928 6    305813.062 7
  22789707.968    22789714.770    47322990.635 8 -41785101.326 8
 86  6 20  1 42 53.0800000  0  4G 6G13G 9G11
  22528340.710    22528346.560    46333998.404 8 -42626824.292 8
  20714903.221    20714909.933    -7969005.320 9   3348543.458 7
  20171719.658    20171724.931    -1812418.565 7    310292.295 8
  22792703.726    22792708.465    47338725.970 7 -41772840.036 8
 86  6 20  1 42 59.0800000  0  4G 6G13G 9G11
  22532290.395    22532294.237    46354745.595 8 -42610657.664 9
  20714470.532    20714474.416    -7971287.602 8   3346765.062 8
  20172819.805    20172823.607    -1806644.027 7    314791.936 8
  22795698.518    22795703.473    47354463.957 9 -41760576.669 8
 86  6 20  1 43  5.0800000  0  4G 6G13G 9G11
  22536240.232    22536244.663    46375507.033 8 -42594479.925 9
  20714038.384    20714043.759    -7973553.255 7   3344999.609 8
  20173924.056    20173927.873    -1800843.285 7    319311.996 7
  22798693.223    22798698.215    47370204.632 8 -41748311.224 8
 86  6 20  1 43 11.0800000  0  4G 6G13G 9G11
  22540193.915    22540198.101    46396282.765 8 -42578291.036 8
  20713609.889    20713615.894    -7975802.285 9   3343247.124 9
  20175031.472    20175036.315    -1795016.322 7    323852.470 8
  22801690.105    22801694.523    47385948.018 8 -41736043.641 9
 86  6 20  1 43 17.0800000  0  4G 6G13G 9G11
  22544150.345    22544154.012    46417072.783 8 -42562091.034 8
  20713185.900    20713191.658    -7978034.510 7   3341507.738 9
  20176146.382    20176149.038    -1789163.193 7    328413.375 7
  22804686.718    22804691.510    47401694.140 8 -41723773.942 8
 86  6 20  1 43 23.0800000  0  4G 6G13G 9G11
  22548108.716    22548112.887    46437877.076 9 -42545879.909 8
  20712765.001    20712769.800    -7980250.011 8   3339781.375 8
  20177264.159    20177269.948    -1783283.771 8    332994.741 7
  22807681.747    22807687.695    47417442.958 8 -41711502.137 8
 86  6 20  1 43 29.0800000  0  4G 6G13G 9G11
  22552069.437    22552075.178    46458695.652 8 -42529657.641 9
  20712345.575    20712350.559    -7982448.816 7   3338068.025 8
  20178388.929    20178393.122    -1777378.094 8    337596.557 8
  22810679.164    22810685.402    47433194.511 8 -41699228.217 8
 86  6 20  1 43 35.0800000  0  4G 6G13G 9G11
  22556034.043    22556039.998    46479528.468 8 -42513424.300 9
  20711931.147    20711935.220    -7984630.902 8   3336367.704 9
  20179517.767    20179520.039    -1771446.185 8    342218.819 8
  22813677.462    22813683.950    47448948.763 8 -41686952.168 8
 86  6 20  1 43 41.0800000  0  4G 6G13G 9G11
  22560001.003    22560008.356    46500375.571 8 -42497179.822 8
  20711518.819    20711524.220    -7986796.326 8   3334680.362 8
  20180652.126    20180654.442    -1765487.938 7    346861.616 8
  22816676.314    22816681.755    47464705.660 8 -41674674.061 7
 86  6 20  1 43 47.0800000  0  4G 6G13G 9G11
  22563970.984    22563976.018    46521236.840 8 -42480924.295 8
  20711110.398    20711115.257    -7988945.061 9   3333006.031 7
  20181790.590    20181793.840    -1759503.497 7    351524.820 7
  22819675.542    22819680.029    47480465.207 8 -41662393.900 8
 86  6 20  1 43 53.0800000  0  4G 6G13G 9G11
  22567944.260    22567949.700    46542112.209 8 -42464657.777 8
  20710704.132    20710709.678    -7991077.164 8   3331344.663 8
  20182932.463    20182937.770    -1753492.841 7    356208.439 7
  22822674.808    22822679.812    47496227.340 8 -41650111.734 9
 86  6 20  1 43 59.0800000  0  4G 6G13G 9G11
  22571919.363    22571924.231    46563001.656 8 -42448380.291 8
  20710301.213    20710307.749    -7993192.755 8   3329696.140 9
  20184082.385    20184088.055    -1747456.034 8    360912.426 7
  22825674.387    22825681.010    47511992.015 7 -41637827.577 8
 86  6 20  1 44  5.0800000  0  4G 6G13G 9G11
  22575896.498    22575902.195    46583905.162 8 -42432091.863 9
  20709901.742    20709907.911    -7995291.772 8   3328060.547 8
  20185236.051    20185239.399    -1741393.016 8    365636.859 8
  22828673.818    22828679.779    47527759.227 8 -41625541.430 8
 86  6 20  1 44 11.0800000  0  4G 6G13G 9G11
  22579877.806    22579881.430    46604822.729 8 -42415792.473 9
  20709506.018    20709511.204    -7997374.235 8   3326437.860 7
  20186395.579    20186397.994    -1735303.924 7    370381.611 7
  22831675.396    22831681.635    47543528.931 8 -41613253.351 7
 86  6 20  1 44 17.0800000  0  4G 6G13G 9G11
  22583859.539    22583865.500    46625754.270 8 -42399482.184 8
  20709112.941    20709118.584    -7999440.112 8   3324828.099 8
  20187558.866    20187563.075    -1729188.600 7    375146.802 7
  22834678.008    22834682.686    47559301.115 8 -41600963.342 8
 86  6 20  1 44 23.0800000  0  4G 6G13G 9G11
  22587845.125    22587851.201    46646699.776 8 -42383161.019 9
  20708722.220    20708727.054    -8001489.415 7   3323231.242 8
  20188727.924    20188731.881    -1723047.168 7    379932.320 7
  22837680.064    22837683.597    47575075.715 8 -41588671.458 8
 86  6 20  1 44 29.0800000  0  4G 6G13G 9G11
  22591835.544    22591840.079    46667659.244 8 -42366828.988 9
  20708335.866    20708341.177    -8003522.225 9   3321647.232 8
  20189902.454    20189906.359    -1716879.664 8    384738.173 8
  22840680.866    22840686.823    47590852.732 8 -41576377.681 8
 86  6 20  1 44 35.0800000  0  4G 6G13G 9G11
  22595823.912    22595831.103    46688632.657 9 -42350486.083 9
  20707951.959    20707958.120    -8005538.641 7   3320076.001 8
  20191080.097    20191084.480    -1710686.043 7    389564.379 7
  22843684.686    22843689.132    47606632.217 8 -41564081.954 8
 86  6 20  1 44 41.0800000  0  4G 6G13G 9G11
  22599818.375    22599824.475    46709620.014 8 -42334132.300 8
  20707573.109    20707577.203    -8007538.550 8   3318517.644 8
  20192263.763    20192266.892    -1704466.136 7    394411.061 8
  22846687.684    22846691.847    47622414.228 8 -41551784.301 8
 86  6 20  1 44 47.0800000  0  4G 6G13G 9G11
  22603815.724    22603822.138    46730621.422 7 -42317767.586 8
  20707194.618    20707199.015    -8009521.843 8   3316972.217 8
  20193452.514    20193455.666    -1698220.121 8    399278.076 7
  22849690.640    22849696.532    47638198.743 9 -41539484.673 9
 86  6 20  1 44 53.0800000  0  4G 6G13G 9G11
  22607814.877    22607821.463    46751636.782 8 -42301391.997 7
  20706820.175    20706824.544    -8011488.564 8   3315439.711 8
  20194645.722    20194648.934    -1691947.750 7    404165.649 8
  22852695.914    22852701.156    47653985.776 9 -41527183.098 8
 86  6 20  1 44 59.0800000  0  4G 6G13G 9G11
  22611816.638    22611822.312    46772666.109 8 -42285005.517 7
  20706448.927    20706454.818    -8013438.728 8   3313920.114 8
  20195845.437    20195848.008    -1685649.202 8    409073.599 7
  22855700.446    22855705.002    47669775.305 9 -41514879.566 8
 86  6 20  1 45  5.0800000  0  4G 6G13G 9G11
  22615821.518    22615824.994    46793709.370 8 -42268608.169 8
  20706081.727    20706084.612    -8015372.349 9   3312413.384 8
  20197046.632    20197052.102    -1679324.500 8    414001.933 7
  22858704.515    22858710.100    47685567.298 8 -41502574.122 8
 86  6 20  1 45 11.0800000  0  4G 6G13G 9G11
  22619827.629    22619833.132    46814766.398 8 -42252200.104 8
  20705715.690    20705720.768    -8017289.539 8   3310919.495 9
  20198256.938    20198259.666    -1672973.628 7    418950.669 7
  22861709.315    22861716.687    47701361.656 8 -41490266.848 7
 86  6 20  1 45 17.0800000  0  4G 6G13G 9G11
  22623837.967    22623842.788    46835837.209 8 -42235781.306 8
  20705354.778    20705358.993    -8019190.285 8   3309438.392 8
  20199469.151    20199473.986    -1666596.745 7    423919.660 7
  22864715.975    22864722.684    47717158.308 8 -41477957.761 8
 86  6 20  1 45 23.0800000  0  4G 6G13G 9G11
  22627850.969    22627854.857    46856921.740 8 -42219351.796 8
  20704996.107    20705000.383    -8021074.666 8   3307970.053 8
  20200687.876    20200692.420    -1660193.794 7    428908.978 7
  22867723.501    22867728.330    47732957.306 8 -41465646.853 8
 86  6 20  1 45 29.0800000  0  4G 6G13G 9G11
  22631864.154    22631869.481    46878020.041 8 -42202911.593 8
  20704641.275    20704645.407    -8022942.584 8   3306514.532 8
  20201911.027    20201915.528    -1653764.617 7    433918.724 7
  22870729.758    22870735.084    47748758.647 8 -41453334.121 8
 86  6 20  1 45 35.0800000  0  4G 6G13G 9G11
  22635883.081    22635888.788    46899132.120 8 -42186460.635 8
  20704289.404    20704292.925    -8024794.156 9   3305071.751 8
  20203140.005    20203144.344    -1647309.487 7    438948.682 7
  22873736.919    22873742.933    47764562.298 8 -41441019.585 8
 86  6 20  1 45 41.0800000  0  4G 6G13G 9G11
  22639902.714    22639908.135    46920257.942 7 -42169998.966 8
  20703939.623    20703943.088    -8026629.202 8   3303641.853 8
  20204373.440    20204378.945    -1640828.138 7    443999.085 8
  22876743.787    22876750.178    47780368.327 8 -41428703.194 8
 86  6 20  1 45 47.0800000  0  4G 6G13G 9G11
  22643924.303    22643930.803    46941397.563 7 -42153526.533 8
  20703593.632    20703599.015    -8028447.782 8   3302224.782 8
  20205611.181    20205616.204    -1634320.650 7    449069.850 7
  22879752.611    22879758.464    47796176.691 8 -41416385.002 8
 86  6 20  1 45 53.0800000  0  4G 6G13G 9G11
  22647949.765    22647955.740    46962550.929 7 -42137043.419 7
  20703250.700    20703255.326    -8030249.961 8   3300820.488 9
  20206854.999    20206860.199    -1627786.971 7    454161.025 6
  22882761.673    22882767.319    47811987.380 8 -41404064.980 9
 86  6 20  1 45 59.0800000  0  4G 6G13G 9G11
  22651978.977    22651984.388    46983718.001 8 -42120549.600 8
  20702910.058    20702915.407    -8032035.745 9   3299428.976 8
  20208103.367    20208107.331    -1621227.156 8    459272.578 8
  22885771.990    22885775.705    47827800.339 7 -41391743.200 8
 86  6 20  1 46  5.0800000  0  4G 6G13G 9G11
  22656008.482    22656014.506    47004898.739 7 -42104045.134 9
  20702574.666    20702579.434    -8033805.144 8   3298050.223 9
  20209354.785    20209361.602    -1614641.167 7    464404.499 8
  22888780.389    22888786.604    47843615.543 8 -41379419.667 8
 86  6 20  1 46 11.0800000  0  4G 6G13G 9G11
  22660041.738    22660048.284    47026093.057 9 -42087530.103 9
  20702239.665    20702244.439    -8035558.294 9   3296684.135 8
  20210615.351    20210619.029    -1608029.115 7    469556.742 8
  22891790.861    22891795.905    47859432.994 7 -41367094.392 9
 86  6 20  1 46 17.0800000  0  4G 6G13G 9G11
  22664078.270    22664082.600    47047300.967 8 -42071004.462 8
  20701909.279    20701913.503    -8037295.129 8   3295330.761 8
  20211877.355    20211882.718    -1601391.028 7    474729.277 8
  22894799.962    22894806.232    47875252.657 7 -41354767.387 8
 86  6 20  1 46 23.0800000  0  4G 6G13G 9G11
  22668116.853    22668122.179    47068522.436 8 -42054468.264 8
  20701582.371    20701587.017    -8039015.673 8   3293990.078 8
  20213145.982    20213150.131    -1594726.840 7    479922.159 7
  22897811.464    22897817.217    47891074.515 8 -41342438.672 9
 86  6 20  1 46 29.0800000  0  4G 6G13G 9G11
  22672155.948    22672162.066    47089757.431 8 -42037921.522 8
  20701257.700    20701262.641    -8040719.906 8   3292662.110 8
  20214417.602    20214424.191    -1588036.667 7    485135.268 7
  22900822.086    22900827.994    47906898.545 8 -41330108.271 7
 86  6 20  1 46 35.0800000  0  4G 6G13G 9G11
  22676201.870    22676206.359    47111005.905 8 -42021364.286 8
  20700936.961    20700942.115    -8042407.881 8   3291346.809 8
  20215696.771    20215700.785    -1581320.471 7    490368.673 7
  22903833.825    22903840.708    47922724.641 7 -41317776.247 8
 86  6 20  1 46 41.0800000  0  4G 6G13G 9G11
  22680246.222    22680250.976    47132267.845 8 -42004796.559 8
  20700618.413    20700623.562    -8044079.600 8   3290044.186 9
  20216980.999    20216984.176    -1574578.264 8    495622.328 7
  22906846.196    22906851.959    47938552.789 8 -41305442.631 8
 86  6 20  1 46 47.0800000  0  4G 6G13G 9G11
  22684294.144    22684300.353    47153543.224 8 -41988218.347 9
  20700303.402    20700308.430    -8045735.068 8   3288754.211 8
  20218267.935    20218272.921    -1567809.958 7    500896.326 8
  22909858.796    22909863.917    47954383.044 7 -41293107.360 8
 86  6 20  1 46 53.0800000  0  4G 6G13G 9G11
  22688345.834    22688351.647    47174832.092 8 -41971629.639 9
  20699991.384    20699995.865    -8047374.235 9   3287476.945 8
  20219561.748    20219564.484    -1561015.725 7    506190.548 8
  22912871.999    22912877.151    47970215.433 8 -41280770.438 8
 86  6 20  1 46 59.0800000  0  4G 6G13G 9G11
  22692398.495    22692406.539    47196134.439 8 -41955030.418 8
  20699682.589    20699687.291    -8048997.101 8   3286212.370 9
  20220859.678    20220862.771    -1554195.325 7    511505.124 7
  22915884.360    22915890.328    47986050.002 8 -41268431.821 8
 86  6 20  1 47  5.0800000  0  4G 6G13G 9G11
  22696455.650    22696461.945    47217450.245 8 -41938420.712 8
  20699376.888    20699381.967    -8050603.678 9   3284960.489 8
  20222162.390    20222166.527    -1547348.781 8    516840.103 7
  22918898.463    22918904.857    48001886.770 8 -41256091.488 8
 86  6 20  1 47 11.0800000  0  4G 6G13G 9G11
  22700514.792    22700520.471    47238779.531 8 -41921800.512 8
  20699073.975    20699078.969    -8052193.952 8   3283721.332 8
  20223470.768    20223474.416    -1540476.152 7    522195.376 7
  22921912.087    22921918.185    48017725.695 8 -41243749.468 8
 86  6 20  1 47 17.0800000  0  4G 6G13G 9G11
  22704576.526    22704582.258    47260122.287 8 -41905169.792 8
  20698775.178    20698779.394    -8053767.923 8   3282494.876 8
  20224782.806    20224787.763    -1533577.527 8    527570.942 8
  22924926.402    22924931.950    48033566.721 7 -41231405.822 9
 86  6 20  1 47 23.0800000  0  4G 6G13G 9G11
  22708641.629    22708645.153    47281478.422 8 -41888528.648 9
  20698478.296    20698482.601    -8055325.650 8   3281281.064 9
  20226099.311    20226104.911    -1526652.728 8    532966.889 7
  22927940.435    22927947.277    48049409.839 8 -41219060.533 8
 86  6 20  1 47 29.0800000  0  4G 6G13G 9G11
  22712707.171    22712711.405    47302847.954 8 -41871877.077 8
  20698184.864    20698189.451    -8056867.159 8   3280079.879 8
  20227423.480    20227427.122    -1519701.843 7    538383.163 7
  22930957.633    22930962.535    48065255.069 8 -41206713.606 7
 86  6 20  1 47 35.0800000  0  4G 6G13G 9G11
  22716775.924    22716781.302    47324230.836 8 -41855215.097 8
  20697894.939    20697898.488    -8058392.528 8   3278891.306 8
  20228751.152    20228755.988    -1512724.968 8    543819.682 8
  22933972.079    22933978.508    48081102.404 7 -41194365.040 7
 86  6 20  1 47 41.0800000  0  4G 6G13G 9G11
  22720847.856    22720852.897    47345627.010 8 -41838542.766 8
  20697609.000    20697612.041    -8059901.712 7   3277715.308 8
  20230082.874    20230086.405    -1505721.993 7    549276.553 7
  22936989.200    22936994.146    48096951.821 8 -41182014.846 8
 86  6 20  1 47 47.0800000  0  4G 6G13G 9G11
  22724922.551    22724925.979    47367036.443 9 -41821860.087 8
  20697323.518    20697327.999    -8061394.803 8   3276551.867 9
  20231421.162    20231424.325    -1498693.074 8    554753.640 8
  22940003.415    22940010.773    48112803.169 9 -41169663.152 9
 86  6 20  1 47 53.0800000  0  4G 6G13G 9G11
  22728998.534    22729003.613    47388459.140 8 -41805167.084 8
  20697041.588    20697046.078    -8062871.708 9   3275401.041 8
  20232763.560    20232767.016    -1491638.151 7    560250.972 7
  22943022.023    22943027.858    48128656.485 8 -41157309.925 8
 86  6 20  1 47 59.0800000  0  4G 6G13G 9G11
  22733077.345    22733084.031    47409895.041 9 -41788463.806 9
  20696764.037    20696768.470    -8064332.533 9   3274262.748 9
  20234111.139    20234114.875    -1484557.321 8    565768.502 7
  22946039.260    22946044.685    48144511.799 8 -41144955.135 8
 86  6 20  1 48  5.0800000  0  4G 6G13G 9G11
  22737159.702    22737164.833    47431344.157 8 -41771750.221 8
  20696488.442    20696494.528    -8065777.164 9   3273137.059 8
  20235462.847    20235467.880    -1477450.413 7    571306.343 7
  22949055.549    22949062.044    48160369.108 7 -41132598.810 8
 86  6 20  1 48 11.0800000  0  4G 6G13G 9G11
  22741242.834    22741248.371    47452806.502 9 -41755026.337 8
  20696216.250    20696222.088    -8067205.638 9   3272023.972 9
  20236820.820    20236824.471    -1470317.533 8    576864.433 8
  22952073.278    22952079.673    48176228.382 8 -41120240.932 8
 86  6 20  1 48 17.0800000  0  4G 6G13G 9G11
  22745329.281    22745335.876    47474282.079 8 -41738292.126 9
  20695947.151    20695953.316    -8068617.961 8   3270923.469 8
  20238184.317    20238187.002    -1463158.613 7    582442.811 7
  22955092.964    22955097.690    48192089.576 7 -41107881.565 8
 86  6 20  1 48 23.0800000  0  4G 6G13G 9G11
  22749418.272    22749424.662    47495770.800 8 -41721547.687 9
  20695681.594    20695687.244    -8070014.187 8   3269835.499 8
  20239550.927    20239554.486    -1455973.735 7    588041.414 6
  22958111.097    22958117.821    48207952.696 9 -41095520.687 9
 86  6 20  1 48 29.0800000  0  4G 6G13G 9G11
  22753510.319    22753516.165    47517272.604 9 -41704793.056 8
  20695420.625    20695425.416    -8071394.300 8   3268760.081 9
  20240922.836    20240925.976    -1448762.753 8    593660.362 7
  22961130.944    22961136.161    48223817.727 8 -41083158.335 8
 86  6 20  1 48 35.0800000  0  4G 6G13G 9G11
  22757604.636    22757610.969    47538787.482 9 -41688028.216 8
  20695161.592    20695166.071    -8072758.383 9   3267697.170 9
  20242299.676    20242304.525    -1441525.933 7    599299.443 7
  22964149.713    22964155.086    48239684.594 8 -41070794.547 8
 86  6 20  1 48 41.0800000  0  4G 6G13G 9G11
  22761701.439    22761707.271    47560315.465 8 -41671253.172 8
  20694904.977    20694909.107    -8074106.444 8   3266646.737 8
  20243682.403    20243686.639    -1434263.133 7    604958.759 8
  22967169.302    22967176.263    48255553.303 8 -41058429.323 9
 86  6 20  1 48 47.0800000  0  4G 6G13G 9G11
  22765800.493    22765806.340    47581856.496 8 -41654467.959 7
  20694649.960    20694656.085    -8075438.537 8   3265608.749 8
  20245066.983    20245073.246    -1426974.345 8    610638.324 7
  22970189.754    22970195.327    48271423.846 8 -41046062.678 8
 86  6 20  1 48 53.0800000  0  4G 6G13G 9G11
  22769901.851    22769907.525    47603410.568 8 -41637672.596 7
  20694400.497    20694404.873    -8076754.591 9   3264583.266 8
  20246460.502    20246464.492    -1419659.538 7    616338.195 6
  22973210.686    22973215.997    48287296.256 8 -41033694.575 8
 86  6 20  1 48 59.0800000  0  4G 6G13G 9G11
  22774006.609    22774011.087    47624977.653 8 -41620867.080 8
  20694152.729    20694157.852    -8078054.537 8   3263570.322 9
  20247857.795    20247861.054    -1412318.990 7    622058.094 8
  22976229.574    22976235.527    48303170.550 8 -41021324.989 9
 86  6 20  1 49  5.0800000  0  4G 6G13G 9G11
  22778113.638    22778118.531    47646557.783 8 -41604051.401 8
  20693908.055    20693913.301    -8079338.394 8   3262569.920 8
  20249259.777    20249264.342    -1404952.341 8    627798.335 7
  22979251.768    22979257.077    48319046.756 8 -41008953.933 9
 86  6 20  1 49 11.0800000  0  4G 6G13G 9G11
  22782222.233    22782227.482    47668150.952 8 -41587225.563 9
  20693667.567    20693672.856    -8080606.193 8   3261582.020 8
  20250667.150    20250670.090    -1397559.769 7    633558.780 8
  22982273.523    22982278.863    48334924.848 8 -40996581.393 8
 86  6 20  1 49 17.0800000  0  4G 6G13G 9G11
  22786333.740    22786339.296    47689757.129 8 -41570389.608 9
  20693428.463    20693434.637    -8081857.900 8   3260606.687 8
  20252078.729    20252082.020    -1390141.189 8    639339.486 7
  22985295.341    22985301.406    48350804.799 9 -40984207.410 8
 86  6 20  1 49 23.0800000  0  4G 6G13G 9G11
  22790449.091    22790452.786    47711376.284 9 -41553543.524 9
  20693194.443    20693198.524    -8083093.572 9   3259643.821 9
  20253493.450    20253498.046    -1382696.584 7    645140.491 8
  22988317.667    22988323.377    48366686.510 8 -40971832.058 8
 86  6 20  1 49 29.0800000  0  4G 6G13G 9G11
  22794564.610    22794569.732    47733008.395 9 -41536687.347 8
  20692962.712    20692967.361    -8084313.202 8   3258693.466 9
  20254916.097    20254919.693    -1375225.999 8    650961.701 8
  22991339.827    22991345.711    48382570.005 8 -40959455.318 9
 86  6 20  1 49 35.0800000  0  4G 6G13G 9G11
  22798682.844    22798687.136    47754653.427 9 -41519821.099 9
  20692732.802    20692737.693    -8085516.883 8   3257755.538 8
  20256342.380    20256345.772    -1367729.497 8    656803.120 8
  22994362.534    22994368.479    48398455.344 9 -40947077.130 8
 86  6 20  1 49 41.0800000  0  4G 6G13G 9G11
  22802804.273    22802809.385    47776311.360 7 -41502944.797 8
  20692506.800    20692511.249    -8086704.633 8   3256830.019 9
  20257774.589    20257778.651    -1360207.059 8    662664.780 7
  22997385.439    22997391.590    48414342.432 8 -40934697.587 8
 86  6 20  1 49 47.0800000  0  4G 6G13G 9G11
  22806928.840    22806933.284    47797982.167 8 -41486058.479 8
  20692284.550    20692288.942    -8087876.400 8   3255916.961 7
  20259210.766    20259214.603    -1352658.711 8    668546.600 7
  23000408.818    23000413.601    48430231.235 8 -40922316.692 8
 86  6 20  1 49 53.0800000  0  4G 6G13G 9G11
  22811054.180    22811059.826    47819665.755 8 -41469162.195 7
  20692063.358    20692068.252    -8089032.145 9   3255016.388 8
  20260650.911    20260656.197    -1345084.483 6    674448.598 7
  23003433.814    23003439.636    48446121.837 8 -40909934.426 8
 86  6 20  1 49 59.0800000  0  4G 6G13G 9G11
  22815183.899    22815188.391    47841362.272 8 -41452255.818 8
  20691847.539    20691852.498    -8090171.968 8   3254128.212 8
  20262097.917    20262101.626    -1337484.216 7    680370.874 7
  23006457.575    23006462.551    48462014.156 8 -40897550.810 7
 86  6 20  1 50  5.0800000  0  4G 6G13G 9G11
  22819314.199    22819319.062    47863071.602 8 -41435339.472 8
  20691633.485    20691638.830    -8091295.747 9   3253252.547 8
  20263547.378    20263552.408    -1329858.078 7    686313.318 8
  23009482.974    23009487.506    48477908.193 9 -40885165.851 9
 86  6 20  1 50 11.0800000  0  4G 6G13G 9G11
  22823448.741    22823452.846    47884793.657 7 -41418413.199 7
  20691421.977    20691426.894    -8092403.631 8   3252389.277 8
  20265004.801    20265010.517    -1322206.079 8    692275.920 6
  23012507.225    23012512.559    48493803.903 8 -40872779.585 8
 86  6 20  1 50 17.0800000  0  4G 6G13G 9G11
  22827583.850    22827588.736    47906528.449 9 -41401477.017 8
  20691213.239    20691219.764    -8093495.678 8   3251538.336 8
  20266465.878    20266471.476    -1314528.087 7    698258.759 7
  23015531.710    23015537.604    48509701.269 8 -40860392.028 8
 86  6 20  1 50 23.0800000  0  4G 6G13G 9G11
  22831722.100    22831728.471    47928275.991 7 -41384530.891 8
  20691009.154    20691015.425    -8094571.964 8   3250699.680 8
  20267932.124    20267936.377    -1306824.298 8    704261.704 7
  23018555.897    23018563.091    48525600.274 7 -40848003.219 7
 86  6 20  1 50 29.0800000  0  4G 6G13G 9G11
  22835863.177    22835868.005    47950036.235 7 -41367574.871 8
  20690807.909    20690812.497    -8095632.351 8   3249873.415 9
  20269404.195    20269409.334    -1299094.649 8    710284.806 8
  23021583.593    23021588.467    48541500.953 9 -40835613.076 9
 86  6 20  1 50 35.0800000  0  4G 6G13G 9G11
  22840006.193    22840010.937    47971809.125 8 -41350608.989 8
  20690609.589    20690614.091    -8096676.936 8   3249059.449 8
  20270878.036    20270883.296    -1291339.135 6    716328.062 7
  23024609.225    23024614.583    48557403.298 8 -40823221.649 8
 86  6 20  1 50 41.0800000  0  4G 6G13G 9G11
  22844152.176    22844157.864    47993594.719 7 -41333633.218 7
  20690411.719    20690418.163    -8097705.567 9   3248257.933 8
  20272359.303    20272364.446    -1283557.721 8    722391.500 7
  23027636.318    23027641.521    48573307.254 8 -40810828.953 8
 86  6 20  1 50 47.0800000  0  4G 6G13G 9G11
  22848299.424    22848305.775    48015392.945 8 -41316647.614 9
  20690220.618    20690224.876    -8098718.348 8   3247468.755 8
  20273845.939    20273849.939    -1275750.508 8    728475.047 8
  23030662.906    23030668.908    48589212.858 9 -40798434.989 8
 86  6 20  1 50 53.0800000  0  4G 6G13G 9G11
  22852449.390    22852455.898    48037203.703 8 -41299652.220 8
  20690030.311    20690035.887    -8099715.314 8   3246691.908 9
  20275335.332    20275340.846    -1267917.483 8    734578.691 7
  23033689.462    23033695.474    48605119.988 9 -40786039.829 8
 86  6 20  1 50 59.0800000  0  4G 6G13G 9G11
  22856603.199    22856609.476    48059027.068 7 -41282647.021 8
  20689843.532    20689848.692    -8100696.476 8   3245927.375 8
  20276830.610    20276834.848    -1260058.640 7    740702.464 7
  23036716.784    23036721.574    48621028.684 8 -40773643.457 8
 86  6 20  1 51  5.0800000  0  4G 6G13G 9G11
  22860759.042    22860763.977    48080862.995 8 -41265632.033 7
  20689660.257    20689664.403    -8101661.968 9   3245175.043 8
  20278331.335    20278335.218    -1252173.997 8    746846.350 8
  23039744.973    23039749.812    48636938.881 8 -40761245.903 8
 86  6 20  1 51 11.0800000  0  4G 6G13G 9G11
  22864916.473    22864921.475    48102711.406 8 -41248607.310 8
  20689478.827    20689485.658    -8102611.635 9   3244435.055 8
  20279837.807    20279842.638    -1244263.549 7    753010.330 8
  23042772.913    23042777.723    48652850.627 8 -40748847.150 8
 86  6 20  1 51 17.0800000  0  4G 6G13G 9G11
  22869075.808    22869083.637    48124572.342 8 -41231572.834 8
  20689301.718    20689307.138    -8103545.522 9   3243707.360 9
  20281347.169    20281351.186    -1236327.348 7    759194.363 7
  23045801.046    23045806.484    48668763.933 8 -40736447.184 9
 86  6 20  1 51 23.0800000  0  4G 6G13G 9G11
  22873238.651    22873246.419    48146445.752 8 -41214528.621 8
  20689126.579    20689131.792    -8104463.655 9   3242991.934 8
  20282862.743    20282866.930    -1228365.334 6    765398.534 7
  23048829.548    23048835.086    48684678.689 8 -40724046.072 8
 86  6 20  1 51 29.0800000  0  4G 6G13G 9G11
  22877403.013    22877409.050    48168331.646 8 -41197474.698 8
  20688955.017    20688960.215    -8105366.067 8   3242288.752 9
  20284382.754    20284387.284    -1220377.532 7    771622.803 7
  23051858.745    23051863.884    48700594.983 8 -40711643.783 8
 86  6 20  1 51 35.0800000  0  4G 6G13G 9G11
  22881571.079    22881576.134    48190230.060 8 -41180411.004 8
  20688787.209    20688791.011    -8106252.642 8   3241597.941 8
  20285907.886    20285911.516    -1212363.869 8    777867.212 7
  23054888.642    23054892.785    48716512.830 8 -40699240.272 8
 86  6 20  1 51 41.0800000  0  4G 6G13G 9G11
  22885740.816    22885745.136    48212140.972 8 -41163337.586 8
  20688620.395    20688625.911    -8107123.433 9   3240919.393 8
  20287437.195    20287440.509    -1204324.297 7    784131.818 7
  23057916.870    23057922.102    48732432.205 8 -40686835.571 9
 86  6 20  1 51 47.0800000  0  4G 6G13G 9G11
  22889912.642    22889916.809    48234064.440 9 -41146254.374 7
  20688458.285    20688463.453    -8107978.486 8   3240253.124 8
  20288972.122    20288976.517    -1196258.802 8    790416.621 7
  23060945.566    23060952.028    48748353.178 8 -40674429.618 8
 86  6 20  1 51 53.0800000  0  4G 6G13G 9G11
  22894086.281    22894092.394    48256000.421 8 -41129161.409 8
  20688299.074    20688303.604    -8108817.771 8   3239599.150 9
  20290513.132    20290517.144    -1188167.440 7    796721.568 6
  23063976.267    23063982.384    48764275.744 9 -40662022.441 8
 86  6 20  1 51 59.0800000  0  4G 6G13G 9G11
  22898262.590    22898267.970    48277948.904 9 -41112058.709 8
  20688142.294    20688146.794    -8109641.334 8   3238957.414 9
  20292056.585    20292060.020    -1180050.277 8    803046.629 8
  23067006.650    23067012.495    48780199.861 8 -40649614.044 8
 86  6 20  1 52  5.0800000  0  3G13G 9G11
  20687987.567    20687993.266    -8110449.178 9   3238327.922 9
  20293605.516    20293609.191    -1171907.253 7    809391.844 7
  23070037.265    23070042.911    48796125.399 9 -40637204.549 8
 86  6 20  1 52 11.0800000  0  3G13G 9G11
  20687837.125    20687842.843    -8111241.390 8   3237710.631 9
  20295161.035    20295162.558    -1163738.580 8    815757.047 6
  23073067.357    23073073.770    48812052.330 8 -40624793.951 7
 86  6 20  1 52 17.0800000  0  3G13G 9G11
  20687689.202    20687694.461    -8112018.028 8   3237105.468 8
  20296720.970    20296724.152    -1155544.345 7    822142.161 7
  23076099.434    23076103.735    48827980.559 8 -40612382.350 7
 86  6 20  1 52 23.0800000  0  3G13G 9G11
  20687545.333    20687549.301    -8112779.138 8   3236512.391 8
  20298284.198    20298289.072    -1147324.329 8    828547.364 7
  23079130.039    23079135.325    48843910.057 8 -40599969.750 8
 86  6 20  1 52 29.0800000  0  4G12G13G 9G11
                  22158569.040   -26156081.865 9
  20687403.425    20687408.027    -8113524.757 8   3235931.396 8
  20299853.415    20299857.836    -1139078.743 8    834972.487 7
  23082162.112    23082166.899    48859840.867 9 -40587556.150 9
 86  6 20  1 52 35.0800000  0  4G12G13G 9G11
                  22155519.534   -26172127.872 9
  20687264.022    20687270.115    -8114254.799 9   3235362.532 8
  20301428.678    20301430.779    -1130807.537 9    841417.586 7
  23085193.567    23085199.818    48875772.943 8 -40575141.553 9
 86  6 20  1 52 41.0800000  0  4G12G13G 9G11
                  22152495.285   -26188159.571 8
  20687128.482    20687131.926    -8114969.317 8   3234805.777 8
  20303005.492    20303009.913    -1122510.677 8    847882.675 6
  23088225.237    23088231.360    48891706.248 8 -40562725.993 8
 86  6 20  1 52 47.0800000  0  4G12G13G 9G11
  22149446.152    22149453.213   -26204176.327 8  33355625.975 8
  20686994.807    20687000.031    -8115668.335 9   3234261.093 7
  20304589.355    20304593.959    -1114188.169 7    854367.734 8
  23091258.541    23091262.754    48907640.830 8 -40550309.426 8
 86  6 20  1 52 53.0800000  0  4G12G13G 9G11
  22146402.322    22146407.772   -26220178.419 9  33343156.830 8
  20686863.854    20686870.129    -8116351.792 9   3233728.533 8
  20306178.120    20306181.889    -1105840.068 8    860872.736 7
  23094290.350    23094296.192    48923576.703 8 -40537891.870 8
 86  6 20  1 52 59.0800000  0  4G12G13G 9G11
  22143359.852    22143365.318   -26236165.746 9  33330699.679 8
  20686737.847    20686744.151    -8117019.661 9   3233208.120 9
  20307770.953    20307775.637    -1097466.137 8    867397.878 7
  23097323.432    23097329.046    48939513.910 9 -40525473.274 8
 86  6 20  1 53  5.0800000  0  4G12G13G 9G11
  22140320.952    22140327.261   -26252138.223 9  33318253.601 8
  20686613.525    20686618.288    -8117671.963 8   3232699.829 8
  20309371.835    20309375.080    -1089066.512 7    873943.054 7
  23100354.874    23100361.904    48955452.495 9 -40513053.598 8
 86  6 20  1 53 11.0800000  0  4G12G13G 9G11
  22137284.585    22137289.934   -26268095.848 9  33305819.095 9
  20686492.873    20686498.657    -8118308.598 8   3232203.746 9
  20310973.911    20310977.157    -1080641.036 7    880508.341 7
  23103388.249    23103395.342    48971392.503 8 -40500632.832 8
 86  6 20  1 53 17.0800000  0  4G12G13G 9G11
  22134250.178    22134255.692   -26284038.627 9  33293396.155 7
  20686374.852    20686379.540    -8118929.649 9   3231719.825 9
  20312581.481    20312586.377    -1072189.912 7    887093.634 8
  23106422.288    23106427.513    48987333.834 8 -40488211.020 9
 86  6 20  1 53 23.0800000  0  4G12G13G 9G11
  22131219.897    22131224.146   -26299966.584 9  33280984.759 8
  20686258.863    20686264.943    -8119535.113 8   3231248.029 8
  20314194.562    20314198.546    -1063713.026 7    893698.993 7
  23109456.820    23109462.129    49003276.479 9 -40475788.190 9
 86  6 20  1 53 29.0800000  0  4G12G13G 9G11
  22128191.666    22128196.466   -26315879.735 9  33268584.901 9
  20686146.252    20686152.056    -8120124.974 8   3230788.405 9
  20315812.249    20315816.599    -1055210.462 7    900324.370 7
  23112491.332    23112496.124    49019220.414 8 -40463364.354 8
 86  6 20  1 53 35.0800000  0  4G12G13G 9G11
  22125165.904    22125171.045   -26331778.038 9  33256196.631 8
  20686037.760    20686042.963    -8120699.309 8   3230340.883 8
  20317435.189    20317438.128    -1046682.225 7    906969.742 7
  23115525.708    23115530.792    49035165.614 8 -40450939.518 8
 86  6 20  1 53 41.0800000  0  4G12G13G 9G11
  22122143.220    22122147.575   -26347661.361 9  33243820.016 8
  20685931.152    20685937.104    -8121258.101 8   3229905.472 8
  20319063.203    20319066.896    -1038128.311 7    913635.119 7
  23118560.048    23118564.627    49051112.127 8 -40438513.678 8
 86  6 20  1 53 47.0800000  0  4G12G13G 9G11
  22119124.235    22119128.102   -26363529.660 9  33231455.107 8
  20685828.015    20685832.809    -8121801.424 9   3229482.103 8
  20320696.161    20320700.202    -1029548.595 8    920320.620 7
  23121593.838    23121599.018    49067059.907 8 -40426086.845 7
 86  6 20  1 53 53.0800000  0  4G12G13G 9G11
  22116106.879    22116111.712   -26379382.955 9  33219101.886 8
  20685727.341    20685733.026    -8122329.210 8   3229070.842 8
  20322333.631    20322337.710    -1020943.197 8    927026.116 7
  23124628.133    23124634.926    49083008.967 7 -40413659.016 8
 86  6 20  1 53 59.0800000  0  4G12G13G 9G11
  22113093.834    22113098.551   -26395221.184 9  33206760.415 8
  20685629.567    20685634.722    -8122841.421 7   3228671.722 9
  20323974.975    20323980.088    -1012312.066 8    933751.686 7
  23127665.469    23127669.010    49098959.319 8 -40401230.169 8
 86  6 20  1 54  5.0800000  0  4G12G13G 9G11
  22110082.637    22110086.719   -26411044.313 9  33194430.712 7
  20685535.908    20685541.170    -8123338.184 8   3228284.642 9
  20325624.624    20325626.449    -1003655.325 7    940497.182 7
  23130698.901    23130704.064    49114910.923 8 -40388800.358 8
 86  6 20  1 54 11.0800000  0  4G12G13G 9G11
  22107074.553    22107079.041   -26426852.398 9  33182112.733 8
  20685443.785    20685449.266    -8123819.464 8   3227909.621 8
  20327274.975    20327278.673     -994972.935 7    947262.682 8
  23133735.905    23133740.989    49130863.704 7 -40376369.621 8
 86  6 20  1 54 17.0800000  0  4G12G13G 9G11
  22104068.473    22104073.356   -26442645.465 9  33169806.454 8
  20685355.612    20685360.108    -8124285.415 8   3227546.542 9
  20328932.404    20328936.173     -986264.915 7    954048.134 8
  23136771.907    23136778.201    49146817.629 8 -40363937.999 8
 86  6 20  1 54 23.0800000  0  4G12G13G 9G11
  22101066.683    22101071.408   -26458423.497 9  33157511.888 7
  20685269.561    20685274.156    -8124736.032 8   3227195.420 8
  20330593.749    20330598.214     -977531.275 8    960853.580 7
  23139807.052    23139813.643    49162772.629 8 -40351505.545 9
 86  6 20  1 54 29.0800000  0  4G12G13G 9G11
  22098066.628    22098071.514   -26474186.522 9  33145229.004 8
  20685187.540    20685192.289    -8125171.338 8   3226856.219 8
  20332261.947    20332265.359     -968772.250 7    967678.788 7
  23142844.597    23142849.992    49178728.677 8 -40339072.272 8
 86  6 20  1 54 35.0800000  0  4G12G13G 9G11
  22095070.387    22095075.536   -26489934.469 9  33132957.882 9
  20685106.751    20685111.815    -8125591.292 8   3226528.993 8
  20333933.484    20333937.290     -959987.646 7    974523.939 7
  23145881.220    23145886.824    49194685.753 8 -40326638.183 9
 86  6 20  1 54 41.0800000  0  4G12G13G 9G11
  22092076.277    22092080.909   -26505667.330 9  33120698.505 8
  20685029.365    20685034.715    -8125995.840 9   3226213.763 8
  20335609.911    20335613.326     -951177.533 8    981388.965 7
  23148917.224    23148921.284    49210643.928 8 -40314203.245 9
 86  6 20  1 54 47.0800000  0  4G12G13G 9G11
  22089085.193    22089090.299   -26521385.121 9  33108450.894 7
  20684954.729    20684960.254    -8126385.033 8   3225910.500 8
  20337290.550    20337293.074     -942341.884 7    988273.875 6
  23151955.025    23151960.295    49226603.168 7 -40301767.489 8
 86  6 20  1 54 53.0800000  0  4G12G13G 9G11
  22086096.401    22086101.279   -26537087.836 9  33096215.014 9
  20684885.043    20684889.393    -8126758.914 8   3225619.170 8
  20338976.997    20338981.615     -933480.767 8    995178.644 6
  23154992.500    23154996.894    49242563.450 8 -40289330.896 9
 86  6 20  1 54 59.0800000  0  4G12G13G 9G11
  22083110.939    22083115.992   -26552775.411 9  33083990.939 9
  20684816.334    20684821.212    -8127117.607 9   3225339.672 8
  20340668.744    20340673.076     -924594.213 8   1002103.227 7
  23158029.077    23158033.341    49258524.725 8 -40276893.555 8
 86  6 20  1 55  5.0800000  0  4G12G13G 9G11
  22080129.816    22080134.039   -26568447.755 9  33071778.721 9
  20684751.571    20684756.424    -8127461.043 9   3225072.051 8
  20342365.203    20342367.933     -915682.188 7   1009047.665 7
  23161067.717    23161072.609    49274486.993 9 -40264455.426 8
 86  6 20  1 55 11.0800000  0  4G12G13G 9G11
  22077149.456    22077155.203   -26584104.888 9  33059578.359 8
  20684688.842    20684692.993    -8127789.151 9   3224816.391 8
  20344064.787    20344068.666     -906744.609 7   1016012.008 7
  23164104.187    23164109.498    49290450.253 7 -40252016.530 7
 86  6 20  1 55 17.0800000  0  4G12G13G 9G11
  22074174.055    22074177.940   -26599746.767 9  33047389.895 8
  20684629.432    20684634.836    -8128102.017 9   3224572.605 8
  20345770.576    20345774.228     -897781.510 8   1022996.229 8
  23167142.298    23167147.450    49306414.534 7 -40239576.840 7
 86  6 20  1 55 23.0800000  0  4G12G13G 9G11
  22071199.400    22071205.407   -26615373.293 8  33035213.371 8
  20684573.628    20684577.485    -8128399.581 9   3224340.740 8
  20347481.055    20347485.043     -888792.947 7   1030000.321 7
  23170179.429    23170185.467    49322379.786 8 -40227136.382 7
 86  6 20  1 55 29.0800000  0  4G12G13G 9G11
  22068228.533    22068232.442   -26630984.519 9  33023048.776 8
  20684519.770    20684524.270    -8128681.986 8   3224120.694 7
  20349196.763    20349202.623     -879778.939 8   1037024.206 7
  23173218.599    23173223.959    49338345.980 8 -40214695.190 8
 86  6 20  1 55 35.0800000  0  4G12G13G 9G11
  22065260.664    22065265.512   -26646580.425 9  33010896.133 7
  20684468.250    20684472.587    -8128949.172 8   3223912.501 8
  20350916.441    20350920.050     -870739.386 8   1044068.028 8
  23176257.092    23176261.584    49354313.157 8 -40202253.247 7
 86  6 20  1 55 41.0800000  0  4G12G13G 9G11
  22062296.367    22062300.843   -26662160.891 9  32998755.518 7
  20684419.801    20684425.241    -8129201.070 8   3223716.219 8
  20352640.824    20352645.356     -861674.360 8   1051131.678 7
  23179295.433    23179300.259    49370281.366 7 -40189810.502 8
 86  6 20  1 55 47.0800000  0  4G12G13G 9G11
  22059335.256    22059338.234   -26677725.968 9  32986626.892 7
  20684375.616    20684379.108    -8129437.739 8   3223531.806 9
  20354371.864    20354376.415     -852583.795 7   1058215.220 7
  23182334.537    23182339.875    49386250.522 8 -40177367.008 8
 86  6 20  1 55 53.0800000  0  4G12G13G 9G11
  22056375.876    22056378.259   -26693275.626 9  32974510.280 8
  20684332.489    20684337.379    -8129659.164 9   3223359.262 8
  20356106.567    20356110.669     -843467.827 8   1065318.582 7
  23185373.491    23185378.444    49402220.704 8 -40164922.708 8
 86  6 20  1 55 59.0800000  0  4G12G13G 9G11
  22053419.482    22053423.327   -26708809.861 9  32962405.675 7
  20684293.115    20684297.656    -8129865.449 9   3223198.531 9
  20357845.421    20357849.495     -834326.321 7   1072441.815 7
  23188412.608    23188418.252    49418191.829 8 -40152477.684 8
 86  6 20  1 56  5.0800000  0  4G12G13G 9G11
  22050466.799    22050469.062   -26724328.645 9  32950313.119 7
  20684257.912    20684262.145    -8130056.511 8   3223049.655 9
  20359591.198    20359594.015     -825159.339 8   1079584.908 7
  23191450.781    23191457.022    49434163.848 7 -40140031.964 8
 86  6 20  1 56 11.0800000  0  4G12G13G 9G11
  22047515.928    22047519.791   -26739831.866 9  32938232.679 8
  20684224.202    20684228.393    -8130232.396 9   3222912.598 9
  20361338.646    20361343.293     -815966.955 7   1086747.800 8
  23194491.284    23194495.947    49450136.786 8 -40127585.523 8
 86  6 20  1 56 17.0800000  0  4G12G13G 9G11
  22044569.039    22044573.895   -26755319.507 9  32926164.392 8
  20684193.175    20684197.326    -8130393.096 7   3222787.389 9
  20363093.387    20363097.428     -806749.085 7   1093930.567 7
  23197530.926    23197536.069    49466110.658 8 -40115138.339 8
 86  6 20  1 56 23.0800000  0  4G12G13G 9G11
  22041624.982    22041627.878   -26770791.576 9  32914108.240 8
  20684165.702    20684171.129    -8130538.591 7   3222674.010 8
  20364851.809    20364856.467     -797505.783 7   1101133.137 7
  23200571.591    23200575.824    49482085.506 8 -40102690.422 8
 86  6 20  1 56 29.0800000  0  4G12G13G 9G11
  22038683.077    22038687.305   -26786247.978 9  32902064.295 8
  20684141.067    20684146.159    -8130668.926 8   3222572.459 8
  20366615.608    20366619.836     -788236.963 8   1108355.583 7
  23203610.955    23203615.587    49498061.274 8 -40090241.771 8
 86  6 20  1 56 35.0800000  0  4G12G13G 9G11
  22035744.831    22035749.522   -26801688.798 9  32890032.481 8
  20684119.714    20684122.918    -8130784.065 8   3222482.755 8
  20368386.251    20368388.025     -778942.707 8   1115597.858 7
  23206651.178    23206656.217    49514037.932 8 -40077792.427 7
 86  6 20  1 56 41.0800000  0  4G12G13G 9G11
  22032809.831    22032814.253   -26817114.013 9  32878012.830 7
  20684099.855    20684104.994    -8130884.053 8   3222404.833 8
  20370156.848    20370162.676     -769623.077 7   1122859.915 6
  23209693.061    23209697.333    49530015.465 8 -40065342.400 7
 86  6 20  1 56 47.0800000  0  4G12G13G 9G11
  22029876.522    22029881.253   -26832523.548 9  32866005.411 8
  20684083.916    20684087.088    -8130968.933 8   3222338.698 8
  20371937.739    20371939.746     -760277.961 7   1130141.793 7
  23212732.207    23212737.743    49545993.820 7 -40052891.742 7
 86  6 20  1 56 53.0800000  0  4G12G13G 9G11
  22026947.427    22026951.971   -26847917.460 9  32854010.147 8
  20684070.267    20684075.540    -8131038.714 9   3222284.333 8
  20373720.967    20373723.539     -750907.597 8   1137443.379 7
  23215773.443    23215777.342    49561973.042 8 -40040440.386 8
 86  6 20  1 56 59.0800000  0  4G12G13G 9G11
  22024021.718    22024025.518   -26863295.708 9  32842027.120 7
  20684059.220    20684064.583    -8131093.403 9   3222241.727 8
  20375508.699    20375510.089     -741511.848 8   1144764.757 8
  23218814.100    23218818.515    49577953.110 8 -40027988.391 8
 86  6 20  1 57  5.0800000  0  4G12G13G 9G11
  22021097.484    22021101.182   -26878658.239 9  32830056.305 8
  20684052.176    20684057.160    -8131133.002 9   3222210.872 8
  20377300.401    20377305.499     -732090.708 8   1152105.897 6
  23221854.987    23221860.511    49593933.993 8 -40015535.751 8
 86  6 20  1 57 11.0800000  0  4G12G13G 9G11
  22018175.729    22018182.236   -26894005.067 8  32818097.734 8
  20684048.318    20684052.709    -8131157.533 8   3222191.757 8
  20379099.041    20379101.799     -722644.293 7   1159466.744 6
  23224897.064    23224901.741    49609915.657 8 -40003082.511 8
 86  6 20  1 57 17.0800000  0  4G12G13G 9G11
  22015259.552    22015264.305   -26909336.158 9  32806151.438 8
  20684046.545    20684051.312    -8131167.092 7   3222184.309 8
  20380901.159    20380904.214     -713172.501 7   1166847.350 7
  23227937.455    23227943.320    49625898.050 8 -39990628.715 7
 86  6 20  1 57 23.0800000  0  4G12G13G 9G11
  22012345.854    22012350.058   -26924651.507 9  32794217.403 7
  20684046.141    20684050.727    -8131161.656 9   3222188.552 8
  20382708.382    20382711.255     -703675.414 8   1174247.678 7
  23230979.562    23230985.025    49641881.086 8 -39978174.390 8
 86  6 20  1 57 29.0800000  0  4G12G13G 9G11
  22009434.025    22009438.495   -26939951.111 9  32782295.631 8
  20684049.752    20684055.773    -8131141.243 8   3222204.457 8
  20384519.630    20384524.707     -694153.137 7   1181667.618 7
  23234020.742    23234026.002    49657864.833 8 -39965719.510 8
 86  6 20  1 57 35.0800000  0  4G12G13G 9G11
  22006524.724    22006530.272   -26955234.900 9  32770386.183 8
  20684056.907    20684061.027    -8131105.798 7   3222232.070 8
  20386337.313    20386341.952     -684605.569 8   1189107.304 7
  23237063.025    23237068.361    49673849.321 9 -39953264.070 7
 86  6 20  1 57 41.0800000  0  4G12G13G 9G11
  22003619.937    22003624.378   -26970502.895 8  32758489.045 8
  20684066.950    20684071.559    -8131055.350 8   3222271.397 9
  20388158.033    20388162.371     -675032.698 7   1196566.664 8
  23240103.982    23240109.179    49689834.518 8 -39940808.077 8
 86  6 20  1 57 47.0800000  0  4G12G13G 9G11
  22000717.552    22000721.565   -26985755.021 9  32746604.274 8
  20684079.686    20684084.893    -8130989.951 8   3222322.359 9
  20389985.198    20389990.302     -665434.514 7   1204045.765 7
  23243146.718    23243152.384    49705820.409 8 -39928351.538 8
 86  6 20  1 57 53.0800000  0  4G12G13G 9G11
  21997818.104    21997823.325   -27000991.283 9  32734731.868 8
  20684094.543    20684100.833    -8130909.619 8   3222384.961 8
  20391817.098    20391820.618     -655811.142 8   1211544.504 7
  23246187.672    23246193.369    49721807.007 8 -39915894.435 7
 86  6 20  1 57 59.0800000  0  4G12G13G 9G11
  21994922.207    21994925.539   -27016211.568 9  32722871.905 9
  20684112.316    20684117.001    -8130814.302 9   3222459.243 9
  20393652.466    20393656.573     -646162.403 7   1219062.998 8
  23249230.399    23249236.076    49737794.373 8 -39903436.757 7
 86  6 20  1 58  5.0800000  0  4G12G13G 9G11
  21992028.326    21992033.417   -27031415.908 8  32711024.367 7
  20684133.837    20684138.711    -8130704.100 8   3222545.101 8
  20395491.875    20395497.451     -636488.332 8   1226601.221 6
  23252272.221    23252278.403    49753782.380 8 -39890978.577 8
 86  6 20  1 58 11.0800000  0  4G12G13G 9G11
  21989137.862    21989142.276   -27046604.270 8  32699189.271 8
  20684156.901    20684162.437    -8130579.025 8   3222642.574 9
  20397338.457    20397343.004     -626789.076 7   1234159.091 7
  23255315.602    23255320.979    49769771.093 8 -39878519.837 8
 86  6 20  1 58 17.0800000  0  4G12G13G 9G11
  21986251.084    21986256.488   -27061776.619 9  32687366.670 8
  20684183.317    20684189.358    -8130439.066 8   3222751.628 8
  20399188.428    20399193.573     -617064.630 8   1241736.584 8
  23258358.758    23258363.693    49785760.498 7 -39866060.555 8
 86  6 20  1 58 23.0800000  0  4G12G13G 9G11
  21983366.746    21983372.220   -27076932.883 8  32675556.594 9
  20684212.800    20684218.545    -8130284.139 8   3222872.356 8
  20401043.651    20401047.662     -607314.839 9   1249333.832 7
  23261401.273    23261406.212    49801750.629 8 -39853600.722 7
 86  6 20  1 58 29.0800000  0  4G12G13G 9G11
  21980487.396    21980490.921   -27092073.111 8  32663759.014 8
  20684245.850    20684250.659    -8130114.306 8   3223004.697 8
  20402905.830    20402908.656     -597539.801 8   1256950.730 8
  23264443.601    23264450.161    49817741.368 8 -39841140.407 8
 86  6 20  1 58 35.0800000  0  4G12G13G 9G11
  21977607.671    21977613.045   -27107197.313 9  32651973.936 8
  20684281.513    20684286.914    -8129929.662 8   3223148.579 8
  20404770.150    20404774.501     -587739.574 8   1264587.263 7
  23267486.766    23267492.153    49833732.694 9 -39828679.640 7
 86  6 20  1 58 41.0800000  0  4G12G13G 9G11
  21974732.595    21974737.584   -27122305.423 8  32640201.377 8
  20684318.288    20684323.695    -8129730.174 8   3223304.020 8
  20406639.518    20406642.842     -577914.276 8   1272243.354 6
  23270531.625    23270536.507    49849724.617 8 -39816218.388 9
 86  6 20  1 58 47.0800000  0  4G12G13G 9G11
  21971860.935    21971866.215   -27137397.376 9  32628441.412 8
  20684360.530    20684364.461    -8129515.805 8   3223471.066 8
  20408512.642    20408518.147     -568063.649 8   1279919.154 7
  23273573.301    23273578.445    49865717.133 8 -39803756.698 7
 86  6 20  1 58 53.0800000  0  4G12G13G 9G11
  21968991.200    21968997.360   -27152473.154 9  32616694.052 8
  20684402.970    20684409.277    -8129286.494 9   3223649.750 8
  20410393.499    20410396.313     -558187.679 9   1287614.721 8
  23276617.509    23276623.228    49881710.308 8 -39791294.483 8
 86  6 20  1 58 59.0800000  0  4G12G13G 9G11
  21966127.232    21966131.321   -27167532.678 9  32604959.359 8
  20684449.508    20684455.080    -8129042.324 8   3223840.009 8
  20412277.037    20412280.597     -548286.428 7   1295329.979 7
  23279660.377    23279666.524    49897704.132 8 -39778831.756 9
 86  6 20  1 59  5.0800000  0  4G12G13G 9G11
  21963264.639    21963269.862   -27182575.966 8  32593237.314 8
  20684498.556    20684503.707    -8128783.302 7   3224041.863 9
  20414167.286    20414170.954     -538360.100 7   1303064.769 6
  23282704.796    23282709.692    49913698.573 8 -39766368.557 8
 86  6 20  1 59 11.0800000  0  4G12G13G 9G11
  21960403.976    21960409.660   -27197603.059 9  32581527.885 8
  20684549.694    20684555.637    -8128509.463 8   3224255.233 8
  20416061.027    20416063.393     -528408.597 8   1310819.187 7
  23285748.173    23285753.960    49929693.566 9 -39753904.937 9
 86  6 20  1 59 17.0800000  0  4G12G13G 9G11
  21957546.672    21957552.675   -27212613.943 9  32569831.100 8
  20684606.021    20684611.384    -8128220.891 8   3224480.099 8
  20417958.827    20417963.414     -518431.981 8   1318593.179 6
  23288791.986    23288798.499    49945689.085 8 -39741440.891 9
 86  6 20  1 59 23.0800000  0  4G12G13G 9G11
  21954693.641    21954699.927   -27227608.621 9  32558146.941 8
  20684663.743    20684668.987    -8127917.555 9   3224716.468 9
  20419862.564    20419865.316     -508430.265 8   1326386.715 7
  23291835.827    23291841.516    49961685.062 9 -39728976.491 8
 86  6 20  1 59 29.0800000  0  4G12G13G 9G11
  21951844.452    21951848.682   -27242587.049 9  32546475.430 8
  20684724.244    20684729.567    -8127599.526 7   3224964.286 8
  20421770.345    20421773.085     -498403.578 8   1334199.729 7
  23294880.224    23294885.515    49977681.498 8 -39716511.739 8
 86  6 20  1 59 35.0800000  0  4G12G13G 9G11
  21948996.007    21949002.114   -27257549.228 8  32534816.589 8
  20684787.004    20684793.082    -8127266.828 8   3225223.530 7
  20423683.342    20423686.719     -488351.824 7   1342032.268 7
  23297923.928    23297929.922    49993678.401 8 -39704046.623 8
 86  6 20  1 59 41.0800000  0  4G12G13G 9G11
  21946152.492    21946159.498   -27272495.143 9  32523170.431 7
  20684853.569    20684858.592    -8126919.438 8   3225494.233 8
  20425599.899    20425604.323     -478274.971 7   1349884.340 6
  23300968.526    23300972.686    50009675.758 9 -39691581.151 7
 86  6 20  1 59 47.0800000  0  4G12G13G 9G11
  21943311.264    21943317.594   -27287424.880 9  32511536.875 8
  20684920.961    20684926.961    -8126557.404 8   3225776.339 8
  20427522.174    20427526.066     -468173.132 7   1357755.898 7
  23304012.328    23304019.182    50025673.522 9 -39679115.365 9
 86  6 20  1 59 53.0800000  0  4G12G13G 9G11
  21940473.634    21940479.096   -27302338.317 9  32499916.013 7
  20684994.715    20684999.791    -8126180.729 9   3226069.854 8
  20429449.140    20429453.789     -458046.234 8   1365646.986 7
  23307056.525    23307063.046    50041671.683 8 -39666649.265 7
 86  6 20  1 59 59.0800000  0  4G12G13G 9G11
  21937639.389    21937643.600   -27317235.363 9  32488307.924 8
  20685068.694    20685073.399    -8125789.409 9   3226374.785 8
  20431382.181    20431386.188     -447894.365 8   1373557.540 7
  23310100.634    23310106.624    50057670.291 8 -39654182.815 9
 86  6 20  2  0  5.0800000  0  4G12G13G 9G11
  21934807.626    21934811.999   -27332115.907 9  32476712.700 9
  20685146.707    20685150.497    -8125383.398 8   3226691.164 8
  20433317.916    20433322.796     -437717.392 7   1381487.637 7
  23313146.437    23313152.241    50073669.314 8 -39641716.038 9
 86  6 20  2  0 11.0800000  0  4G12G13G 9G11
  21931978.761    21931983.397   -27346979.921 9  32465130.354 8
  20685227.418    20685230.991    -8124962.732 8   3227018.963 9
  20435258.738    20435263.685     -427515.425 7   1389437.220 6
  23316190.438    23316196.051    50089668.757 7 -39629248.941 8
 86  6 20  2  0 17.0800000  0  4G12G13G 9G11
  21929154.395    21929159.267   -27361827.455 9  32453560.847 8
  20685309.122    20685314.429    -8124527.425 8   3227358.163 8
  20437206.061    20437209.257     -417288.463 7   1397406.275 7
  23319235.724    23319240.990    50105668.635 9 -39616781.511 8
 86  6 20  2  0 23.0800000  0  4G12G13G 9G11
  21926331.394    21926336.766   -27376658.512 9  32442004.179 9
  20685395.380    20685399.527    -8124077.464 9   3227708.774 9
  20439156.099    20439160.508     -407036.405 8   1405394.892 8
  23322280.354    23322285.864    50121668.920 9 -39604313.759 7
 86  6 20  2  0 29.0800000  0  4G12G13G 9G11
  21923512.587    21923516.375   -27391473.008 9  32430460.422 8
  20685482.552    20685488.284    -8123612.827 8   3228070.850 9
  20441112.824    20441116.774     -396759.312 7   1413403.018 8
  23325325.122    23325330.488    50137669.659 8 -39591845.655 9
 86  6 20  2  0 35.0800000  0  4G12G13G 9G11
  21920697.111    21920701.264   -27406270.890 9  32418929.601 7
  20685574.272    20685579.842    -8123133.570 8   3228444.296 8
  20443072.157    20443075.874     -386457.213 8   1421430.617 7
  23328369.110    23328375.386    50153670.803 8 -39579377.224 8
 86  6 20  2  0 41.0800000  0  4G12G13G 9G11
  21917884.399    21917887.265   -27421052.217 9  32407411.701 8
  20685669.085    20685673.592    -8122639.682 8   3228829.144 8
  20445038.239    20445041.650     -376130.051 8   1429477.760 8
  23331415.056    23331420.934    50169672.358 9 -39566908.492 8
 86  6 20  2  0 47.0800000  0  4G12G13G 9G11
  21915074.969    21915078.118   -27435816.920 8  32395906.731 8
  20685765.789    20685769.975    -8122131.073 8   3229225.472 8
  20447008.785    20447012.522     -365777.838 7   1437544.411 7
  23334459.836    23334466.184    50185674.336 9 -39554439.404 8
 86  6 20  2  0 53.0800000  0  4G12G13G 9G11
  21912266.459    21912271.513   -27450564.995 9  32384414.720 8
  20685865.004    20685869.483    -8121607.892 8   3229633.150 7
  20448982.358    20448987.707     -355400.667 7   1445630.508 8
  23337505.029    23337510.922    50201676.705 8 -39541970.019 8
 86  6 20  2  0 59.0800000  0  4G12G13G 9G11
  21909464.135    21909468.635   -27465296.383 9  32372935.721 8
  20685967.576    20685971.939    -8121070.140 9   3230052.172 8
  20450962.434    20450965.960     -344998.395 8   1453736.187 8
  23340550.836    23340554.798    50217679.467 8 -39529500.346 9
 86  6 20  2  1  5.0800000  0  4G12G13G 9G11
  21906663.612    21906668.018   -27480011.121 9  32361469.698 8
  20686073.358    20686076.268    -8120517.857 8   3230482.537 8
  20452945.688    20452949.568     -334571.276 8   1461861.204 8
  23343595.522    23343601.249    50233682.571 8 -39517030.388 8
 86  6 20  2  1 11.0800000  0  4G12G13G 9G11
  21903868.031    21903871.670   -27494709.167 9  32350016.671 8
  20686180.323    20686184.234    -8119951.039 9   3230924.212 9
  20454934.982    20454939.709     -324119.281 7   1470005.611 7
  23346640.810    23346646.426    50249685.938 8 -39504560.238 7
 86  6 20  2  1 17.0800000  0  4G12G13G 9G11
  21901073.620    21901077.600   -27509390.556 8  32338576.630 7
  20686291.288    20686295.588    -8119369.720 9   3231377.190 8
  20456929.777    20456933.180     -313642.309 7   1478169.482 7
  23349686.104    23349692.092    50265689.554 8 -39492089.888 8
 86  6 20  2  1 23.0800000  0  4G12G13G 9G11
  21898283.106    21898287.651   -27524055.303 8  32327149.552 8
  20686403.720    20686408.833    -8118773.906 8   3231841.464 9
  20458928.065    20458929.694     -303140.556 8   1486352.668 8
  23352731.319    23352737.199    50281693.356 9 -39479619.397 8
 86  6 20  2  1 29.0800000  0  4G12G13G 9G11
  21895495.324    21895500.635   -27538703.422 9  32315735.439 8
  20686520.112    20686524.474    -8118163.695 8   3232316.959 8
  20460931.281    20460934.221     -292614.080 8   1494555.113 8
  23355777.560    23355783.339    50297697.322 9 -39467148.771 7
 86  6 20  2  1 35.0800000  0  4G12G13G 9G11
  21892711.211    21892716.613   -27553334.796 9  32304334.375 8
  20686639.541    20686643.344    -8117539.026 8   3232803.715 9
  20462937.487    20462942.621     -282062.806 7   1502776.880 7
  23358821.446    23358828.585    50313701.470 8 -39454678.010 9
 86  6 20  2  1 41.0800000  0  4G12G13G 9G11
  21889930.675    21889935.021   -27567949.367 9  32292946.395 8
  20686761.283    20686765.878    -8116900.092 9   3233301.599 8
  20464950.593    20464954.815     -271486.664 8   1511018.026 7
  23361868.125    23361873.524    50329705.811 8 -39442207.100 8
 86  6 20  2  1 47.0800000  0  4G12G13G 9G11
  21887153.235    21887157.700   -27582547.244 9  32281571.428 8
  20686885.603    20686889.935    -8116246.834 8   3233810.635 9
  20466968.128    20466971.420     -260885.642 8   1519278.561 6
  23364913.329    23364919.583    50345710.389 9 -39429736.011 8
 86  6 20  2  1 53.0800000  0  4G12G13G 9G11
  21884377.854    21884382.907   -27597128.285 9  32270209.579 8
  20687012.925    20687016.023    -8115579.052 8   3234330.980 8
  20468990.428    20468994.120     -250259.749 7   1527558.485 6
  23367959.392    23367964.734    50361715.234 9 -39417264.698 8
 86  6 20  2  1 59.0800000  0  4G12G13G 9G11
  21881606.182    21881610.942   -27611692.365 9  32258860.960 8
  20687141.309    20687146.509    -8114896.795 8   3234862.615 7
  20471016.275    20471020.884     -239608.983 7   1535857.774 8
  23371004.861    23371010.282    50377720.335 8 -39404793.200 8
 86  6 20  2  2  5.0800000  0  4G12G13G 9G11
  21878837.814    21878842.353   -27626239.492 9  32247525.536 9
  20687275.678    20687278.808    -8114200.107 8   3235405.488 9
  20473048.299    20473051.759     -228933.349 8   1544176.442 7
  23374050.382    23374055.336    50393725.723 8 -39392321.472 9
 86  6 20  2  2 11.0800000  0  4G12G13G 9G11
  21876073.075    21876077.413   -27640769.722 9  32236203.282 9
  20687409.984    20687414.798    -8113488.963 8   3235959.628 9
  20475084.563    20475088.376     -218232.868 8   1552514.472 7
  23377096.388    23377102.180    50409731.315 8 -39379849.589 8
 86  6 20  2  2 17.0800000  0  4G12G13G 9G11
  21873312.221    21873315.737   -27655282.979 9  32224894.258 8
  20687547.810    20687553.416    -8112763.527 8   3236524.903 8
  20477124.878    20477128.617     -207507.537 8   1560871.870 6
  23380141.955    23380148.525    50425737.111 8 -39367377.537 8
 86  6 20  2  2 23.0800000  0  4G12G13G 9G11
  21870552.959    21870556.576   -27669779.249 9  32213598.466 8
  20687688.871    20687693.831    -8112023.716 9   3237101.391 8
  20479170.825    20479175.261     -196757.422 9   1569248.589 7
  23383188.302    23383194.387    50441743.102 8 -39354905.335 8
 86  6 20  2  2 29.0800000  0  4G12G13G 9G11
  21867796.665    21867801.880   -27684258.506 9  32202315.936 9
  20687831.128    20687836.549    -8111269.470 8   3237689.103 8
  20481222.849    20481224.643     -185982.508 8   1577644.606 7
  23386234.122    23386239.976    50457749.295 9 -39342432.983 7
 86  6 20  2  2 35.0800000  0  4G12G13G 9G11
  21865044.827    21865049.557   -27698720.786 9  32191046.626 8
  20687979.550    20687983.634    -8110500.870 8   3238288.025 8
  20483277.214    20483280.196     -175182.793 7   1586059.980 7
  23389280.684    23389285.153    50473755.649 9 -39329960.521 8
 86  6 20  2  2 41.0800000  0  4G12G13G 9G11
  21862297.861    21862300.728   -27713165.959 9  32179790.662 8
  20688127.846    20688132.131    -8109717.919 8   3238898.105 8
  20485336.840    20485340.759     -164358.257 8   1594494.675 7
  23392325.970    23392330.697    50489762.158 8 -39317487.914 8
 86  6 20  2  2 47.0800000  0  4G12G13G 9G11
  21859550.787    21859555.681   -27727594.079 9  32168547.963 8
  20688279.957    20688285.005    -8108920.649 9   3239519.378 8
  20487400.947    20487405.040     -153508.988 8   1602948.659 7
  23395371.105    23395376.706    50505768.802 8 -39305015.196 8
 86  6 20  2  2 53.0800000  0  4G12G13G 9G11
  21856808.225    21856813.578   -27742005.149 9  32157318.557 9
  20688434.096    20688438.560    -8108109.060 8   3240151.776 8
  20489470.567    20489473.462     -142634.987 7   1611421.893 7
  23398417.718    23398422.659    50521775.637 9 -39292542.347 8
 86  6 20  2  2 59.0800000  0  4G12G13G 9G11
  21854069.589    21854073.201   -27756399.137 9  32146102.475 8
  20688591.499    20688594.656    -8107283.182 8   3240795.320 8
  20491544.894    20491548.315     -131736.174 8   1619914.480 7
  23401463.097    23401469.274    50537782.554 8 -39280069.428 8
 86  6 20  2  3  5.0800000  0  4G12G13G 9G11
  21851333.370    21851338.159   -27770775.976 9  32134899.752 8
  20688751.334    20688755.776    -8106442.994 9   3241450.018 8
  20493622.573    20493626.236     -120812.706 8   1628426.270 7
  23404510.211    23404515.648    50553789.595 8 -39267596.407 8
 86  6 20  2  3 11.0800000  0  4G12G13G 9G11
  21848601.040    21848604.967   -27785135.663 8  32123710.387 8
  20688913.482    20688918.261    -8105588.613 8   3242115.773 8
  20495706.392    20495709.980     -109864.736 8   1636957.143 7
  23407556.364    23407560.558    50569796.680 8 -39255123.365 9
 86  6 20  2  3 17.0800000  0  4G12G13G 9G11
  21845871.985    21845875.379   -27799478.212 9  32112534.375 8
  20689079.328    20689082.604    -8104720.003 8   3242792.610 9
  20497794.438    20497798.119      -98892.028 8   1645507.315 7
  23410603.065    23410607.558    50585803.772 8 -39242650.317 7
 86  6 20  2  3 23.0800000  0  4G12G13G 9G11
  21843145.017    21843149.525   -27813803.668 9  32101371.695 9
  20689246.257    20689251.288    -8103837.205 8   3243480.520 8
  20499888.173    20499890.066      -87894.690 7   1654076.655 7
  23413647.341    23413652.370    50601810.822 8 -39230177.296 8
 86  6 20  2  3 29.0800000  0  4G12G13G 9G11
  21840422.522    21840426.870   -27828111.898 9  32090222.431 8
  20689417.391    20689422.090    -8102940.216 8   3244179.466 8
  20501984.807    20501989.243      -76872.726 8   1662665.203 7
  23416692.901    23416698.850    50617817.927 8 -39217704.224 8
 86  6 20  2  3 35.0800000  0  4G12G13G 9G11
  21837703.195    21837707.320   -27842402.861 8  32079086.621 8
  20689590.196    20689595.117    -8102028.965 9   3244889.538 9
  20504086.627    20504090.100      -65826.074 7   1671272.984 8
  23419740.134    23419745.392    50633825.066 8 -39205231.147 9
 86  6 20  2  3 41.0800000  0  4G12G13G 9G11
  21834986.541    21834991.893   -27856676.548 8  32067964.272 9
  20689766.570    20689771.765    -8101103.474 8   3245610.697 8
  20506194.157    20506197.463      -54754.717 7   1679900.006 7
  23422786.105    23422791.782    50649832.255 8 -39192758.022 8
 86  6 20  2  3 47.0800000  0  4G12G13G 9G11
  21832274.415    21832278.529   -27870932.952 9  32056855.377 8
  20689945.577    20689949.926    -8100163.813 9   3246342.907 8
  20508305.073    20508307.621      -43658.721 7   1688546.243 7
  23425831.880    23425838.671    50665839.525 8 -39180284.821 9
 86  6 20  2  3 53.0800000  0  4G12G13G 9G11
  21829563.104    21829568.632   -27885172.065 9  32045759.978 8
  20690126.589    20690131.868    -8099210.025 7   3247086.119 9
  20510421.831    20510425.036      -32538.188 8   1697211.575 8
  23428877.164    23428883.761    50681846.818 6 -39167811.608 8
 86  6 20  2  3 59.0800000  0  4G12G13G 9G11
  21826857.161    21826862.346   -27899393.894 9  32034678.039 8
  20690312.015    20690316.404    -8098242.102 8   3247840.353 9
  20512542.930    20512546.316      -21393.123 8   1705896.051 7
  23431922.868    23431930.110    50697854.075 7 -39155338.434 8
 86  6 20  2  4  5.0800000  0  4G12G13G 9G11
  21824153.936    21824159.837   -27913598.432 8  32023609.574 8
  20690497.144    20690502.595    -8097259.988 9   3248605.630 8
  20514668.551    20514672.806      -10223.426 8   1714599.696 7
  23434969.994    23434976.631    50713861.328 8 -39142865.265 9
 86  6 20  2  4 11.0800000  0  4G12G13G 9G11
  21821454.874    21821460.412   -27927785.515 9  32012554.702 8
  20690687.599    20690692.405    -8096263.732 7   3249381.923 8
  20516798.248    20516802.300         970.808 7   1723322.468 7
  23438016.478    23438022.429    50729868.496 7 -39130392.153 8
 86  6 20  2  4 17.0800000  0  4G12G13G 9G11
  21818758.587    21818762.635   -27941955.184 9  32001513.409 9
  20690879.402    20690885.152    -8095253.448 8   3250169.184 8
  20518932.675    20518937.221       12189.615 8   1732064.397 7
  23441062.185    23441069.759    50745875.648 7 -39117919.058 8
 86  6 20  2  4 23.0800000  0  4G12G13G 9G11
  21816066.115    21816070.961   -27956107.380 9  31990485.730 8
  20691074.318    20691078.630    -8094229.088 9   3250967.367 8
  20521070.812    20521074.891       23433.049 7   1740825.512 7
  23444108.521    23444114.772    50761882.822 7 -39105445.937 9
 86  6 20  2  4 29.0800000  0  4G12G13G 9G11
  21813375.493    21813381.400   -27970242.085 9  31979471.686 8
  20691271.675    20691278.027    -8093190.546 8   3251776.632 8
  20523216.927    20523221.308       34701.046 8   1749605.754 8
  23447154.437    23447160.655    50777890.017 8 -39092972.814 8
 86  6 20  2  4 35.0800000  0  4G12G13G 9G11
  21810688.565    21810694.131   -27984359.257 8  31968471.299 8
  20691471.688    20691476.440    -8092137.919 8   3252596.859 8
  20525364.090    20525367.868       45993.510 7   1758405.084 7
  23450201.172    23450207.568    50793897.179 8 -39080499.710 8
 86  6 20  2  4 41.0800000  0  4G12G13G 9G11
  21808006.338    21808012.430   -27998458.870 9  31957484.591 8
  20691675.022    20691680.115    -8091071.182 8   3253428.087 8
  20527519.421    20527523.537       57310.600 8   1767223.583 7
  23453245.939    23453253.203    50809904.314 8 -39068026.628 9
 86  6 20  2  4 47.0800000  0  4G12G13G 9G11
  21805326.512    21805331.769   -28012540.963 9  31946511.547 8
  20691880.820    20691886.124    -8089990.366 8   3254270.292 8
  20529678.525    20529680.371       68652.121 9   1776061.141 7
  23456291.994    23456298.599    50825911.364 8 -39055553.597 9
 86  6 20  2  4 53.0800000  0  4G12G13G 9G11
  21802650.181    21802655.080   -28026605.500 9  31935552.167 9
  20692089.590    20692093.895    -8088895.484 9   3255123.443 9
  20531842.084    20531843.721       80018.224 8   1784917.854 7
  23459339.139    23459344.507    50841918.266 7 -39043080.706 9
 86  6 20  2  4 59.0800000  0  4G12G13G 9G11
  21799976.238    21799982.411   -28040652.544 9  31924606.421 8
  20692299.530    20692305.402    -8087786.587 9   3255987.522 8
  20534007.984    20534011.668       91408.730 8   1793793.550 7
  23462384.994    23462391.339    50857925.013 8 -39030607.915 9
 86  6 20  2  5  5.0800000  0  4G12G13G 9G11
  21797306.832    21797312.270   -28054682.017 9  31913674.375 9
  20692513.999    20692519.649    -8086663.764 9   3256862.451 8
  20536181.226    20536182.963      102823.545 8   1802688.206 7
  23465429.115    23465436.318    50873931.520 7 -39018135.308 9
 86  6 20  2  5 11.0800000  0  4G12G13G 9G11
  21794640.147    21794646.308   -28068693.941 8  31902755.994 8
  20692729.413    20692735.040    -8085527.015 8   3257748.247 8
  20538357.073    20538360.240      114262.816 8   1811601.925 8
  23468475.488    23468482.222    50889937.866 8 -39005662.845 8
 86  6 20  2  5 17.0800000  0  4G12G13G 9G11
  21791977.774    21791983.757   -28082688.299 9  31891851.308 7
  20692949.864    20692954.351    -8084376.302 8   3258644.907 9
  20540538.399    20540541.791      125726.520 8   1820534.675 7
  23471521.300    23471529.042    50905944.016 8 -38993190.528 9
 86  6 20  2  5 23.0800000  0  4G12G13G 9G11
  21789317.898    21789322.853   -28096664.998 9  31880960.372 8
  20693170.625    20693176.090    -8083211.598 8   3259552.465 8
  20542725.149    20542727.290      137214.580 8   1829486.410 8
  23474567.780    23474574.520    50921949.992 8 -38980718.344 8
 86  6 20  2  5 29.0800000  0  4G12G13G 9G11
  21786662.443    21786667.456   -28110624.103 9  31870083.156 8
  20693395.396    20693400.899    -8082033.049 8   3260470.808 8
  20544916.315    20544918.019      148726.994 8   1838457.107 7
  23477613.921    23477620.669    50937955.761 7 -38968246.322 7
 86  6 20  2  5 35.0800000  0  4G12G13G 9G11
  21784008.691    21784013.891   -28124565.588 9  31859219.667 8
  20693622.024    20693627.213    -8080840.659 9   3261399.953 8
  20547111.569    20547114.727      160263.866 8   1847446.883 7
  23480661.299    23480665.162    50953961.331 7 -38955774.457 9
 86  6 20  2  5 41.0800000  0  4G12G13G 9G11
  21781359.344    21781365.345   -28138489.355 9  31848369.996 8
  20693850.882    20693857.133    -8079634.431 8   3262339.879 8
  20549310.100    20549314.746      171825.138 7   1856455.662 8
  23483704.089    23483711.291    50969966.725 7 -38943302.725 9
 86  6 20  2  5 47.0800000  0  4G12G13G 9G11
  21778712.932    21778717.841   -28152395.305 9  31837534.192 8
  20694083.666    20694088.162    -8078414.285 8   3263290.642 8
  20551515.246    20551518.325      183410.651 8   1865483.334 7
  23486750.124    23486757.493    50985971.932 8 -38930831.133 7
 86  6 20  2  5 53.0800000  0  4G12G13G 9G11
  21776070.378    21776076.240   -28166283.432 9  31826712.274 9
  20694319.769    20694324.018    -8077180.236 8   3264252.224 8
  20553724.251    20553727.014      195020.582 8   1874530.019 7
  23489797.546    23489802.501    51001977.030 9 -38918359.642 9
 86  6 20  2  5 59.0800000  0  4G12G13G 9G11
  21773430.840    21773436.295   -28180153.707 9  31815904.280 8
  20694557.421    20694560.218    -8075932.175 8   3265224.758 9
  20555938.318    20555942.249      206654.976 8   1883595.773 7
  23492842.330    23492849.440    51017981.977 8 -38905888.260 9
 86  6 20  2  6  5.0800000  0  4G12G13G 9G11
  21770795.557    21770800.493   -28194006.040 8  31805110.255 8
  20694796.239    20694801.220    -8074670.084 9   3266208.201 9
  20558157.234    20558161.958      218313.810 7   1892680.595 7
  23495888.005    23495893.577    51033986.762 7 -38893417.002 8
 86  6 20  2  6 11.0800000  0  4G12G13G 9G11
  21768163.108    21768167.257   -28207840.433 9  31794330.222 8
  20695039.811    20695043.827    -8073394.013 8   3267202.544 8
  20560379.896    20560383.526      229996.986 7   1901784.348 8
  23498934.053    23498939.607    51049991.372 8 -38880945.894 9
 86  6 20  2  6 17.0800000  0  4G12G13G 9G11
  21765533.526    21765537.686   -28221656.861 9  31783564.173 8
  20695285.586    20695289.709    -8072103.990 8   3268207.752 8
  20562607.755    20562611.248      241704.519 8   1910907.108 8
  23501979.757    23501985.597    51065995.801 8 -38868474.911 8
 86  6 20  2  6 23.0800000  0  4G12G13G 9G11
  21762907.508    21762911.616   -28235455.376 8  31772812.091 9
  20695534.133    20695537.065    -8070800.086 9   3269223.787 8
  20564840.513    20564845.150      253436.472 8   1920048.882 8
  23505025.881    23505030.867    51082000.031 8 -38856004.079 8
 86  6 20  2  6 29.0800000  0  4G12G13G 9G11
  21760284.826    21760290.392   -28249235.930 8  31762074.002 8
  20695784.923    20695789.657    -8069482.321 9   3270250.617 9
  20567078.395    20567081.448      265192.781 8   1929209.637 7
  23508070.168    23508076.170    51098004.015 7 -38843533.456 8
 86  6 20  2  6 35.0800000  0  4G12G13G 9G11
  21757666.361    21757671.758   -28262998.542 9  31751349.882 8
  20696038.290    20696041.882    -8068150.737 8   3271288.226 9
  20569319.762    20569323.192      276973.358 8   1938389.300 8
  23511115.009    23511121.023    51114007.723 9 -38831063.033 9
 86  6 20  2  6 41.0800000  0  4G12G13G 9G11
  21755051.127    21755056.558   -28276743.216 9  31740639.764 9
  20696292.723    20696298.837    -8066805.388 8   3272336.551 8
  20571566.010    20571570.241      288778.085 8   1947587.775 7
  23514160.911    23514166.808    51130011.161 8 -38818592.843 8
 86  6 20  2  6 47.0800000  0  4G12G13G 9G11
  21752439.016    21752441.859   -28290470.012 9  31729943.559 8
  20696551.094    20696556.593    -8065446.307 8   3273395.566 8
  20573816.078    20573821.112      300607.090 9   1956805.182 7
  23517206.736    23517212.170    51146014.265 8 -38806122.889 8
 86  6 20  2  6 53.0800000  0  4G12G13G 9G11
  21749830.106    21749834.615   -28304178.931 9  31719261.294 7
  20696813.064    20696817.631    -8064073.507 9   3274465.283 7
  20576072.352    20576077.312      312460.368 8   1966041.485 7
  23520251.723    23520256.936    51162016.932 9 -38793653.287 8
 86  6 20  2  6 59.0800000  0  4G12G13G 9G11
  21747224.795    21747229.819   -28317869.976 9  31708592.955 8
  20697077.964    20697081.808    -8062687.069 9   3275545.613 6
  20578331.442    20578335.249      324337.506 7   1975296.408 7
  23523296.871    23523301.941    51178019.153 9 -38781184.040 8
 86  6 20  2  7  5.0800000  0  4G12G13G 9G11
  21744621.898    21744626.409   -28331543.104 9  31697938.579 7
  20697343.310    20697347.697    -8061287.069 9   3276636.540 7
  20580597.139    20580600.738      336238.743 9   1984570.096 7
  23526341.801    23526346.910    51194020.945 8 -38768715.117 8
 86  6 20  2  7 11.0800000  0  4G12G13G 9G11
  21742024.790    21742028.887   -28345198.189 9  31687298.256 7
  20697613.299    20697616.441    -8059873.469 9   3277738.048 8
  20582866.977    20582868.890      348164.129 8   1993862.593 7
  23529387.838    23529393.400    51210022.330 9 -38756246.513 8
 86  6 20  2  7 17.0800000  0  4G12G13G 9G11
  21739429.371    21739433.761   -28358835.208 9  31676672.002 8
  20697883.713    20697888.010    -8058446.251 9   3278850.160 8
  20585141.190    20585143.837      360113.564 8   2003173.841 7
  23532431.869    23532437.285    51226023.335 8 -38743778.185 8
 86  6 20  2  7 23.0800000  0  4G12G13G 9G11
  21736837.969    21736841.919   -28372454.155 8  31666059.846 9
  20698158.962    20698162.528    -8057005.387 9   3279972.898 8
  20587418.698    20587422.286      372087.135 7   2012503.891 7
  23535477.657    23535482.389    51242023.896 8 -38731310.221 8
 86  6 20  2  7 29.0800000  0  4G12G13G 9G11
  21734249.868    21734254.521   -28386054.952 9  31655461.841 7
  20698435.621    20698439.180    -8055550.814 9   3281106.337 7
  20589702.159    20589705.245      384084.851 8   2021852.745 7
  23538521.136    23538526.131    51258024.107 8 -38718842.543 8
 86  6 20  2  7 35.0800000  0  4G12G13G 9G11
  21731664.793    21731670.018   -28399637.566 9  31644877.983 8
  20698714.938    20698718.852    -8054082.600 8   3282250.410 7
  20591989.872    20591993.108      396106.751 8   2031220.464 6
  23541567.325    23541570.326    51274023.948 9 -38706375.128 8
 86  6 20  2  7 41.0800000  0  4G12G13G 9G11
  21729083.828    21729088.354   -28413201.953 9  31634308.349 8
  20698995.769    20699000.404    -8052600.727 9   3283405.111 7
  20594281.591    20594286.572      408152.769 9   2040606.956 6
  23544610.728    23544615.980    51290023.414 9 -38693908.025 7
 86  6 20  2  7 47.0800000  0  4G12G13G 9G11
  21726506.443    21726510.283   -28426748.062 9  31623752.931 7
  20699280.607    20699285.479    -8051105.225 9   3284570.436 7
  20596579.505    20596582.810      420222.839 9   2050012.229 6
  23547655.800    23547660.518    51306022.499 9 -38681441.222 7
 86  6 20  2  7 53.0800000  0  4G12G13G 9G11
  21723932.066    21723935.864   -28440275.893 8  31613211.774 8
  20699569.939    20699571.875    -8049596.063 9   3285746.415 8
  20598880.566    20598885.042      432317.051 8   2059436.294 6
  23550699.509    23550705.620    51322021.192 9 -38668974.709 7
 86  6 20  2  7 59.0800000  0  4G12G13G 9G11
  21721361.578    21721367.462   -28453785.414 9  31602684.886 8
  20699858.273    20699862.889    -8048073.243 8   3286933.026 7
  20601185.748    20601188.967      444435.322 8   2068879.097 7
  23553744.591    23553748.780    51338019.516 8 -38656508.489 8
 86  6 20  2  8  5.0800000  0  4G12G13G 9G11
  21718793.607    21718798.357   -28467276.617 9  31592172.252 8
  20700150.609    20700154.585    -8046536.780 9   3288130.274 8
  20603496.928    20603500.872      456577.768 7   2078340.724 8
  23556788.948    23556793.995    51354017.449 8 -38644042.564 8
 86  6 20  2  8 11.0800000  0  4G12G13G 9G11
  21716230.201    21716234.722   -28480749.503 9  31581673.915 7
  20700444.952    20700450.367    -8044986.697 9   3289338.132 7
  20605812.037    20605815.781      468744.247 8   2087821.113 8
  23559832.989    23559837.088    51370014.934 8 -38631576.999 7
 86  6 20  2  8 17.0800000  0  4G12G13G 9G11
  21713669.628    21713674.658   -28494204.117 9  31571189.798 8
  20700743.550    20700747.321    -8043423.093 9   3290556.537 8
  20608131.908    20608136.182      480934.737 9   2097320.186 7
  23562877.499    23562881.945    51386011.937 8 -38619111.809 7
 86  6 20  2  8 23.0800000  0  4G12G13G 9G11
  21711112.344    21711117.216   -28507640.399 9  31560719.979 7
  20701042.843    20701047.293    -8041845.927 9   3291785.487 7
  20610456.518    20610459.774      493149.180 8   2106837.934 6
  23565921.427    23565926.201    51402008.424 8 -38606647.024 8
 86  6 20  2  8 29.0800000  0  4G12G13G 9G11
  21708558.611    21708564.574   -28521058.322 9  31550264.454 7
  20701345.516    20701349.374    -8040255.235 9   3293025.001 6
  20612786.088    20612788.816      505387.594 9   2116374.342 8
  23568964.649    23568970.975    51418004.373 8 -38594182.644 8
 86  6 20  2  8 35.0800000  0  4G12G13G 9G11
  21706008.674    21706015.146   -28534457.886 9  31539823.242 7
  20701650.530    20701655.776    -8038651.025 9   3294275.029 7
  20615117.701    20615122.345      517649.906 8   2125929.385 7
  23572008.234    23572013.394    51433999.798 9 -38581718.688 8
 86  6 20  2  8 41.0800000  0  4G12G13G 9G11
  21703462.923    21703467.512   -28547839.085 9  31529396.345 9
  20701959.148    20701962.244    -8037033.387 9   3295535.519 7
  20617456.518    20617460.898      529936.190 8   2135503.122 6
  23575052.180    23575057.365    51449994.731 8 -38569255.117 8
 86  6 20  2  8 47.0800000  0  4G12G13G 9G11
  21700919.724    21700925.592   -28561201.880 9  31518983.774 8
  20702268.139    20702273.910    -8035402.340 8   3296806.484 7
  20619800.069    20619803.151      542246.364 8   2145095.450 7
  23578095.888    23578101.484    51465989.144 9 -38556791.932 8
 86  6 20  2  8 53.0800000  0  4G12G13G 9G11
  21698381.102    21698385.799   -28574546.199 9  31508585.612 8
  20702581.027    20702586.705    -8033757.797 9   3298087.945 8
  20622146.773    20622150.715      554580.602 7   2154706.556 7
  23581139.539    23581144.648    51481983.076 8 -38544329.148 7
 86  6 20  2  8 59.0800000  0  4G12G13G 9G11
  21695844.740    21695850.467   -28587872.064 9  31498201.820 7
  20702897.524    20702902.057    -8032099.782 9   3299379.889 7
  20624497.985    20624501.192      566938.759 9   2164336.268 8
  23584183.667    23584189.057    51497976.522 9 -38531866.708 8
 86  6 20  2  9  5.0800000  0  4G12G13G 9G11
  21693311.701    21693316.670   -28601179.370 9  31487832.503 7
  20703215.360    20703220.377    -8030428.368 9   3300682.307 8
  20626855.486    20626857.352      579320.821 8   2173984.624 6
  23587226.860    23587231.102    51513969.425 8 -38519404.715 8
 86  6 20  2  9 11.0800000  0  4G12G13G 9G11
  21690783.832    21690788.413   -28614468.155 9  31477477.609 8
  20703537.260    20703540.866    -8028743.557 8   3301995.144 7
  20629215.350    20629220.094      591726.732 7   2183651.557 7
  23590269.587    23590275.371    51529961.730 9 -38506943.178 7
 86  6 20  2  9 17.0800000  0  4G12G13G 9G11
  21688258.371    21688263.214   -28627738.465 9  31467137.120 7
  20703859.187    20703864.205    -8027045.262 9   3303318.490 8
  20631579.875    20631584.126      604156.542 8   2193337.121 6
  23593313.562    23593317.760    51545953.445 8 -38494482.099 9
 86  6 20  2  9 23.0800000  0  4G12G13G 9G11
  21685736.802    21685742.106   -28640990.267 8  31456811.041 8
  20704186.444    20704188.425    -8025333.635 9   3304652.220 8
  20633950.122    20633952.585      616610.057 8   2203041.148 6
  23596356.211    23596361.248    51561944.568 9 -38482021.509 7
 86  6 20  2  9 29.0800000  0  4G12G13G 9G11
  21683219.082    21683223.217   -28654223.494 8  31446499.439 8
  20704512.653    20704517.452    -8023608.716 9   3305996.329 8
  20636324.079    20636328.874      629087.381 8   2212763.743 7
  23599399.585    23599404.613    51577935.048 9 -38469561.377 9
 86  6 20  2  9 35.0800000  0  4G12G13G 9G11
  21680704.265    21680709.129   -28667438.157 9  31436202.306 8
  20704845.010    20704849.168    -8021870.439 9   3307350.825 8
  20638702.545    20638708.331      641588.635 8   2222504.967 6
  23602441.614    23602447.516    51593924.899 8 -38457101.766 7
 86  6 20  2  9 41.0800000  0  4G12G13G 9G11
  21678193.041    21678196.376   -28680634.216 9  31425919.675 8
  20705177.128    20705181.844    -8020118.752 9   3308715.781 8
  20641087.339    20641091.817      654113.683 7   2232264.734 6
  23605484.026    23605490.169    51609914.136 9 -38444642.623 8
 86  6 20  2  9 47.0800000  0  4G12G13G 9G11
  21675685.246    21675689.664   -28693811.592 9  31415651.581 7
  20705512.900    20705517.753    -8018353.700 9   3310091.157 8
  20643475.601    20643478.871      666662.546 8   2242043.096 6
  23608527.086    23608530.529    51625902.781 8 -38432183.944 8
 86  6 20  2  9 53.0800000  0  4G12G13G 9G11
  21673182.149    21673186.238   -28706970.256 8  31405398.083 7
  20705852.918    20705856.190    -8016575.142 8   3311477.042 8
  20645867.791    20645871.360      679235.233 7   2251839.977 7
  23611569.572    23611576.041    51641890.830 9 -38419725.721 7
 86  6 20  2  9 59.0800000  0  4G12G13G 9G11
  21670681.144    21670685.105   -28720110.175 9  31395159.184 8
  20706191.444    20706195.722    -8014783.186 8   3312873.370 8
  20648264.200    20648267.031      691831.718 7   2261655.412 7
  23614611.593    23614615.805    51657878.304 9 -38407267.962 7
 86  6 20  2 10  5.0800000  0  4G12G13G 9G11
  21668184.765    21668187.508   -28733231.305 8  31384934.949 7
  20706535.785    20706541.272    -8012977.830 9   3314280.143 8
  20650665.777    20650668.708      704452.115 8   2271489.484 7
  23617653.659    23617658.988    51673865.246 9 -38394810.598 6
 86  6 20  2 10 11.0800000  0  4G12G13G 9G11
  21665690.728    21665695.055   -28746333.546 9  31374725.392 8
  20706879.882    20706886.984    -8011159.147 8   3315697.294 8
  20653072.257    20653075.514      717096.156 8   2281341.979 8
  23620695.021    23620701.924    51689851.605 9 -38382353.693 6
 86  6 20  2 10 17.0800000  0  4G12G13G 9G11
  21663200.871    21663205.428   -28759417.083 9  31364530.435 7
  20707230.009    20707235.543    -8009327.149 8   3317124.836 8
  20655482.068    20655486.971      729763.992 8   2291213.018 8
  23623737.440    23623741.463    51705837.305 8 -38369897.317 7
 86  6 20  2 10 23.0800000  0  4G12G13G 9G11
  21660714.061    21660719.480   -28772481.867 9  31354350.087 7
  20707580.867    20707587.650    -8007481.899 8   3318562.681 8
  20657896.384    20657901.647      742455.520 8   2301102.515 7
  23626779.758    23626785.072    51721822.361 9 -38357441.415 7
 86  6 20  2 10 29.0800000  0  4G12G13G 9G11
  21658230.485    21658236.980   -28785527.898 9  31344184.351 8
  20707935.078    20707940.233    -8005623.390 9   3320010.878 7
  20660317.892    20660319.886      755170.812 8   2311010.538 7
  23629820.824    23629827.516    51737806.726 9 -38344986.071 7
 86  6 20  2 10 35.0800000  0  4G12G13G 9G11
  21655753.238    21655758.096   -28798555.085 9  31334033.291 8
  20708291.787    20708296.457    -8003751.677 9   3321469.360 8
  20662741.178    20662744.483      767909.690 7   2320936.930 7
  23632862.737    23632868.400    51753790.346 9 -38332531.309 7
 86  6 20  2 10 41.0800000  0  4G12G13G 9G11
  21653278.027    21653281.242   -28811563.387 9  31323896.966 8
  20708650.318    20708654.507    -8001866.892 9   3322938.020 7
  20665169.382    20665174.723      780672.215 8   2330881.742 7
  23635904.356    23635910.921    51769773.173 9 -38320077.157 7
 86  6 20  2 10 47.0800000  0  4G12G13G 9G11
  21650806.121    21650810.285   -28824552.846 9  31313775.324 7
  20709011.499    20709016.458    -7999968.885 8   3324417.001 8
  20667603.180    20667607.783      793458.343 8   2340844.972 6
  23638944.957    23638951.776    51785755.216 9 -38307623.622 6
 86  6 20  2 10 53.0800000  0  4G12G13G 9G11
  21648337.093    21648341.595   -28837523.534 9  31303668.291 7
  20709374.353    20709380.430    -7998057.735 9   3325906.209 7
  20670041.065    20670044.466      806268.013 7   2350826.511 7
  23641986.565    23641991.616    51801736.476 9 -38295170.681 7
 86  6 20  2 10 59.0800000  0  4G12G13G 9G11
  21645872.924    21645877.253   -28850475.322 9  31293575.994 7
  20709741.014    20709746.379    -7996133.403 8   3327405.689 7
  20672482.205    20672486.432      819101.283 8   2360826.470 7
  23645028.460    23645032.358    51817716.990 9 -38282718.341 7
 86  6 20  2 11  5.0800000  0  4G12G13G 9G11
  21643411.987    21643415.502   -28863408.235 9  31283498.390 7
  20710109.596    20710114.873    -7994195.924 8   3328915.408 8
  20674929.372    20674933.674      831958.011 8   2370844.695 6
  23648068.727    23648072.389    51833696.682 9 -38270266.630 7
 86  6 20  2 11 11.0800000  0  4G12G13G 9G11
  21640955.052    21640958.332   -28876322.215 9  31273435.551 7
  20710481.895    20710485.014    -7992245.350 9   3330435.341 7
  20677379.514    20677385.131      844838.305 8   2380881.278 7
  23651109.391    23651113.403    51849675.606 9 -38257815.527 7
 86  6 20  2 11 17.0800000  0  4G12G13G 9G11
  21638500.695    21638504.632   -28889217.181 9  31263387.532 7
  20710854.104    20710860.181    -7990281.629 9   3331965.517 7
  20679836.096    20679839.754      857742.253 7   2390936.302 7
  23654149.865    23654155.775    51865653.811 9 -38245364.964 7
 86  6 20  2 11 23.0800000  0  4G12G13G 9G11
  21636050.321    21636055.072   -28902093.114 9  31253354.334 8
  20711231.438    20711235.936    -7988304.726 8   3333505.958 7
  20682294.799    20682301.622      870669.823 7   2401009.725 7
  23657189.921    23657196.874    51881631.296 8 -38232914.979 6
 86  6 20  2 11 29.0800000  0  4G12G13G 9G11
  21633604.139    21633608.555   -28914949.954 8  31243336.012 8
  20711610.407    20711613.880    -7986314.712 9   3335056.637 7
  20684760.752    20684764.375      883621.022 8   2411101.566 7
  23660230.670    23660236.562    51897608.064 9 -38220465.546 6
 86  6 20  2 11 35.0800000  0  4G12G13G 9G11
  21631160.928    21631165.850   -28927787.765 9  31233332.541 8
  20711991.000    20711995.893    -7984311.551 9   3336617.538 8
  20687228.834    20687233.350      896595.755 7   2421211.749 7
  23663270.935    23663275.901    51913584.093 9 -38208016.692 7
 86  6 20  2 11 41.0800000  0  4G12G13G 9G11
  21628722.662    21628726.723   -28940606.463 9  31223343.938 7
  20712374.996    20712379.519    -7982295.265 8   3338188.677 7
  20689703.355    20689707.375      909594.022 8   2431340.261 6
  23666310.522    23666315.016    51929559.346 9 -38195568.438 7
 86  6 20  2 11 47.0800000  0  4G12G13G 9G11
  21626287.110    21626291.758   -28953406.088 8  31213370.212 8
  20712761.234    20712764.585    -7980265.872 9   3339770.021 7
  20692181.543    20692186.590      922615.746 7   2441487.060 6
  23669350.149    23669355.319    51945533.808 8 -38183120.799 7
 86  6 20  2 11 53.0800000  0  4G12G13G 9G11
  21623853.907    21623858.347   -28966186.562 9  31203411.403 8
  20713150.160    20713154.850    -7978223.473 9   3341361.505 7
  20694664.888    20694667.452      935661.000 8   2451652.208 7
  23672388.799    23672395.432    51961507.488 9 -38170673.779 7
 86  6 20  2 11 59.0800000  0  4G12G13G 9G11
  21621424.891    21621430.330   -28978947.811 9  31193467.577 7
  20713541.000    20713545.847    -7976167.938 9   3342963.227 8
  20697149.773    20697153.593      948729.788 8   2461835.655 7
  23675429.474    23675433.706    51977480.375 8 -38158227.368 7
 86  6 20  2 12  5.0800000  0  4G12G13G 9G11
  21619000.276    21619004.977   -28991689.858 9  31183538.710 8
  20713934.791    20713939.322    -7974099.326 9   3344575.136 7
  20699641.731    20699646.648      961821.960 8   2472037.341 7
  23678468.442    23678473.847    51993452.432 8 -38145781.616 7
 86  6 20  2 12 11.0800000  0  4G12G13G 9G11
  21616579.278    21616584.367   -29004412.786 9  31173624.742 8
  20714331.129    20714334.687    -7972017.750 9   3346197.142 8
  20702136.289    20702141.734      974937.557 7   2482257.285 6
  23681507.363    23681513.023    52009423.695 8 -38133336.470 7
 86  6 20  2 12 17.0800000  0  4G12G13G 9G11
  21614162.536    21614166.674   -29017116.483 9  31163725.755 8
  20714729.011    20714733.543    -7969923.160 9   3347829.293 8
  20704637.798    20704640.599      988076.628 7   2492495.522 6
  23684546.310    23684552.675    52025394.093 8 -38120892.000 6
 86  6 20  2 12 23.0800000  0  4G12G13G 9G11
  21611749.484    21611753.127   -29029800.920 9  31153841.784 8
  20715131.154    20715135.790    -7967815.552 9   3349471.588 7
  20707142.994    20707146.082     1001239.060 8   2502751.944 7
  23687585.630    23687591.267    52041363.577 8 -38108448.237 7
 86  6 20  2 12 29.0800000  0  4G12G13G 9G11
  21609338.476    21609342.818   -29042466.141 9  31143972.789 7
  20715534.791    20715538.325    -7965694.920 9   3351124.013 8
  20709652.065    20709655.009     1014424.948 8   2513026.675 7
  23690624.234    23690630.003    52057332.189 7 -38096005.179 6
 86  6 20  2 12 35.0800000  0  4G12G13G 9G11
  21606932.175    21606936.745   -29055112.067 9  31134118.822 8
  20715941.029    20715942.773    -7963561.254 9   3352786.621 7
  20712165.381    20712168.498     1027634.269 8   2523319.643 6
  23693661.980    23693670.100    52073299.956 9 -38083562.757 7
 86  6 20  2 12 41.0800000  0  4G12G13G 9G11
  21604529.122    21604535.087   -29067738.636 8  31124279.928 8
  20716347.925    20716353.006    -7961414.651 9   3354459.297 7
  20714683.553    20714687.790     1040866.915 8   2533630.799 6
  23696701.291    23696707.382    52089266.918 9 -38071120.965 8
 86  6 20  2 12 47.0800000  0  4G12G13G 9G11
  21602129.835    21602134.975   -29080345.875 9  31114456.111 9
  20716759.366    20716765.338    -7959255.110 9   3356142.059 8
  20717205.798    20717210.389     1054122.979 8   2543960.180 6
  23699739.371    23699745.258    52105232.997 8 -38058679.866 7
 86  6 20  2 12 53.0800000  0  4G12G13G 9G11
  21599734.698    21599739.089   -29092933.778 8  31104647.357 8
  20717173.339    20717176.967    -7957082.775 9   3357834.794 7
  20719732.654    20719737.198     1067402.299 8   2554307.713 7
  23702777.575    23702783.303    52121198.092 8 -38046239.540 7
 86  6 20  2 12 59.0800000  0  4G12G13G 9G11
  21597343.965    21597347.686   -29105502.420 9  31094853.612 7
  20717589.363    20717592.667    -7954897.610 9   3359537.522 8
  20722263.116    20722269.019     1080704.862 8   2564673.334 7
  23705815.265    23705819.205    52137162.221 8 -38033799.940 6
 86  6 20  2 13  5.0800000  0  4G12G13G 9G11
  21594955.001    21594959.103   -29118051.784 9  31085074.889 7
  20718007.483    20718011.424    -7952699.542 9   3361250.293 8
  20724800.831    20724803.155     1094030.637 8   2575057.065 7
  23708854.517    23708859.116    52153125.393 8 -38021361.115 7
 86  6 20  2 13 11.0800000  0  4G12G13G 9G11
  21592570.254    21592575.321   -29130581.835 9  31075311.201 8
  20718428.397    20718430.989    -7950488.696 9   3362973.042 8
  20727340.116    20727345.344     1107379.706 7   2585458.923 7
  23711889.822    23711895.799    52169087.540 8 -38008923.059 7
 86  6 20  2 13 17.0800000  0  4G12G13G 9G11
  21590190.571    21590194.603   -29143092.477 9  31065562.661 8
  20718850.749    20718856.216    -7948265.040 9   3364705.761 8
  20729885.341    20729888.533     1120751.964 9   2595878.861 7
  23714927.939    23714932.905    52185048.700 9 -37996485.807 7
 86  6 20  2 13 23.0800000  0  4G12G13G 9G11
  21587813.767    21587817.582   -29155583.647 9  31055829.277 8
  20719275.501    20719280.368    -7946028.626 9   3366448.429 8
  20732433.963    20732437.783     1134147.410 7   2606316.867 8
  23717964.779    23717971.596    52201008.841 8 -37984049.313 7
 86  6 20  2 13 29.0800000  0  4G12G13G 9G11
  21585440.549    21585443.963   -29168055.386 9  31046111.051 7
  20719705.148    20719708.514    -7943779.423 9   3368201.053 7
  20734987.524    20734990.506     1147565.966 8   2616772.872 6
  23721002.449    23721006.508    52216968.006 8 -37971613.601 7
 86  6 20  2 13 35.0800000  0  4G12G13G 9G11
  21583070.514    21583074.967   -29180507.601 9  31036408.033 7
  20720134.943    20720139.359    -7941517.385 9   3369963.682 7
  20737544.352    20737549.378     1161007.753 7   2627246.988 7
  23724038.039    23724044.580    52232926.164 8 -37959178.679 7
 86  6 20  2 13 41.0800000  0  4G12G13G 9G11
  21580704.271    21580707.183   -29192940.199 8  31026720.295 8
  20720568.089    20720571.759    -7939242.486 9   3371736.337 7
  20740107.713    20740112.171     1174472.781 8   2637739.220 7
  23727075.147    23727080.441    52248883.337 9 -37946744.508 7
 86  6 20  2 13 47.0800000  0  4G12G13G 9G11
  21578341.358    21578346.648   -29205353.216 9  31017047.815 7
  20721004.117    20721007.741    -7936954.701 9   3373519.023 8
  20742674.177    20742679.103     1187961.072 8   2648249.575 6
  23730110.250    23730117.119    52264839.551 8 -37934311.111 8
 86  6 20  2 13 53.0800000  0  4G12G13G 9G11
  21575983.629    21575989.274   -29217746.704 9  31007390.536 8
  20721441.263    20721444.833    -7934654.172 9   3375311.637 8
  20745246.536    20745251.008     1201472.487 8   2658777.941 6
  23733146.728    23733154.178    52280794.770 7 -37921878.462 7
 86  6 20  2 13 59.0800000  0  4G12G13G 9G11
  21573629.442    21573633.809   -29230120.608 9  30997748.534 8
  20721882.134    20721886.314    -7932340.905 9   3377114.197 8
  20747821.083    20747825.952     1215007.064 7   2669324.358 7
  23736184.416    23736189.874    52296749.033 7 -37909446.565 8
 86  6 20  2 14  5.0800000  0  4G12G13G 9G11
  21571277.359    21571282.872   -29242474.893 9  30988121.835 8
  20722323.513    20722327.741    -7930014.779 8   3378926.770 8
  20750401.591    20750405.537     1228564.789 8   2679888.832 7
  23739219.674    23739224.872    52312702.310 8 -37897015.453 7
 86  6 20  2 14 11.0800000  0  4G12G13G 9G11
  21568930.561    21568936.410   -29254809.545 9  30978510.406 7
  20722769.674    20722773.232    -7927675.813 9   3380749.320 7
  20752986.182    20752990.750     1242145.636 8   2690471.292 6
  23742255.444    23742260.858    52328654.612 8 -37884585.068 8
 86  6 20  2 14 17.0800000  0  4G12G13G 9G11
  21566587.176    21566591.442   -29267124.563 9  30968914.301 8
  20723216.406    20723220.119    -7925324.131 8   3382581.814 8
  20755574.286    20755578.398     1255749.624 9   2701071.801 7
  23745290.606    23745296.547    52344605.849 8 -37872155.540 8
 86  6 20  2 14 23.0800000  0  4G12G13G 9G11
  21564248.234    21564251.994   -29279419.934 9  30959333.485 8
  20723666.317    20723670.414    -7922959.783 9   3384424.161 8
  20758167.149    20758170.009     1269376.656 9   2711690.264 6
  23748325.156    23748332.411    52360556.044 8 -37859726.833 8
 86  6 20  2 14 29.0800000  0  4G12G13G 9G11
  21561912.740    21561916.161   -29291695.616 8  30949768.015 8
  20724118.459    20724122.362    -7920582.741 8   3386276.402 7
  20760767.153    20760768.743     1283026.781 8   2722326.713 6
  23751360.497    23751366.809    52376505.204 7 -37847298.907 7
 86  6 20  2 14 35.0800000  0  4G12G13G 9G11
  21559578.903    21559583.786   -29303951.637 9  30940217.882 8
  20724573.980    20724576.633    -7918193.141 9   3388138.417 8
  20763367.080    20763370.836     1296699.909 9   2732981.090 6
  23754395.420    23754402.102    52392453.247 8 -37834871.859 7
 86  6 20  2 14 41.0800000  0  4G12G13G 9G11
  21557250.262    21557254.927   -29316188.007 9  30930683.053 7
  20725030.382    20725034.762    -7915790.903 9   3390010.303 8
  20765973.099    20765977.608     1310395.946 9   2743653.339 6
  23757430.504    23757435.904    52408400.145 8 -37822445.719 8
 86  6 20  2 14 47.0800000  0  4G12G13G 9G11
  21554926.285    21554929.900   -29328404.691 9  30921163.546 8
  20725489.222    20725494.875    -7913376.070 9   3391891.997 8
  20768584.862    20768588.739     1324115.033 8   2754343.525 7
  23760464.836    23760469.831    52424345.889 7 -37810020.451 8
 86  6 20  2 14 53.0800000  0  4G12G13G 9G11
  21552604.353    21552608.942   -29340601.708 9  30911659.380 7
  20725951.807    20725957.024    -7910948.660 8   3393783.480 8
  20771198.247    20771203.584     1337856.960 8   2765051.528 7
  23763498.317    23763504.691    52440290.493 8 -37797596.086 7
 86  6 20  2 14 59.0800000  0  4G12G13G 9G11
  21550287.765    21550291.283   -29352778.909 9  30902170.645 8
  20726415.568    20726420.845    -7908508.745 9   3395684.714 8
  20773818.391    20773823.017     1351621.881 8   2775777.431 6
  23766533.983    23766539.513    52456233.904 8 -37785172.665 8
 86  6 20  2 15  5.0800000  0  4G12G13G 9G11
  21547974.237    21547978.838   -29364936.319 9  30892697.350 7
  20726883.250    20726887.366    -7906056.299 9   3397595.710 8
  20776442.738    20776445.207     1365409.683 9   2786521.183 7
  23769566.035    23769573.176    52472176.172 8 -37772750.110 9
 86  6 20  2 15 11.0800000  0  4G12G13G 9G11
  21545664.288    21545669.163   -29377073.998 8  30883239.396 8
  20727351.109    20727356.438    -7903591.289 9   3399516.506 8
  20779070.049    20779073.086     1379220.408 8   2797282.764 6
  23772600.501    23772604.997    52488117.257 7 -37760328.501 7
 86  6 20  2 15 17.0800000  0  4G12G13G 9G11
  21543358.599    21543363.046   -29389191.788 9  30873796.978 7
  20727823.313    20727828.700    -7901113.666 9   3401447.114 8
  20781703.075    20781706.525     1393054.071 9   2808062.252 6
  23775631.702    23775638.246    52504057.194 7 -37747907.762 8
 86  6 20  2 15 23.0800000  0  4G12G13G 9G11
  21541055.477    21541060.808   -29401289.584 9  30864370.130 8
  20728297.667    20728302.422    -7898623.456 8   3403387.552 7
  20784339.576    20784344.226     1406910.627 8   2818859.555 7
  23778665.746    23778671.953    52519996.074 8 -37735487.845 8
 86  6 20  2 15 29.0800000  0  4G12G13G 9G11
  21538756.675    21538762.100   -29413367.548 8  30854958.734 7
  20728773.016    20728779.325    -7896120.608 8   3405337.828 9
  20786981.446    20786986.034     1420790.245 8   2829674.825 6
  23781698.218    23781704.991    52535933.885 8 -37723068.783 8
 86  6 20  2 15 35.0800000  0  4G12G13G 9G11
  21536463.345    21536467.953   -29425425.571 9  30845562.855 7
  20729251.317    20729256.504    -7893605.195 9   3407297.887 7
  20789626.664    20789629.439     1434692.728 8   2840507.949 7
  23784731.938    23784739.092    52551870.578 8 -37710650.578 7
 86  6 20  2 15 41.0800000  0  4G12G13G 9G11
  21534172.753    21534177.531   -29437463.474 9  30836182.677 7
  20729732.246    20729737.566    -7891077.185 9   3409267.751 7
  20792277.086    20792280.730     1448618.145 8   2851358.907 7
  23787765.410    23787770.184    52567806.207 7 -37698233.203 8
 86  6 20  2 15 47.0800000  0  4G12G13G 9G11
  21531886.314    21531890.414   -29449481.289 9  30826818.150 8
  20730216.465    20730220.891    -7888536.534 9   3411247.485 8
  20794931.465    20794933.987     1462566.425 8   2862227.684 7
  23790795.621    23790802.542    52583740.766 7 -37685816.667 8
 86  6 20  2 15 53.0800000  0  4G12G13G 9G11
  21529602.392    21529606.380   -29461479.090 9  30817469.219 8
  20730701.670    20730706.126    -7885983.359 9   3413236.971 7
  20797588.932    20797593.450     1476537.596 8   2873114.329 7
  23793828.682    23793834.788    52599674.228 7 -37673400.983 8
 86  6 20  2 15 59.0800000  0  4G12G13G 9G11
  21527323.398    21527327.076   -29473456.822 9  30808135.922 8
  20731190.325    20731195.844    -7883417.660 9   3415236.219 8
  20800253.222    20800256.050     1490531.652 9   2884018.786 6
  23796861.430    23796865.619    52615606.549 7 -37660986.181 8
 86  6 20  2 16  5.0800000  0  4G12G13G 9G11
  21525047.709    21525051.450   -29485414.473 9  30798818.272 8
  20731681.330    20731685.980    -7880839.458 8   3417245.223 8
  20802920.765    20802923.251     1504548.543 9   2894941.033 6
  23799891.296    23799897.245    52631537.773 7 -37648572.252 8
 86  6 20  2 16 11.0800000  0  4G12G13G 9G11
  21522776.309    21522780.748   -29497351.983 9  30789516.318 8
  20732174.141    20732178.945    -7878248.808 8   3419263.909 8
  20805591.041    20805595.271     1518588.266 8   2905881.063 7
  23802924.196    23802930.354    52647467.749 7 -37636159.287 9
 86  6 20  2 16 17.0800000  0  4G12G13G 9G11
  21520509.124    21520512.387   -29509269.452 9  30780229.980 8
  20732669.183    20732674.173    -7875645.688 9   3421292.311 7
  20808267.857    20808271.466     1532650.827 8   2916838.899 6
  23805954.549    23805960.856    52663396.549 7 -37623747.246 7
 86  6 20  2 16 23.0800000  0  4G12G13G 9G11
  21518245.093    21518249.058   -29521166.869 9  30770959.272 8
  20733166.629    20733170.816    -7873030.108 8   3423330.434 7
  20810948.267    20810950.783     1546735.995 9   2927814.354 6
  23808986.829    23808991.522    52679324.076 7 -37611336.188 8
 86  6 20  2 16 29.0800000  0  4G12G13G 9G11
  21515984.303    21515987.879   -29533044.212 9  30761704.199 8
  20733666.504    20733673.016    -7870402.140 8   3425378.194 8
  20813631.813    20813635.568     1560843.927 8   2938807.545 6
  23812017.478    23812022.555    52695250.346 8 -37598926.109 8
 86  6 20  2 16 35.0800000  0  4G12G13G 9G11
  21513728.188    21513732.418   -29544901.394 8  30752464.824 8
  20734169.700    20734174.062    -7867761.781 9   3427435.624 8
  20816322.134    20816322.640     1574974.489 9   2949818.365 7
  23815046.887    23815052.497    52711175.359 7 -37586517.018 8
 86  6 20  2 16 41.0800000  0  4G12G13G 9G11
  21511475.718    21511479.642   -29556738.501 8  30743241.116 8
  20734675.021    20734678.917    -7865109.084 8   3429502.648 7
  20819014.666    20819018.224     1589127.721 8   2960846.865 7
  23818077.326    23818082.641    52727099.094 7 -37574108.920 8
 86  6 20  2 16 47.0800000  0  4G12G13G 9G11
  21509227.177    21509230.541   -29568555.607 9  30734032.993 8
  20735180.736    20735185.478    -7862444.192 9   3431579.203 8
  20821711.302    20821714.108     1603303.567 9   2971892.964 6
  23821108.212    23821113.908    52743021.516 8 -37561701.829 7
 86  6 20  2 16 53.0800000  0  4G12G13G 9G11
  21506982.403    21506986.823   -29580352.550 8  30724840.558 8
  20735690.913    20735695.822    -7859766.974 8   3433665.336 8
  20824413.990    20824417.797     1617501.983 9   2982956.669 6
  23824136.992    23824142.244    52758942.631 8 -37549295.783 7
 86  6 20  2 16 59.0800000  0  4G12G13G 9G11
  21504740.697    21504745.291   -29592129.272 9  30715663.888 8
  20736203.070    20736207.920    -7857077.482 9   3435761.053 8
  20827119.883    20827125.229     1631723.018 9   2994037.994 6
  23827166.287    23827172.812    52774862.445 8 -37536890.737 8
 86  6 20  2 17  5.0800000  0  4G12G13G 9G11
  21502503.629    21502507.485   -29603885.748 9  30706503.003 7
  20736717.172    20736722.597    -7854375.735 8   3437866.304 8
  20829829.815    20829835.425     1645966.585 7   3005136.876 6
  23830196.867    23830201.127    52790780.896 8 -37524486.765 6
 86  6 20  2 17 11.0800000  0  4G12G13G 9G11
  21500271.093    21500274.968   -29615621.980 8  30697357.887 7
  20737233.590    20737238.401    -7851661.769 8   3439981.088 8
  20832545.168    20832549.390     1660232.737 9   3016253.350 7
  23833225.762    23833229.987    52806697.938 8 -37512083.866 8
 86  6 20  2 17 17.0800000  0  4G12G13G 9G11
  21498041.044    21498044.376   -29627338.008 9  30688228.505 8
  20737750.955    20737757.121    -7848935.580 8   3442105.393 8
  20835264.503    20835268.998     1674521.325 8   3027387.311 7
  23836253.711    23836258.987    52822613.611 8 -37499682.047 8
 86  6 20  2 17 23.0800000  0  4G12G13G 9G11
  21495815.510    21495819.715   -29639033.900 9  30679114.836 8
  20738272.778    20738276.483    -7846197.211 9   3444239.189 7
  20837987.596    20837990.984     1688832.389 8   3038538.769 8
  23839281.736    23839286.597    52838527.827 8 -37487281.354 8
 86  6 20  2 17 29.0800000  0  4G12G13G 9G11
  21493593.927    21493598.225   -29650709.619 9  30670016.869 9
  20738796.931    20738800.776    -7843446.782 9   3446382.383 8
  20840713.889    20840719.577     1703165.934 9   3049707.763 7
  23842309.715    23842315.424    52854440.617 8 -37474881.798 8
 86  6 20  2 17 35.0800000  0  4G12G13G 9G11
  21491375.394    21491380.174   -29662365.076 8  30660934.694 8
  20739321.046    20739327.059    -7840684.207 9   3448535.045 8
  20843447.264    20843450.425     1717521.824 9   3060894.163 7
  23845337.959    23845343.210    52870351.993 8 -37462483.324 8
 86  6 20  2 17 41.0800000  0  4G12G13G 9G11
  21489160.827    21489166.239   -29674000.179 9  30651868.385 7
  20739849.657    20739855.566    -7837909.503 8   3450697.156 7
  20846183.071    20846189.006     1731900.253 8   3072098.131 7
  23848365.011    23848371.027    52886261.971 8 -37450085.947 9
 86  6 20  2 17 47.0800000  0  4G12G13G 9G11
  21486951.126    21486956.140   -29685614.910 9  30642817.942 8
  20740380.901    20740384.865    -7835122.591 9   3452868.774 8
  20848923.359    20848927.266     1746301.105 9   3083319.572 6
  23851393.877    23851398.288    52902170.627 8 -37437689.592 8
 86  6 20  2 17 53.0800000  0  4G12G13G 9G11
  21484744.579    21484749.130   -29697209.210 9  30633783.435 7
  20740912.973    20740917.367    -7832323.420 9   3455049.944 7
  20851668.320    20851672.432     1760724.542 8   3094558.602 6
  23854418.877    23854425.126    52918078.014 9 -37425294.232 8
 86  6 20  2 17 59.0800000  0  4G12G13G 9G11
  21482542.790    21482547.198   -29708783.046 9  30624764.853 8
  20741447.422    20741452.049    -7829512.025 8   3457240.643 8
  20854416.793    20854420.894     1775170.472 9   3105815.173 6
  23857446.531    23857452.217    52933984.120 9 -37412899.860 8
 86  6 20  2 18  5.0800000  0  4G12G13G 9G11
  21480344.888    21480348.640   -29720336.375 9  30615762.268 9
  20741985.223    20741990.515    -7826688.389 8   3459440.891 7
  20857171.099    20857175.330     1789638.871 9   3117089.243 8
  23860472.858    23860478.296    52949888.910 8 -37400506.539 8
 86  6 20  2 18 11.0800000  0  4G12G13G 9G11
  21478149.748    21478153.954   -29731869.190 9  30606775.660 8
  20742525.022    20742529.729    -7823852.574 9   3461650.620 7
  20859928.448    20859932.264     1804129.655 8   3128380.763 6
  23863498.708    23863505.228    52965792.291 9 -37388114.272 8
 86  6 20  2 18 17.0800000  0  4G12G13G 9G11
  21475957.811    21475963.229   -29743381.534 9  30597804.999 8
  20743066.769    20743071.673    -7821004.565 8   3463869.848 6
  20862690.306    20862693.995     1818642.877 9   3139689.767 6
  23866525.112    23866529.721    52981694.345 8 -37375723.085 7
 86  6 20  2 18 23.0800000  0  4G12G13G 9G11
  21473772.001    21473776.384   -29754873.261 9  30588850.411 8
  20743611.659    20743615.163    -7818144.313 9   3466098.609 7
  20865456.772    20865459.177     1833178.584 8   3151016.286 6
  23869550.877    23869555.180    52997595.080 8 -37363332.903 8
 86  6 20  2 18 29.0800000  0  4G12G13G 9G11
  21471588.926    21471594.623   -29766344.420 9  30579911.846 7
  20744159.131    20744162.593    -7815271.836 9   3468336.908 7
  20868227.109    20868230.403     1847736.715 9   3162360.278 7
  23872576.917    23872582.127    53013494.409 8 -37350943.820 8
 86  6 20  2 18 35.0800000  0  4G12G13G 9G11
  21469410.141    21469415.882   -29777795.012 9  30570989.302 8
  20744706.288    20744710.551    -7812387.256 9   3470584.630 8
  20871002.250    20871004.956     1862317.253 9   3173721.740 7
  23875602.663    23875607.033    53029392.396 9 -37338555.783 8
 86  6 20  2 18 41.0800000  0  4G12G13G 9G11
  21467234.465    21467240.097   -29789224.993 9  30562082.825 8
  20745257.047    20745262.111    -7809490.559 9   3472841.799 8
  20873779.668    20873783.662     1876920.036 9   3185100.523 7
  23878626.827    23878631.859    53045289.006 8 -37326168.815 9
 86  6 20  2 18 47.0800000  0  4G12G13G 9G11
  21465064.392    21465068.229   -29800634.347 9  30553192.418 8
  20745811.361    20745817.138    -7806581.791 9   3475108.378 7
  20876562.626    20876566.148     1891545.228 9   3196496.782 6
  23881650.549    23881657.365    53061184.216 8 -37313782.955 8
 86  6 20  2 18 53.0800000  0  4G12G13G 9G11
  21462895.939    21462900.152   -29812023.017 9  30544318.138 7
  20746367.759    20746373.050    -7803660.864 9   3477384.404 8
  20879351.561    20879353.993     1906192.730 8   3207910.430 6
  23884675.321    23884681.790    53077077.992 9 -37301398.181 8
 86  6 20  2 18 59.0800000  0  4G12G13G 9G11
  21460733.294    21460738.176   -29823391.003 9  30535459.966 8
  20746925.847    20746930.349    -7800727.962 8   3479669.808 8
  20882142.672    20882143.746     1920862.526 8   3219341.425 7
  23887699.759    23887705.451    53092970.353 8 -37289014.536 8
 86  6 20  2 19  5.0800000  0  4G12G13G 9G11
  21458574.071    21458579.115   -29834738.370 9  30526617.868 7
  20747485.735    20747490.503    -7797783.047 8   3481964.547 8
  20884938.066    20884941.625     1935554.508 9   3230789.714 7
  23890723.387    23890729.623    53108861.231 9 -37276632.031 8
 86  6 20  2 19 11.0800000  0  4G12G13G 9G11
  21456419.330    21456422.903   -29846065.095 9  30517791.841 8
  20748047.946    20748053.127    -7794826.112 8   3484268.653 7
  20887737.206    20887740.926     1950268.681 9   3242255.309 7
  23893747.874    23893752.901    53124750.574 9 -37264250.734 8
 86  6 20  2 19 17.0800000  0  4G12G13G 9G11
  21454267.020    21454272.042   -29857371.266 9  30508981.843 9
  20748613.191    20748618.330    -7791857.217 8   3486582.078 7
  20890542.278    20890544.250     1965004.987 9   3253738.133 6
  23896770.271    23896778.213    53140638.380 8 -37251870.620 8
 86  6 20  2 19 23.0800000  0  4G12G13G 9G11
  21452119.325    21452124.290   -29868656.858 8  30500187.878 7
  20749179.201    20749183.635    -7788876.450 8   3488904.747 8
  20893350.125    20893354.078     1979763.456 9   3265238.231 6
  23899793.708    23899799.388    53156524.640 9 -37239491.723 8
 86  6 20  2 19 29.0800000  0  4G12G13G 9G11
  21449976.424    21449979.765   -29879921.799 9  30491410.004 8
  20749750.600    20749755.518    -7785883.874 9   3491236.631 8
  20896163.268    20896167.235     1994543.997 9   3276755.532 6
  23902817.584    23902822.529    53172409.300 8 -37227114.065 9
 86  6 20  2 19 35.0800000  0  4G12G13G 9G11
  21447836.237    21447840.708   -29891166.082 9  30482648.219 9
  20750322.021    20750326.411    -7782879.392 8   3493577.773 7
  20898978.369    20898984.116     2009346.660 8   3288290.068 6
  23905839.808    23905845.304    53188292.401 9 -37214737.640 9
 86  6 20  2 19 41.0800000  0  4G12G13G 9G11
  21445700.112    21445705.222   -29902389.658 9  30473902.579 8
  20750896.362    20750900.042    -7779863.041 9   3495928.184 8
  20901800.697    20901803.693     2024171.394 8   3299841.794 7
  23908861.709    23908867.902    53204173.943 9 -37202362.417 8
 86  6 20  2 19 47.0800000  0  4G12G13G 9G11
  21443568.349    21443573.364   -29913592.457 9  30465173.119 8
  20751473.168    20751477.818    -7776834.796 8   3498287.860 8
  20904626.501    20904630.435     2039018.170 8   3311410.715 8
  23911883.277    23911889.135    53220053.909 8 -37189988.415 8
